GFSSGP_sfc_temp_000.txt.gz
Temp
87 93 97 89 79 83 66 69 84 79 79 83 80 80 76 73 75 69 89 90 90 90 90 88 81 82 82 82 83 83 83 83 83 83 84 84 84 84 84 84 84 84 84 84 84 84 84 84 84
98 95 94 91 83 71 75 82 80 83 85 88 84 81 81 71 79 78 84 89 91 94 95 93 80 83 83 83 83 83 84 84 84 84 84 84 84 84 85 84 84 84 84 84 84 84 84 84 84
99 98 92 89 85 76 75 82 83 85 87 85 82 87 84 77 84 88 92 92 94 92 92 89 82 83 83 83 83 83 84 83 84 84 84 84 85 85 85 85 84 84 84 84 84 84 84 84 84
98 96 95 83 79 81 82 85 86 84 86 87 87 79 86 91 88 93 93 94 94 92 92 85 83 83 83 83 83 83 84 84 83 84 85 85 85 85 85 85 85 85 84 84 84 84 84 84 84
100 97 88 83 80 84 88 88 88 85 85 85 88 80 80 87 92 93 93 94 93 95 95 93 82 83 83 83 84 84 84 84 84 84 84 85 85 85 85 85 85 85 85 84 84 84 84 84 84
94 95 86 80 81 85 88 90 88 85 86 84 85 81 81 90 90 92 94 91 94 96 93 93 83 83 83 83 84 84 84 84 84 84 85 85 85 85 85 85 85 85 85 85 84 84 84 84 84
93 91 83 84 81 82 85 92 87 86 84 84 90 81 84 87 92 94 93 95 95 96 91 93 93 88 84 84 84 84 84 84 85 85 85 85 85 85 85 85 85 85 85 85 85 85 84 84 83
98 94 83 86 83 82 90 90 92 89 84 94 93 80 79 88 92 95 95 93 92 95 95 91 91 91 91 91 84 84 85 85 85 85 85 85 85 85 85 85 84 85 85 85 85 84 83 83 82
97 89 85 84 84 86 92 88 92 94 87 88 91 90 92 92 93 92 90 87 90 93 93 94 93 90 89 91 89 86 85 85 85 86 85 86 97 95 92 85 84 84 85 84 84 83 82 82 82
93 89 87 93 94 91 90 91 89 87 86 86 86 91 92 90 90 89 88 87 89 90 92 95 94 91 92 95 90 90 92 94 94 93 91 94 94 94 91 89 83 84 84 84 83 83 83 86 97
95 88 93 93 95 97 92 90 93 88 84 88 85 87 88 88 88 89 90 91 92 92 94 92 93 91 92 91 93 94 94 95 93 91 91 93 93 95 98 97 96 95 86 97 94 94 96 90 92
89 96 96 96 95 96 92 95 90 89 90 95 94 91 89 87 88 90 90 91 92 91 92 93 93 90 91 88 92 93 94 94 94 94 90 90 92 92 92 96 95 92 97 92 93 95 90 89 89
92 95 97 99 96 97 97 92 90 89 93 96 94 90 88 89 89 91 92 93 92 91 92 93 92 88 89 88 92 93 92 94 95 94 92 93 93 88 91 90 90 90 95 96 91 91 90 88 90
96 96 96 98 96 96 92 90 91 92 96 92 90 89 90 90 91 90 91 90 90 91 91 93 91 89 89 89 88 90 92 94 94 95 94 90 92 87 91 91 91 91 94 94 92 89 88 88 90
96 90 90 93 95 91 95 84 85 93 93 90 89 89 90 90 92 90 91 90 91 92 92 92 91 90 88 88 88 90 93 94 94 94 91 90 89 87 87 91 89 91 90 87 89 88 90 90 90
91 92 85 91 92 92 92 83 89 94 91 88 89 89 88 90 92 92 92 92 92 92 90 91 94 93 90 89 90 91 93 94 94 95 94 90 89 88 88 89 90 91 89 90 90 90 89 89 89
90 82 85 85 93 88 88 85 91 94 92 90 88 89 89 89 90 91 93 93 93 91 90 89 90 90 90 88 90 90 91 90 88 91 91 91 89 89 89 90 90 88 88 84 88 89 87 87 88
81 83 87 85 88 89 86 88 88 92 92 91 89 90 89 89 90 92 93 94 94 92 91 89 90 88 88 86 85 89 89 91 92 93 90 90 88 89 87 88 88 88 84 88 89 83 88 85 86
90 87 85 90 92 88 87 87 90 89 91 91 90 89 90 90 94 94 93 94 94 92 90 89 88 87 88 86 88 89 90 91 90 94 89 89 90 89 88 89 87 87 86 87 85 85 84 86 88
89 85 85 91 91 89 89 86 91 92 88 91 91 91 90 92 93 92 92 94 94 91 90 88 88 87 87 90 89 91 89 94 92 94 90 90 90 88 88 87 87 86 90 84 83 82 84 87 87
87 85 86 86 87 90 88 83 87 92 92 91 94 94 94 92 92 91 91 92 93 91 90 89 88 87 87 88 89 88 87 88 90 89 88 89 88 88 87 87 88 86 85 88 84 83 81 83 85
82 92 90 87 84 76 88 75 85 91 88 89 91 92 94 93 93 93 92 92 93 92 92 90 89 88 88 88 89 86 88 89 93 92 94 92 89 89 88 87 86 84 88 85 84 86 82 81 83
84 94 89 88 85 83 82 78 83 89 87 90 92 93 95 96 95 93 93 93 94 94 93 92 89 88 88 88 87 89 86 92 93 93 88 86 88 88 89 87 85 84 86 83 83 82 80 85 83
92 88 87 88 85 73 81 79 80 86 87 93 96 95 95 96 96 94 95 94 93 95 94 92 89 87 88 88 87 86 87 87 91 89 89 89 91 89 87 86 85 85 85 83 84 82 81 81 81
88 83 71 69 70 70 84 79 81 92 96 97 98 98 96 97 96 94 93 93 92 92 92 92 89 86 88 88 87 87 86 87 86 87 88 89 90 90 86 84 83 86 84 84 83 81 82 81 81
83 83 74 62 67 72 82 73 82 94 99 101 102 101 100 98 99 96 94 94 92 92 92 91 90 87 88 88 87 87 87 90 90 89 91 90 90 90 89 85 85 85 85 84 83 84 84 83 82
83 79 89 79 81 75 80 82 90 95 95 98 98 98 99 98 98 97 96 95 94 93 92 91 89 88 89 89 87 86 87 87 90 90 89 90 88 91 87 85 85 85 85 83 82 84 82 82 82
87 90 77 80 65 63 74 77 79 86 91 96 97 97 99 99 98 100 98 97 96 96 95 93 92 89 90 90 89 89 88 87 88 89 86 87 88 86 85 85 85 84 83 83 81 83 83 81 83
82 81 82 84 79 69 67 74 91 88 92 94 99 99 101 100 98 99 100 100 98 98 97 95 93 90 90 91 90 89 89 90 88 88 84 85 84 84 83 83 83 83 82 82 80 80 82 81 80
89 83 83 74 70 78 76 78 97 96 96 98 99 103 105 102 100 99 101 101 99 97 98 97 96 94 93 93 90 89 90 89 88 85 84 82 80 82 80 81 79 81 83 82 80 80 83 81 80

GFSSGP_sfc_temp_003.txt.gz
Temp
86 93 92 83 65 66 68 78 81 80 81 90 89 75 74 74 71 67 79 89 92 90 90 87 82 83 83 83 83 83 83 83 83 84 84 84 84 84 84 84 85 84 85 85 84 84 84 84 84
99 98 95 91 80 58 61 81 76 83 87 92 91 85 81 68 84 83 85 89 92 95 95 93 82 83 82 83 83 83 84 84 84 84 84 84 85 85 85 85 85 85 84 85 85 85 84 84 84
102 102 84 81 79 69 71 81 87 90 93 91 88 90 82 70 88 88 93 95 93 90 91 89 83 82 83 83 84 84 84 84 84 84 85 85 85 85 85 85 85 85 84 84 85 84 84 84 84
100 98 95 88 82 86 81 87 90 89 92 94 91 83 89 95 90 95 97 96 92 93 92 86 84 83 84 84 84 84 84 84 84 84 85 85 85 85 85 85 85 85 85 85 85 85 85 84 84
103 97 86 85 84 89 92 93 93 88 91 92 92 83 84 93 97 97 97 94 92 94 94 91 84 84 84 84 84 84 84 84 84 85 85 85 85 86 86 85 85 85 85 85 85 85 85 85 84
89 97 81 83 84 89 93 95 94 92 92 90 88 85 85 96 95 96 96 92 93 91 94 92 84 84 84 84 84 84 84 84 84 84 85 85 85 86 86 85 85 85 85 85 85 85 84 84 84
92 83 82 88 85 87 90 97 94 92 90 90 93 84 87 92 97 96 94 94 93 96 93 94 92 87 84 84 84 85 84 84 85 85 85 85 85 86 85 86 86 85 85 85 85 85 84 84 83
100 91 88 87 86 85 94 96 97 94 91 99 99 84 82 92 98 97 94 93 92 96 93 91 92 93 91 90 85 85 85 85 85 85 85 85 86 86 87 86 85 85 85 85 85 84 83 83 83
105 84 86 87 80 90 97 94 97 101 94 95 96 95 95 96 99 96 89 88 89 90 93 95 96 93 92 91 88 86 85 85 85 86 86 87 89 89 92 87 85 85 85 85 84 83 83 84 83
96 74 86 97 93 94 95 96 95 93 91 91 92 98 96 95 96 94 89 86 90 91 94 97 92 91 93 96 89 90 92 93 93 94 90 93 94 90 93 90 85 85 85 85 84 84 84 85 90
98 82 93 98 99 100 96 95 99 93 87 92 89 91 92 93 94 94 91 93 94 96 97 92 88 90 91 83 94 94 95 96 95 93 93 95 94 89 87 83 91 92 87 86 86 87 88 92 93
94 96 97 99 99 99 96 100 95 95 95 99 97 96 93 92 93 94 94 95 96 95 95 95 93 89 91 91 94 96 96 97 96 95 91 90 92 90 92 85 87 90 85 91 90 88 91 91 90
96 97 99 100 100 100 101 96 95 94 99 101 99 95 93 93 93 95 97 97 97 95 96 96 95 91 92 89 94 96 95 96 97 96 94 94 94 88 89 91 93 92 90 87 91 91 91 90 89
100 100 99 100 101 100 96 96 96 97 100 98 96 94 94 94 94 94 95 95 95 95 95 96 94 90 88 88 90 92 94 93 96 97 96 91 93 81 92 87 86 84 88 87 92 88 88 86 88
101 93 97 97 99 96 99 91 91 99 99 95 95 94 94 95 96 94 95 94 95 95 95 94 93 93 90 89 89 91 95 96 94 96 94 93 92 91 88 88 90 92 89 88 86 83 83 88 93
94 95 87 97 98 98 96 84 94 100 97 95 95 94 93 94 96 96 96 96 96 95 92 93 97 95 91 88 89 92 94 88 93 90 88 92 91 89 89 90 90 86 91 87 89 78 83 90 90
92 84 87 88 99 96 93 84 95 99 97 95 95 95 94 94 95 96 97 96 97 94 92 91 93 94 92 89 92 92 91 90 88 92 94 87 91 90 90 90 88 88 88 88 89 86 86 88 88
82 85 89 86 94 95 90 85 95 98 97 96 95 96 94 94 95 97 97 97 97 95 93 91 92 91 91 88 86 90 93 92 93 92 94 92 91 90 90 91 89 89 83 89 77 83 87 86 86
92 90 88 93 97 93 90 90 93 96 96 96 96 95 95 95 98 99 97 98 97 95 92 91 89 89 89 88 86 87 88 91 94 95 91 90 90 90 88 89 87 88 87 83 86 86 85 87 88
90 89 88 94 93 94 91 89 96 95 95 96 96 96 96 97 98 96 96 97 96 93 92 90 89 88 88 89 87 91 88 92 96 96 94 92 87 89 88 87 90 89 88 86 85 83 83 87 87
89 88 89 89 91 94 91 85 90 97 97 97 99 100 99 98 97 95 95 95 96 93 92 91 89 89 89 89 89 89 90 91 91 93 92 91 91 91 89 88 87 87 87 89 85 84 81 82 85
83 93 92 91 83 78 92 76 87 94 94 94 97 98 99 99 99 98 96 95 96 95 94 92 90 89 90 88 89 86 87 88 93 94 96 93 90 90 90 88 89 87 87 85 85 86 82 81 83
87 96 92 91 88 78 85 81 83 93 90 94 96 98 100 101 100 98 97 96 97 97 95 94 91 89 90 88 88 90 87 93 96 96 92 91 89 91 92 90 88 85 87 85 83 83 80 84 83
95 92 91 91 88 76 84 79 82 84 92 96 99 99 99 101 101 99 100 98 96 98 96 95 90 88 89 89 87 87 86 88 93 92 91 92 92 91 89 90 87 85 86 85 84 83 82 81 81
91 86 74 72 73 72 87 82 77 94 98 99 100 102 102 102 101 100 97 97 96 95 95 95 91 88 89 89 89 88 87 87 89 90 90 91 92 92 87 88 85 86 84 85 84 82 83 82 82
86 86 75 63 69 75 86 77 86 99 103 104 105 106 106 103 103 101 99 98 96 96 95 95 92 89 90 90 89 89 89 91 92 90 93 92 92 92 90 87 87 85 86 85 84 84 84 84 83
86 81 92 81 84 77 82 87 95 98 99 101 102 104 105 103 103 101 100 99 97 96 95 94 92 90 91 91 90 89 89 89 91 91 90 93 91 92 89 88 85 85 85 85 83 83 83 82 82
88 94 80 83 67 66 78 80 83 89 92 97 99 101 103 105 103 103 102 100 99 99 97 96 95 91 91 92 92 91 90 89 90 91 90 90 90 88 88 86 85 85 85 84 82 83 83 81 83
84 84 86 86 82 71 70 78 95 92 94 95 99 102 105 104 103 103 103 103 101 100 99 97 96 93 92 93 92 92 91 91 90 90 90 89 89 86 86 84 84 84 84 83 81 81 83 81 81
90 85 85 78 72 80 79 80 99 99 99 99 100 103 106 105 105 105 105 104 102 101 100 99 97 96 94 94 93 92 91 91 90 89 90 87 86 86 84 83 82 83 83 78 81 81 83 81 80

GFSSGP_sfc_temp_006.txt.gz
Temp
84 88 92 79 65 68 65 71 80 66 79 85 83 74 74 77 71 63 81 86 86 85 84 84 83 83 83 83 83 83 83 83 83 83 84 84 84 84 84 84 84 84 84 84 84 84 84 84 84
93 92 84 67 58 57 65 76 71 79 87 84 82 79 76 74 81 80 80 87 90 89 88 87 82 83 83 83 83 83 84 83 83 84 84 84 84 84 84 84 84 84 84 84 84 84 84 84 84
96 95 77 70 70 59 60 65 81 86 85 83 79 85 78 77 82 83 88 91 91 89 89 85 83 83 83 83 83 83 84 84 84 84 84 84 84 85 85 85 85 84 84 84 84 85 84 84 84
89 87 85 73 73 73 77 78 91 88 89 91 88 76 84 90 87 89 92 93 92 92 89 84 83 83 83 83 83 83 84 84 84 84 85 85 85 85 85 85 85 85 85 85 85 85 85 84 84
93 85 71 77 83 84 85 92 88 86 86 86 87 79 81 91 94 94 91 92 89 88 89 87 83 83 83 83 83 83 84 84 84 84 85 85 85 85 85 85 85 85 85 85 85 85 84 84 84
67 80 69 80 83 90 93 95 90 88 87 86 85 80 79 92 92 92 93 90 91 90 89 86 84 83 83 83 84 84 84 84 84 84 85 85 85 85 85 85 86 86 86 86 85 85 84 84 84
64 72 81 82 84 87 91 98 89 91 89 86 90 75 80 89 91 92 92 92 93 92 89 86 86 85 84 84 84 84 84 84 84 85 85 85 85 86 86 86 86 86 85 85 85 84 84 84 83
75 81 80 85 84 84 93 96 97 94 85 97 91 80 76 86 91 93 92 91 91 92 91 89 87 87 85 85 85 84 84 85 85 85 85 85 86 86 86 86 85 85 85 85 85 84 84 83 83
103 84 80 82 86 88 96 92 98 100 94 92 92 91 92 94 93 90 87 89 85 90 88 91 90 87 85 86 86 85 85 85 85 85 85 85 83 84 88 86 85 86 86 85 85 85 85 84 84
93 82 81 87 92 92 95 94 94 92 91 92 91 94 96 95 92 87 85 86 86 87 89 85 88 88 88 91 84 85 87 87 86 87 85 85 78 83 88 88 86 86 85 85 85 85 85 85 87
94 79 90 93 94 96 95 94 97 91 87 91 86 89 92 94 90 87 88 89 88 90 92 91 89 88 89 85 87 88 88 89 88 88 85 87 86 80 76 76 74 79 82 76 83 85 82 88 87
90 94 93 96 100 95 95 98 94 94 92 97 95 93 92 92 92 90 89 90 92 92 90 90 89 87 83 85 87 89 90 88 90 89 88 87 87 82 74 75 74 79 75 78 81 82 85 85 87
94 94 97 101 100 99 100 95 94 94 99 99 97 93 91 92 94 94 94 95 95 93 91 89 87 85 85 85 86 89 87 92 89 88 87 88 85 80 76 84 87 86 86 83 83 83 83 83 85
99 99 99 101 100 100 95 95 96 96 100 97 95 92 92 92 94 94 94 94 94 93 93 92 88 87 84 86 88 87 89 86 91 87 88 88 86 84 81 83 82 82 84 85 83 83 82 81 83
99 93 97 97 98 96 99 90 90 97 99 95 93 92 92 93 94 93 95 94 95 94 93 91 90 89 86 87 87 88 86 92 86 87 84 87 87 84 86 83 84 82 84 85 82 82 79 79 84
92 93 85 96 97 98 95 82 93 98 96 93 93 92 92 92 95 95 96 96 95 94 90 91 95 90 86 85 85 87 88 86 85 87 83 87 88 88 86 82 77 75 83 82 78 78 80 77 81
88 80 84 89 98 96 92 80 91 99 96 93 93 92 92 92 94 94 96 95 95 93 90 89 91 90 87 85 86 86 86 84 84 89 85 83 78 86 84 83 78 81 83 83 78 75 78 78 80
79 82 86 86 92 94 89 72 78 89 96 94 93 93 92 92 93 95 96 96 96 92 90 89 90 89 85 85 83 84 85 83 84 83 85 82 83 87 83 83 83 85 83 79 79 78 80 78 78
88 87 86 91 94 91 87 69 67 81 93 94 93 93 93 93 96 97 96 97 95 92 89 87 86 86 87 84 83 83 83 83 85 86 84 85 87 86 85 84 83 82 82 77 79 81 78 78 79
87 85 86 92 94 91 90 77 76 86 93 95 94 94 95 96 96 95 95 96 95 91 88 86 85 85 85 86 84 85 84 86 85 87 85 86 85 85 82 82 80 80 79 79 79 79 76 77 78
85 84 85 87 92 94 90 84 87 92 96 97 98 98 98 96 96 93 94 94 95 90 88 86 85 85 84 85 85 83 82 81 82 86 85 86 86 85 81 82 83 81 83 79 79 78 78 74 77
80 91 90 89 84 76 89 71 81 86 90 93 96 97 98 97 97 96 94 93 94 91 90 87 85 85 85 84 83 82 83 82 85 85 86 86 87 86 86 84 83 82 80 79 78 80 77 77 73
85 93 90 89 85 81 82 76 82 88 85 90 94 97 99 100 99 97 95 94 95 94 91 89 86 84 85 84 84 83 83 85 86 87 86 83 83 84 84 83 83 81 80 79 79 77 76 77 75
94 90 89 89 86 73 81 77 78 85 83 89 95 98 99 100 100 99 98 96 94 95 93 90 85 84 85 84 83 83 81 83 84 85 84 84 84 85 85 85 82 81 80 78 79 79 78 77 76
90 83 72 69 72 70 85 77 78 89 92 94 84 92 100 101 100 98 96 94 92 92 91 89 86 83 85 85 83 83 84 82 83 85 85 84 84 84 82 82 81 80 80 79 79 77 78 77 76
85 84 74 60 67 72 84 76 83 94 96 95 92 90 102 101 103 100 97 95 92 92 91 90 86 84 85 85 83 83 83 85 85 86 87 86 84 85 82 82 82 82 79 79 78 78 77 77 76
84 78 88 78 80 74 80 86 93 98 94 91 95 102 102 101 101 101 99 97 93 92 91 89 86 85 85 86 84 84 83 84 85 85 85 86 84 87 83 83 82 81 80 79 78 76 76 78 77
88 91 76 78 64 63 75 77 81 87 91 92 93 95 102 104 101 102 101 98 96 95 93 92 90 86 86 87 86 86 85 85 85 85 84 84 85 85 82 82 81 81 78 79 77 77 78 75 76
83 81 82 83 79 69 67 75 93 89 92 93 96 100 102 103 101 103 102 101 98 97 94 93 91 88 87 87 87 86 86 86 85 86 85 84 85 83 82 81 80 79 79 79 76 76 76 75 75
89 83 82 73 69 78 76 78 98 93 97 98 98 100 102 101 102 103 103 101 98 96 95 94 93 92 89 88 87 86 86 86 85 84 86 85 84 83 81 81 80 80 79 78 76 76 77 76 74

GFSSGP_sfc_temp_009.txt.gz
Temp
81 82 85 75 62 61 59 66 73 73 72 79 80 75 70 72 69 58 73 77 79 78 79 81 82 83 83 82 83 83 83 83 83 83 83 83 83 83 83 84 84 84 84 84 84 84 84 84 83
82 82 72 65 59 54 58 69 69 75 78 80 79 78 73 67 76 72 72 81 82 81 80 81 81 82 83 83 83 83 84 83 83 83 83 83 83 83 84 84 84 84 84 84 84 84 84 84 83
86 87 68 62 60 56 56 67 75 76 79 80 78 82 76 68 77 76 81 84 83 82 81 81 82 83 83 83 83 83 83 83 83 83 83 84 84 84 84 84 84 84 84 84 84 84 84 84 83
85 73 68 63 66 68 69 73 70 77 81 84 80 72 78 84 80 82 85 86 83 81 81 82 83 83 83 83 83 83 83 83 83 84 84 84 84 84 85 85 85 85 85 84 84 84 84 84 83
79 71 63 64 71 74 78 76 76 79 80 79 79 71 73 82 86 86 87 87 81 80 81 82 83 83 83 83 83 83 83 83 83 84 84 84 84 85 85 85 85 85 85 85 85 84 84 84 83
65 68 63 67 73 80 82 85 83 81 81 80 77 75 75 85 85 87 87 84 84 81 81 82 83 83 83 84 83 83 84 84 83 84 84 84 84 84 85 85 85 85 85 85 85 84 84 83 83
67 65 69 70 74 80 79 86 81 81 79 79 82 70 77 81 85 88 87 88 85 83 81 80 81 83 84 83 83 83 84 84 84 84 84 84 85 85 85 85 85 85 85 85 84 84 83 83 83
73 70 72 71 72 75 85 87 83 84 80 87 84 72 73 81 87 87 87 86 84 83 81 80 79 80 80 81 84 84 84 84 84 84 84 84 85 85 85 84 84 85 85 85 85 84 84 83 83
84 66 62 69 77 79 87 83 90 92 82 83 83 83 83 87 88 86 83 83 82 82 81 81 80 79 77 78 82 84 84 84 84 84 84 83 78 78 83 83 84 86 85 85 85 84 84 84 84
84 71 75 83 86 85 89 86 84 85 81 78 81 85 86 87 85 83 80 78 78 81 81 82 81 80 80 84 79 78 80 78 78 79 78 78 78 75 80 81 80 84 85 85 84 84 84 84 80
87 75 84 88 91 92 87 87 90 83 78 80 78 80 83 83 82 82 81 81 80 83 84 83 82 82 80 82 79 78 78 77 78 79 77 78 76 74 74 72 70 72 82 76 79 80 79 81 80
82 89 90 89 91 89 87 88 87 87 84 89 86 84 84 81 81 81 81 81 83 83 84 84 83 82 81 81 80 80 80 79 78 79 79 78 75 73 73 71 72 73 74 77 75 74 79 80 83
84 87 94 94 92 89 94 88 86 87 89 91 90 88 83 82 83 83 85 86 86 83 85 84 82 80 82 79 80 82 81 83 81 83 80 79 76 72 72 73 72 73 74 74 73 76 80 77 82
89 90 91 94 91 90 87 89 87 88 90 88 88 85 86 82 83 84 84 85 87 84 83 84 81 81 79 78 78 80 84 83 83 83 81 79 77 75 74 74 78 80 79 79 80 76 77 78 78
89 83 89 90 89 88 89 74 84 89 91 85 85 85 86 86 87 85 86 86 86 85 84 83 81 81 79 79 79 80 79 82 83 79 82 83 79 78 77 75 74 76 77 78 77 78 75 76 77
81 78 71 86 89 90 84 67 84 90 87 83 84 85 86 85 87 88 89 88 89 86 82 82 87 83 79 79 78 79 79 79 79 80 80 81 81 79 78 75 74 73 78 78 74 73 74 73 72
72 66 71 78 91 87 83 70 87 89 86 83 84 85 85 85 86 85 89 87 87 85 83 84 85 82 80 78 78 78 80 78 80 79 78 78 80 79 76 75 74 76 74 74 73 72 75 72 70
64 67 73 75 83 85 75 73 81 87 86 84 84 85 84 84 85 88 89 88 86 84 84 85 82 82 80 79 77 77 76 78 81 79 77 78 77 79 76 76 74 77 74 72 73 74 72 70 70
77 75 74 81 87 82 74 73 78 83 81 79 83 83 84 85 88 88 89 90 86 84 83 82 80 79 80 79 77 75 74 76 77 79 79 78 78 78 77 75 75 76 75 73 77 72 69 70 71
77 74 74 82 88 81 74 74 81 85 83 83 84 84 85 85 87 87 88 89 87 84 83 81 81 78 81 80 79 76 76 77 77 78 78 79 79 78 77 75 74 75 75 73 72 71 67 68 70
76 72 74 75 85 86 75 66 70 79 83 83 87 88 87 86 86 86 87 87 88 83 81 81 81 80 79 79 79 76 75 75 75 76 77 81 80 79 77 76 75 74 73 72 71 71 68 66 69
69 81 81 80 77 68 81 62 65 74 78 79 83 87 88 88 88 88 87 87 87 84 84 82 81 81 80 79 79 75 73 72 76 77 81 80 79 78 77 77 76 75 73 71 70 72 68 68 66
76 83 81 80 75 70 75 65 65 75 71 71 79 88 89 90 89 87 87 88 89 87 84 82 81 81 81 80 79 77 74 78 78 76 76 77 76 78 79 77 76 74 72 71 71 70 69 69 67
87 81 79 78 73 62 68 70 64 69 71 72 85 89 91 91 91 89 90 89 88 87 85 83 80 80 81 80 78 77 76 77 77 73 74 78 79 77 77 78 76 74 72 71 71 70 70 69 68
81 69 61 58 59 55 68 68 66 82 84 86 87 89 91 92 91 90 87 87 87 85 84 82 80 79 80 80 79 78 79 78 75 74 77 77 77 74 75 77 76 74 72 72 71 70 70 69 68
74 73 62 48 54 59 68 65 70 86 88 92 90 93 93 91 93 91 88 88 87 87 84 83 80 80 81 80 80 80 78 82 79 77 77 79 79 79 77 78 77 74 75 72 71 69 69 70 69
72 68 76 60 61 56 65 70 80 85 86 89 88 88 90 94 91 92 90 89 87 87 84 83 81 81 81 81 80 80 80 81 79 76 77 77 80 79 78 77 76 75 73 72 70 69 69 69 69
78 76 65 69 54 53 63 64 67 72 81 82 83 85 88 90 91 93 91 89 88 88 86 85 83 81 82 82 81 81 81 82 80 76 78 78 77 78 78 76 77 74 74 72 70 69 69 68 68
73 71 69 66 68 57 54 63 74 76 79 81 85 89 89 90 93 93 92 91 89 89 87 85 83 82 82 82 82 81 81 81 81 78 79 78 78 76 78 78 75 75 74 73 70 69 69 69 68
81 70 69 59 55 59 62 64 83 86 81 87 87 87 90 85 92 95 94 92 88 88 88 86 84 83 83 83 83 82 82 81 81 81 79 78 79 78 78 77 77 75 75 73 72 70 72 68 68

GFSSGP_sfc_temp_012.txt.gz
Temp
80 82 80 74 61 60 58 64 72 71 71 77 79 74 67 68 67 58 71 75 76 76 78 80 81 83 83 82 82 83 83 83 83 83 83 83 83 83 83 83 83 83 84 84 84 83 83 83 83
82 80 73 66 57 54 58 69 69 73 76 79 78 75 71 65 72 69 69 77 79 78 77 79 81 82 83 82 83 83 84 83 83 83 83 83 83 83 84 84 84 84 84 84 84 84 84 83 83
80 75 66 63 58 55 57 67 71 74 80 80 76 78 72 66 72 72 77 80 79 78 78 79 82 82 83 83 83 83 83 83 83 83 83 83 83 84 84 84 84 84 84 84 84 84 83 83 83
77 67 65 61 61 66 68 67 77 75 78 82 75 67 75 80 76 79 81 80 78 78 79 82 83 83 83 83 83 83 83 83 83 83 84 84 84 84 84 84 84 84 84 84 84 84 83 83 83
74 68 61 59 68 73 71 69 73 75 78 77 76 68 70 79 82 81 80 82 77 77 80 81 83 83 83 83 83 83 83 83 83 83 84 84 84 84 84 84 84 84 84 84 84 84 83 83 83
66 67 60 61 69 75 74 74 71 75 77 75 72 70 69 80 80 82 82 79 79 78 80 81 83 83 83 83 83 83 83 83 83 84 84 84 84 84 84 84 85 85 85 84 84 83 83 83 83
67 63 64 66 72 70 74 77 77 75 74 73 78 67 71 77 82 83 80 80 79 80 79 80 81 83 84 83 83 84 83 83 83 84 84 84 84 84 84 84 84 85 85 84 84 84 83 83 83
70 67 69 66 70 71 78 79 81 77 76 83 81 67 66 77 84 83 81 79 78 79 78 77 78 80 80 80 84 84 83 84 84 84 84 84 84 85 85 84 84 84 85 84 84 84 83 83 82
76 65 67 65 71 75 80 76 83 85 78 81 83 77 79 82 85 81 78 76 76 78 77 77 76 76 76 77 81 83 84 84 84 83 84 82 77 77 81 83 83 85 85 84 84 84 84 84 83
71 64 70 80 78 79 80 80 79 77 76 77 77 81 82 83 81 78 75 73 74 74 76 77 77 76 76 82 77 76 79 78 77 77 77 76 75 74 79 80 82 82 84 84 84 84 84 84 78
76 71 80 85 86 85 80 80 83 76 73 76 73 76 80 80 79 78 77 76 75 76 78 77 78 77 76 78 75 74 75 74 75 75 75 75 75 73 73 71 71 72 78 75 77 78 79 80 77
73 83 85 88 90 87 81 83 79 79 78 82 79 80 80 78 78 78 78 78 78 77 78 78 79 78 76 77 77 76 75 74 74 75 75 74 72 71 72 69 72 73 73 73 74 75 78 78 82
77 82 87 92 88 88 87 82 79 81 83 84 82 82 79 78 79 80 81 81 80 78 80 80 79 78 79 77 77 76 76 77 77 76 76 75 72 71 71 72 73 72 73 72 73 75 77 78 79
82 83 84 90 86 86 85 82 83 81 85 81 80 79 79 79 79 80 80 80 80 80 81 81 80 79 80 78 75 76 78 78 77 81 77 76 74 72 71 71 73 73 73 76 76 75 77 74 75
82 76 81 83 87 84 86 76 76 83 82 79 78 79 80 80 81 80 81 81 82 82 83 80 80 80 79 79 77 78 82 82 80 81 79 80 76 74 73 72 72 73 73 74 74 74 73 73 74
73 69 64 80 82 86 81 67 78 83 80 76 78 80 79 79 81 82 84 84 84 83 81 82 84 81 79 79 77 77 77 76 79 78 77 78 77 76 74 73 73 73 74 74 73 71 72 75 71
64 60 65 72 82 82 76 67 81 83 81 78 80 79 80 79 81 83 85 85 85 83 81 81 83 80 78 77 77 77 77 76 76 76 77 76 77 77 74 73 73 73 74 72 72 71 72 73 68
59 60 65 67 78 78 70 70 79 81 80 78 79 81 82 79 80 84 85 86 85 83 82 81 82 80 79 77 75 75 74 75 76 75 75 76 77 77 74 74 74 73 72 71 70 72 70 68 68
69 66 66 74 79 73 73 73 77 80 79 77 78 79 80 82 85 85 85 87 85 82 81 80 80 79 78 75 74 72 73 73 74 75 76 76 76 76 75 73 73 73 71 71 72 70 68 67 68
71 68 67 73 79 75 70 74 78 79 79 79 79 79 80 82 84 83 85 84 84 80 80 80 80 79 79 78 79 75 73 73 75 76 75 76 76 76 75 73 73 73 72 72 71 69 65 66 66
69 67 69 67 75 74 72 66 71 78 80 81 82 82 82 82 82 83 84 84 84 80 80 80 78 79 79 79 77 73 73 73 73 73 73 75 77 77 75 74 73 72 72 70 70 68 67 65 66
60 75 76 74 66 59 74 55 66 71 72 77 80 81 82 83 84 84 84 84 83 82 82 81 79 78 79 78 78 77 76 74 77 73 75 76 80 77 76 75 74 72 71 70 70 70 66 66 65
69 76 74 74 67 59 67 58 63 72 69 72 77 82 83 84 85 84 84 86 87 85 82 82 80 78 78 78 79 77 75 77 73 73 74 74 75 77 76 75 74 72 70 70 69 67 66 66 65
79 72 70 66 65 52 61 64 59 62 73 76 83 83 85 85 86 86 87 87 86 87 84 82 79 79 78 78 78 77 77 75 74 71 71 73 75 75 76 76 74 72 70 69 68 68 67 66 67
71 60 54 51 54 52 63 59 65 73 79 81 84 81 84 87 86 86 85 85 85 84 83 81 79 78 79 78 78 78 77 76 74 71 73 75 75 72 75 75 73 71 70 69 68 67 67 66 66
63 65 58 45 46 52 62 54 64 76 84 85 88 86 84 87 88 87 86 85 86 84 82 80 78 78 79 78 78 78 78 79 77 73 73 76 78 79 77 76 74 71 71 70 68 67 67 67 66
68 58 70 54 48 50 57 62 71 76 78 82 83 83 85 88 88 89 87 87 86 84 82 80 78 80 79 79 79 78 78 79 78 73 76 77 78 79 76 76 74 73 72 71 68 67 67 67 66
70 71 57 50 49 49 54 56 64 69 73 75 81 82 87 89 90 91 90 88 87 87 84 82 80 80 80 80 80 79 79 79 78 75 75 76 77 77 76 75 75 74 72 71 68 66 67 66 66
67 64 56 60 58 54 45 60 69 71 72 73 81 87 89 89 89 91 91 89 88 87 84 82 80 80 80 80 80 80 79 80 79 76 76 76 77 77 76 75 75 74 72 71 69 67 67 66 66
76 69 63 61 51 56 63 63 74 76 77 76 79 86 90 91 89 89 91 89 87 85 84 82 81 81 81 81 80 80 79 79 79 78 78 76 77 77 77 76 75 74 74 72 70 68 70 66 66

GFSSGP_sfc_temp_015.txt.gz
Temp
81 81 78 72 61 60 55 63 67 68 69 74 77 72 65 65 64 57 70 73 75 75 77 79 81 82 83 82 82 83 83 83 82 83 83 83 83 83 83 83 83 83 83 83 83 83 82 83 83
81 80 73 65 58 53 57 67 66 69 73 75 76 73 68 63 71 67 68 75 77 76 75 78 80 82 83 82 83 83 83 83 83 83 83 83 83 83 83 83 83 83 83 83 83 83 83 83 82
79 79 67 61 56 55 56 65 69 74 78 77 72 75 71 65 70 70 74 77 77 76 75 76 82 82 83 83 83 83 83 83 83 83 83 83 83 83 83 83 83 83 83 83 83 83 83 82 83
74 70 67 60 61 65 64 68 73 74 78 76 73 66 73 77 73 76 78 78 76 76 76 81 82 83 83 83 83 83 83 83 83 83 83 83 83 83 83 83 83 83 83 83 83 83 83 82 84
75 68 60 59 66 69 72 75 74 73 75 74 74 65 66 76 78 78 77 78 75 74 77 80 82 83 83 83 83 83 83 83 83 83 83 83 83 84 84 84 84 84 84 83 83 83 83 83 83
64 65 61 59 66 71 74 74 75 75 75 72 69 68 67 76 75 77 78 76 77 76 77 79 82 83 83 83 83 83 83 83 83 83 83 83 83 83 84 84 84 84 84 84 83 83 82 83 83
65 59 62 66 68 68 73 75 71 73 72 71 76 64 67 72 77 78 78 77 77 78 77 78 80 82 83 83 83 83 83 83 83 83 83 83 83 83 84 84 84 84 84 84 83 83 83 83 84
69 62 65 64 67 66 75 73 78 74 73 80 78 64 63 73 79 79 77 76 76 77 77 76 76 79 78 79 83 83 83 83 83 83 83 83 84 84 84 83 83 84 84 84 84 84 83 83 83
74 59 59 63 67 70 76 73 80 83 75 78 79 75 77 79 79 76 74 73 74 76 75 75 75 74 75 76 80 83 83 83 83 83 84 82 76 76 80 82 83 84 84 84 84 84 83 83 83
67 58 65 75 76 73 77 77 76 74 73 73 74 78 79 79 76 72 71 70 71 72 74 75 74 75 75 80 76 76 78 77 76 77 76 76 75 74 78 80 82 82 84 84 84 83 84 81 77
70 64 75 79 83 81 77 76 80 73 69 72 69 73 77 76 75 73 72 72 72 74 75 75 75 75 75 77 74 74 74 74 74 75 74 74 74 73 73 72 72 71 78 74 77 76 78 78 76
69 75 78 81 86 81 77 80 75 75 75 79 77 77 77 76 74 74 73 73 73 73 75 75 75 75 74 73 74 74 74 72 72 73 73 72 72 71 71 69 71 71 72 73 73 73 77 76 80
72 76 80 84 86 83 82 77 76 75 80 81 79 78 76 76 76 76 76 76 75 73 75 75 76 75 75 73 74 72 73 73 73 73 74 73 71 71 70 70 71 71 72 71 72 74 75 77 78
77 79 79 81 82 84 78 78 77 78 81 78 77 76 76 76 77 76 76 76 76 76 76 76 76 76 75 74 73 74 73 73 73 73 74 74 72 71 70 70 71 72 72 74 75 72 76 74 74
77 72 76 78 80 81 82 73 73 80 79 75 75 76 76 77 78 76 78 77 78 77 78 76 77 77 76 76 74 74 74 76 74 77 78 77 74 72 72 70 71 72 72 73 73 75 71 73 76
69 66 62 74 76 80 80 66 76 78 75 73 75 76 76 76 78 79 80 79 79 79 78 78 81 78 77 77 74 76 76 77 77 76 75 77 75 73 72 71 71 72 72 72 71 71 70 74 72
61 58 62 69 78 77 74 64 75 78 75 72 74 75 76 76 77 79 81 81 81 80 79 78 79 78 77 77 75 76 76 74 76 74 76 74 75 75 72 72 72 72 72 71 71 69 70 68 67
56 58 60 64 73 75 67 64 74 76 74 73 74 75 75 75 76 80 81 82 82 81 80 79 79 78 77 77 75 74 73 73 74 74 73 74 76 76 73 73 72 72 71 70 69 70 68 67 66
65 62 62 68 74 68 69 67 71 75 74 73 73 74 75 76 79 81 82 83 82 81 79 78 78 78 77 75 73 71 73 71 72 73 75 75 75 75 73 72 72 71 71 70 70 69 67 65 65
65 62 63 69 74 70 67 67 73 74 74 75 74 74 75 77 77 80 81 82 82 80 79 78 79 78 78 78 78 76 72 72 73 74 74 74 75 74 74 72 72 71 71 70 69 68 64 64 65
61 60 65 64 69 69 65 61 67 74 76 77 78 79 79 78 76 78 80 81 82 80 78 78 78 79 78 79 77 71 71 71 71 71 72 74 75 75 74 73 72 71 71 69 68 68 66 64 65
54 68 70 68 62 55 65 51 60 69 71 74 76 77 79 80 81 80 81 80 81 80 80 79 79 79 78 78 77 77 75 74 74 72 72 74 75 76 75 74 72 71 70 69 69 69 65 64 64
65 71 68 67 61 54 61 55 59 68 67 70 75 77 79 81 82 81 81 83 83 82 80 80 79 79 79 77 78 77 76 76 71 71 72 72 73 75 76 74 72 71 69 69 69 66 65 65 64
73 66 64 60 56 49 62 58 60 59 69 72 76 79 80 81 82 83 84 84 82 83 81 79 77 77 78 77 78 77 76 73 70 69 72 71 71 73 74 74 73 71 69 69 68 67 65 65 65
65 56 47 45 46 50 60 54 65 68 74 78 77 79 82 83 83 83 82 83 83 81 80 79 77 76 78 77 77 77 77 75 73 72 72 70 71 71 72 73 72 71 69 69 68 65 65 65 65
59 60 44 40 41 51 56 51 60 76 77 82 85 83 84 83 84 84 84 83 84 83 80 79 77 76 77 76 77 77 78 77 77 74 75 74 74 74 75 75 74 71 70 69 67 65 65 65 65
60 57 65 49 43 46 51 59 66 73 74 75 80 83 83 83 85 85 85 85 84 83 81 79 78 78 78 77 77 77 77 77 76 72 75 75 75 76 74 75 74 72 71 69 67 65 65 65 64
69 67 54 45 45 45 49 53 56 64 70 71 75 78 81 82 84 86 86 86 86 86 84 81 80 79 80 79 79 78 77 77 77 74 74 75 75 75 74 74 74 72 70 69 67 65 65 65 64
58 62 52 54 51 49 48 55 67 68 70 71 73 78 81 81 84 86 87 87 87 86 84 81 80 80 80 80 80 79 78 78 77 75 75 75 75 75 75 75 74 72 71 70 68 67 65 65 65
70 66 56 53 49 49 55 56 68 75 75 72 75 76 80 84 85 87 88 88 86 85 84 81 81 80 81 81 80 79 79 78 77 76 76 76 75 74 75 74 74 72 72 71 69 68 69 66 64

GFSSGP_sfc_temp_018.txt.gz
Temp
80 80 77 71 60 59 55 62 67 66 69 71 75 70 67 66 65 57 70 74 76 74 76 78 81 82 83 82 82 83 83 83 82 83 83 83 83 83 83 83 83 83 83 83 83 83 83 83 83
80 78 72 64 57 50 55 64 63 67 70 74 73 71 67 63 69 67 68 75 77 76 75 77 80 82 82 82 83 83 83 83 83 83 83 83 83 83 83 83 83 83 83 83 82 83 83 83 83
80 79 65 60 56 53 54 63 67 72 75 74 69 73 69 65 69 69 73 76 76 74 75 76 81 82 83 83 83 83 83 83 83 83 83 83 83 83 83 83 83 83 83 83 83 83 83 83 83
75 70 67 59 59 65 64 66 71 72 74 74 71 64 70 76 72 74 76 77 74 74 76 80 82 83 83 83 83 83 83 83 83 83 83 83 83 83 83 83 83 83 83 83 83 83 83 84 84
73 68 61 61 63 68 69 73 74 71 72 72 72 63 64 73 76 76 76 76 73 73 76 80 82 83 83 83 83 83 83 83 83 83 83 83 83 83 83 83 83 83 84 83 83 83 83 83 83
66 67 59 57 65 72 71 72 73 73 72 70 68 66 65 73 74 75 76 75 76 75 76 79 82 83 83 83 83 83 83 83 83 83 83 83 83 83 83 83 84 84 84 84 83 83 83 83 82
64 59 61 60 64 68 72 74 69 69 70 69 74 62 66 70 75 76 75 75 76 76 75 76 78 81 83 83 83 83 83 83 83 83 83 83 83 83 83 83 84 84 84 84 84 83 83 84 83
67 60 60 62 62 64 72 72 75 73 71 79 76 62 62 70 75 76 75 74 74 75 75 74 76 78 77 79 83 83 83 83 83 83 83 83 83 84 84 83 83 84 84 83 83 83 83 83 84
73 57 56 62 65 68 71 71 78 80 73 76 77 73 74 75 76 73 71 71 72 74 73 74 74 74 75 76 79 83 83 83 83 83 83 83 76 77 78 82 83 84 84 84 82 84 84 84 82
64 55 62 72 72 70 74 74 74 72 71 72 73 76 75 76 73 70 70 71 71 72 72 74 74 74 75 79 76 77 78 78 78 78 77 78 77 76 79 81 82 83 83 84 83 83 83 81 80
67 61 69 75 78 77 73 74 77 71 67 71 68 70 73 73 72 70 71 72 72 73 74 74 74 74 75 76 75 75 75 76 76 76 76 76 76 75 75 74 75 74 78 77 78 78 78 79 79
63 71 74 76 80 76 74 76 73 73 72 79 74 74 73 71 71 71 71 71 71 72 74 74 75 74 74 74 74 74 74 74 74 74 75 74 73 74 73 72 72 74 74 76 75 76 77 77 80
67 72 77 80 77 78 78 74 74 73 78 78 76 75 73 72 72 73 74 74 73 72 74 74 74 74 74 73 73 73 73 74 74 74 74 74 73 73 72 72 73 74 74 75 75 76 77 77 78
73 74 76 77 76 77 74 75 76 76 77 75 74 73 73 73 73 73 73 72 73 73 74 75 74 74 74 74 72 73 73 73 73 73 74 74 74 73 73 72 73 73 73 75 77 76 76 76 76
74 69 73 74 75 76 78 69 71 76 76 73 73 73 74 74 75 73 74 74 74 74 75 74 74 75 74 74 72 73 73 74 73 74 75 75 74 73 74 72 72 73 74 75 76 76 75 75 76
65 64 60 71 74 76 75 63 74 77 73 71 72 73 73 74 75 76 76 76 76 75 74 75 78 75 74 74 73 73 73 74 74 74 76 77 76 74 73 72 73 74 74 75 74 74 74 74 73
57 55 60 65 75 73 71 63 75 76 72 70 71 72 73 73 75 77 78 77 77 76 75 74 76 75 74 74 73 73 74 74 75 75 75 75 76 76 73 73 74 75 74 74 74 73 73 72 72
53 55 58 62 68 68 67 65 70 74 72 71 71 72 72 73 74 77 78 79 78 77 76 75 76 75 74 75 74 73 73 74 75 74 75 75 76 76 74 74 74 74 73 73 72 73 71 71 70
62 60 61 64 71 66 66 63 66 71 72 71 71 71 72 73 77 78 79 80 79 77 76 75 75 75 75 73 72 72 73 73 74 74 75 75 75 76 75 74 74 74 73 73 73 72 72 70 70
62 59 60 64 71 66 65 66 68 70 71 72 72 72 73 74 75 76 78 79 79 77 76 75 75 75 75 76 75 74 74 73 74 75 75 76 76 76 76 74 73 74 73 72 72 71 69 69 69
57 58 59 60 65 65 62 59 62 70 72 74 75 76 75 74 74 75 76 78 79 77 76 76 75 76 76 76 75 72 72 72 72 73 74 75 76 76 75 74 74 73 73 73 72 70 70 68 69
50 63 67 65 59 53 62 50 57 64 67 71 72 74 75 76 77 77 77 77 78 78 78 77 76 76 76 76 75 74 75 73 76 74 74 75 76 76 76 75 74 74 73 72 72 71 69 69 69
61 68 65 64 58 53 56 53 56 62 62 67 72 74 76 78 78 77 78 79 80 80 79 78 76 76 76 76 76 75 74 76 73 72 73 74 74 76 76 75 74 74 73 73 71 69 68 69 69
69 63 59 54 52 45 57 55 51 56 64 68 73 76 78 79 80 80 80 80 80 81 80 78 76 75 76 75 76 75 74 73 72 71 72 73 74 75 75 75 75 74 73 72 71 70 69 68 68
63 54 43 42 43 48 55 53 63 64 72 73 74 76 78 80 80 80 79 79 80 79 78 78 76 74 76 75 75 75 75 74 73 73 74 72 72 73 74 74 74 73 72 72 71 69 69 69 68
56 54 43 37 38 47 52 50 57 72 73 78 80 80 81 81 81 81 81 80 80 80 78 77 76 74 76 75 75 76 76 76 76 75 75 75 75 76 75 75 75 74 73 72 71 70 69 69 69
55 55 59 46 41 43 48 55 65 69 71 71 76 79 78 81 81 81 83 83 81 80 79 77 76 75 76 76 76 75 76 76 76 76 75 76 75 76 75 75 74 74 73 72 70 70 69 69 69
62 62 51 42 40 38 45 49 55 60 68 70 70 73 79 81 82 83 83 83 83 83 81 80 78 76 77 77 77 77 76 76 77 76 74 74 75 76 75 75 75 74 73 72 70 69 69 68 68
56 54 49 53 45 41 40 51 60 65 66 70 74 75 78 80 81 83 84 85 85 85 83 80 79 78 77 77 77 77 77 77 77 76 75 75 75 75 75 75 74 73 72 71 70 69 69 69 68
70 63 54 52 45 44 45 53 67 69 74 71 73 73 76 77 79 82 84 85 84 83 84 82 80 80 79 78 77 77 77 77 76 75 76 75 74 75 75 75 74 74 73 72 71 70 71 69 68

GFSSGP_sfc_temp_021.txt.gz
Temp
82 84 82 76 63 64 61 65 73 72 72 77 81 75 72 69 66 64 75 79 82 78 85 83 81 83 83 82 82 83 83 83 83 83 83 83 83 83 83 83 83 83 83 83 83 83 83 83 83
84 81 78 72 63 60 62 70 70 74 75 80 78 76 72 64 71 72 73 81 84 86 87 87 81 82 83 83 83 83 83 83 83 83 83 83 83 83 84 83 83 83 83 83 83 83 83 83 83
83 83 68 65 68 65 64 70 74 76 79 78 74 77 74 68 74 76 82 82 84 85 87 85 81 82 83 83 83 83 83 83 83 83 83 83 83 83 83 83 83 83 83 83 83 83 84 84 84
80 75 70 62 66 70 71 74 77 76 77 78 77 69 75 79 77 81 83 84 86 85 88 84 82 83 83 83 83 83 83 83 83 83 83 83 83 84 83 83 83 83 83 83 83 83 84 84 84
81 73 67 66 70 73 76 79 79 76 76 76 76 67 67 77 82 83 83 85 85 87 87 87 82 83 83 83 83 83 83 83 83 83 83 83 84 84 84 84 83 84 84 84 83 83 84 83 82
72 75 67 68 71 75 77 81 80 77 76 74 73 71 70 79 79 82 84 85 87 86 88 87 83 83 83 83 83 83 83 83 83 83 83 83 83 84 84 84 84 84 84 84 84 84 84 83 83
69 73 69 70 71 74 76 82 79 77 75 74 79 70 69 76 81 83 84 85 86 87 87 87 88 85 84 83 83 83 83 83 83 83 83 83 83 84 84 84 84 84 84 84 84 84 84 84 83
77 71 69 73 72 72 77 80 82 79 75 83 83 70 65 76 81 83 83 84 85 86 86 86 87 88 86 87 83 83 83 83 83 83 83 83 83 84 84 83 83 83 85 84 84 84 84 84 84
78 72 69 72 73 76 80 77 82 84 78 80 81 79 81 80 82 80 80 81 82 83 85 87 87 86 85 86 86 84 84 83 83 84 83 85 88 88 87 84 83 83 84 84 84 84 85 84 83
72 70 73 80 82 81 80 81 80 77 77 77 78 80 80 80 79 77 78 78 80 81 84 86 86 85 85 87 85 86 87 89 88 88 86 89 86 86 86 85 83 82 83 83 84 83 84 87 95
73 72 78 82 85 86 82 80 83 78 74 80 76 76 78 78 78 79 80 81 81 83 84 84 84 84 85 85 86 86 87 87 87 85 86 86 86 86 88 88 89 88 85 91 90 91 83 86 93
70 77 80 83 86 84 80 84 80 80 80 86 83 81 79 77 78 80 80 81 82 81 83 84 84 83 84 85 85 86 86 86 87 86 84 84 86 86 85 87 85 85 89 88 88 88 82 80 87
73 78 82 84 85 86 86 81 82 80 85 87 83 81 79 79 80 82 83 83 83 81 83 84 83 82 82 82 85 85 85 86 87 86 85 86 85 84 85 85 86 86 88 89 81 85 81 82 81
80 80 83 85 86 86 83 83 82 84 84 81 80 79 80 80 81 81 81 81 81 82 82 84 83 82 82 82 82 83 85 86 85 86 86 84 85 84 86 85 86 87 87 87 82 81 83 80 86
81 76 82 85 85 84 86 75 77 85 83 79 79 79 79 80 82 80 82 82 82 83 83 83 82 83 81 81 82 83 85 86 86 86 84 84 84 83 83 85 85 87 86 83 83 81 86 82 88
76 77 73 84 85 86 85 77 82 84 81 78 78 78 78 79 81 82 84 84 84 83 81 82 85 84 82 82 82 84 85 86 86 86 86 84 84 83 83 85 86 87 85 82 82 81 84 85 86
74 70 71 77 85 82 81 79 86 84 82 79 78 78 78 79 81 82 84 84 84 83 81 81 82 83 82 81 83 83 83 84 86 86 86 83 83 84 84 85 86 84 86 82 82 83 84 85 86
66 68 72 73 81 82 79 79 81 83 82 80 79 79 78 79 80 83 84 85 85 84 82 82 82 81 81 82 81 83 84 84 86 86 87 84 85 85 84 85 84 85 85 85 85 82 83 84 84
73 72 72 78 83 80 79 79 81 81 81 80 79 79 79 80 84 85 84 86 85 84 82 81 80 80 81 81 81 81 81 83 84 86 84 84 84 84 83 86 83 83 84 83 82 83 80 83 83
71 70 71 75 80 78 78 78 83 81 79 81 80 79 80 82 83 83 84 85 84 83 82 81 80 80 80 82 82 84 83 85 86 86 85 85 85 84 84 84 84 83 84 81 81 80 82 83 83
70 69 72 72 76 79 76 75 76 79 82 82 83 83 83 83 82 82 82 84 84 83 81 81 81 81 81 82 82 82 83 83 83 84 85 85 85 84 84 84 84 83 83 84 81 81 80 82 81
66 75 74 72 71 67 77 66 73 79 77 78 81 81 82 84 84 84 83 83 84 84 84 83 82 81 82 82 82 80 81 81 84 85 86 86 85 85 85 84 84 83 85 83 82 82 81 80 80
69 76 73 74 71 70 72 67 75 74 74 77 80 82 83 86 85 84 84 84 86 86 84 83 82 81 82 81 82 81 81 84 86 86 83 83 84 85 86 84 83 83 84 83 81 79 78 81 82
78 73 72 70 71 59 69 68 71 75 77 81 82 83 84 85 86 86 86 86 86 87 86 85 81 80 81 81 81 80 81 82 83 82 83 85 86 86 84 84 83 83 84 82 82 80 79 79 80
75 70 60 57 57 58 74 67 71 81 82 87 84 84 85 86 86 86 85 85 85 85 84 84 81 79 81 81 81 81 81 81 81 82 83 84 85 86 85 83 83 84 82 83 83 79 79 79 79
70 71 63 52 57 62 68 63 72 83 87 88 90 90 89 87 88 87 88 86 85 85 84 84 82 80 81 81 80 81 81 84 84 84 86 85 86 86 86 84 84 84 83 83 82 82 82 80 80
68 65 76 65 62 62 68 73 77 82 84 86 88 89 88 89 88 88 89 89 86 86 84 83 82 81 82 82 81 81 81 81 83 83 83 86 85 88 85 85 84 84 83 82 81 83 79 79 79
73 77 62 66 54 53 63 63 70 75 80 83 84 87 89 90 90 90 90 90 89 88 88 86 84 82 82 83 83 83 82 82 83 83 82 84 85 84 85 84 84 84 83 82 80 82 80 78 80
68 67 70 71 66 59 58 66 77 78 80 83 86 88 90 90 90 91 91 91 91 90 89 88 85 83 83 83 83 82 83 83 83 83 83 83 84 83 83 83 83 83 83 82 80 81 81 78 78
76 72 70 63 57 64 66 67 81 84 86 85 88 89 90 90 90 91 93 92 91 90 89 89 87 86 85 84 82 82 83 83 83 82 83 83 82 83 84 84 83 83 83 82 80 80 81 78 78

GFSSGP_sfc_temp_024.txt.gz
Temp
84 87 87 77 63 70 69 72 82 79 80 87 83 83 80 71 75 66 83 79 84 81 79 86 82 83 83 83 83 83 83 83 83 83 83 83 83 83 83 83 83 84 84 84 83 83 83 83 83
92 88 85 82 65 65 70 78 78 82 84 88 85 83 78 67 80 78 79 85 87 89 89 92 80 82 83 83 83 83 83 83 83 83 83 83 83 84 84 84 84 84 83 83 84 84 84 83 83
91 88 79 72 75 69 71 78 82 84 86 85 82 86 82 75 80 82 88 87 90 87 90 90 82 82 83 83 83 83 83 83 83 83 83 83 83 84 84 84 84 84 83 84 84 84 84 84 84
83 78 79 69 75 79 79 83 84 83 85 86 85 78 82 83 82 85 88 91 90 93 94 85 83 83 83 83 83 83 83 83 83 83 84 84 84 84 83 83 84 84 84 84 84 84 84 85 85
86 80 71 74 80 82 85 86 85 83 84 84 85 76 73 81 88 87 89 91 92 94 94 91 83 83 83 83 83 83 83 83 83 83 84 84 84 84 84 84 84 84 84 84 84 84 84 84 84
79 85 76 77 80 83 86 89 87 85 85 83 82 78 73 85 86 89 92 92 95 94 95 92 84 83 83 83 83 83 83 83 83 83 84 84 84 84 84 84 85 85 85 84 84 84 84 84 84
79 83 80 81 80 82 84 91 87 85 83 83 87 78 78 82 89 92 93 93 94 94 96 92 92 87 84 83 84 84 83 83 83 84 84 84 84 84 84 84 85 85 85 85 85 85 85 84 84
88 85 80 84 81 80 87 89 90 87 83 92 90 77 74 83 90 92 92 92 92 92 96 93 93 92 91 91 84 84 83 83 84 84 84 84 84 84 85 84 84 85 85 85 85 85 85 85 84
87 81 82 82 82 84 89 85 90 92 87 88 89 89 88 89 91 91 89 89 86 92 94 95 95 92 91 91 89 85 84 84 84 85 84 85 97 94 92 85 84 85 85 85 85 85 85 85 85
83 83 83 89 91 88 89 89 88 86 85 86 85 91 89 89 88 87 87 87 88 90 93 95 94 93 92 95 90 90 92 94 94 94 91 95 93 94 91 87 83 84 85 85 85 85 86 86 100
86 83 89 90 92 93 91 88 92 87 83 87 83 84 86 87 87 87 88 89 90 92 93 94 92 91 92 92 93 93 94 95 93 90 91 94 94 94 98 96 94 94 86 90 89 87 96 86 95
81 88 89 91 92 91 89 93 89 90 90 94 91 89 87 86 87 88 89 90 91 90 91 93 92 89 91 93 93 94 94 94 94 94 90 91 92 93 92 96 95 92 96 94 95 91 93 93 87
82 88 90 92 93 93 94 89 89 90 93 96 92 89 87 88 88 91 92 92 92 90 91 92 91 88 88 88 92 94 93 94 96 94 92 94 94 90 93 92 95 94 97 97 89 92 92 89 92
90 88 90 92 94 95 91 91 91 92 95 91 89 88 89 89 90 90 91 90 90 91 91 92 90 88 88 88 88 90 92 94 94 95 94 90 92 92 95 93 95 96 96 93 92 89 89 88 94
89 83 88 91 93 91 94 88 87 95 93 90 89 89 89 90 91 89 91 90 91 92 92 91 90 90 87 87 88 89 93 94 94 94 91 90 90 89 87 94 93 96 90 90 92 91 92 92 94
84 86 80 91 93 93 92 82 92 96 91 89 89 89 88 89 91 91 92 92 92 92 89 90 93 91 89 88 89 91 93 93 94 95 94 90 89 89 89 90 91 95 91 93 93 92 90 94 95
83 78 80 85 93 91 90 85 94 96 93 90 89 89 89 88 90 91 93 92 93 91 89 88 89 90 89 87 89 90 90 91 94 95 94 90 89 89 89 88 91 90 92 92 91 91 89 91 93
75 77 82 81 90 90 88 87 94 95 93 92 90 90 89 89 89 92 92 93 93 92 90 89 89 88 87 89 88 91 92 92 94 94 94 91 90 90 89 92 90 91 93 89 86 88 90 90 91
84 82 80 85 91 87 87 87 90 93 92 92 90 89 89 89 92 93 92 93 93 92 89 87 86 86 87 87 87 88 89 90 91 93 91 90 90 90 89 92 90 90 89 87 86 87 85 89 90
80 78 80 86 89 86 86 86 92 93 91 92 91 90 90 92 92 91 92 93 93 91 89 87 86 85 86 89 88 91 90 92 93 93 91 91 91 90 90 87 87 89 88 85 85 83 90 90 90
77 76 78 80 85 87 85 82 86 93 94 93 95 94 94 92 91 91 91 91 92 90 88 87 85 85 85 88 89 88 90 90 90 91 92 91 91 91 89 89 89 87 89 84 86 86 85 89 88
73 82 81 81 79 73 87 72 83 90 89 92 94 94 94 93 94 93 92 91 92 91 91 88 87 86 86 86 88 85 87 87 91 91 93 93 91 91 91 90 89 87 91 89 86 89 87 85 86
76 85 82 80 78 77 79 76 81 89 86 90 94 95 95 96 95 94 93 93 94 93 92 90 87 86 87 86 87 87 86 91 93 93 90 88 90 90 92 90 89 88 87 89 87 86 84 88 88
84 80 80 79 78 67 76 77 78 84 86 91 95 96 95 95 96 96 96 95 94 95 93 91 87 85 86 86 85 86 86 87 91 90 91 92 92 92 90 91 89 89 89 88 88 86 85 85 86
80 76 66 64 65 65 80 76 78 89 93 93 95 97 96 96 96 96 94 94 93 92 92 91 88 84 86 86 86 85 86 86 87 88 89 90 92 93 91 88 88 89 88 89 88 85 86 85 85
76 77 69 58 64 69 79 71 80 92 96 97 98 101 100 97 98 97 96 94 93 92 92 91 89 85 86 86 85 86 86 89 90 90 92 92 94 94 92 90 89 89 89 89 88 88 88 87 85
76 72 84 75 76 71 78 81 89 92 93 95 96 99 100 98 98 97 98 97 94 93 92 91 89 87 87 87 87 86 86 87 89 89 90 93 92 95 92 91 88 89 89 88 87 89 86 87 85
82 84 72 75 61 60 72 74 77 83 86 91 93 97 100 101 98 99 99 99 98 97 95 92 91 88 89 89 88 88 88 87 88 90 88 90 92 91 92 89 89 89 89 88 86 88 87 85 87
77 76 78 80 75 67 66 75 89 86 89 89 94 97 101 101 101 101 101 101 101 100 97 95 92 90 90 90 89 89 89 89 88 89 89 89 90 90 89 89 88 89 88 88 86 87 89 84 84
83 78 78 71 66 73 74 77 92 92 93 94 95 98 101 102 103 103 104 103 101 99 99 98 95 93 92 92 89 89 89 89 89 88 89 89 88 90 89 89 88 88 89 88 86 85 88 85 84

GFSSGP_sfc_temp_027.txt.gz
Temp
85 89 86 79 63 69 61 68 82 82 80 90 90 81 78 81 76 62 82 75 75 74 81 86 82 83 83 83 83 83 83 83 83 83 82 84 83 83 83 84 84 84 84 84 84 84 84 84 83
93 87 79 74 63 56 70 77 76 82 89 91 91 88 82 72 85 78 77 78 80 79 90 93 81 82 83 83 83 83 84 84 83 84 84 83 84 84 84 84 84 84 84 84 84 84 84 84 84
91 89 73 73 65 66 73 73 80 89 91 87 87 89 81 76 82 83 85 84 85 86 90 91 82 82 83 83 83 84 84 84 84 84 84 84 84 84 84 85 84 84 84 84 84 85 85 85 84
85 83 82 72 65 85 80 81 87 89 92 93 91 81 86 88 85 88 90 89 89 90 95 85 82 83 83 83 84 84 84 84 84 84 83 84 84 84 84 84 84 84 84 84 84 85 85 85 85
84 85 74 67 72 88 88 91 87 85 88 90 90 82 77 84 91 90 88 90 91 89 95 91 83 83 83 84 84 84 84 84 84 84 84 84 84 84 84 85 85 85 85 85 85 85 85 84 84
78 86 61 66 83 88 91 94 84 82 91 88 84 79 76 86 90 91 91 92 91 89 95 91 84 83 84 84 84 84 84 84 84 84 84 84 84 84 85 85 85 85 85 85 85 85 85 84 83
82 74 63 67 82 85 90 97 87 88 90 88 91 78 78 83 89 91 92 91 92 95 96 93 92 87 84 84 84 84 84 84 84 84 84 84 84 85 85 85 85 86 86 86 85 85 85 84 84
91 88 79 68 69 81 93 95 97 88 89 97 95 78 74 84 90 91 90 91 89 93 96 93 92 92 90 90 84 84 84 84 84 84 84 85 85 85 85 84 85 86 86 86 86 86 85 85 85
97 80 78 84 79 89 96 92 97 99 92 93 94 90 89 92 91 88 87 87 91 93 96 96 95 92 91 90 88 85 84 84 84 85 85 86 82 85 84 85 86 86 86 86 86 86 86 86 85
88 73 65 92 96 92 94 92 93 92 90 89 92 94 92 94 90 84 84 83 86 88 96 98 95 95 94 96 88 90 92 93 93 93 90 78 91 90 89 89 85 85 86 86 86 87 84 86 80
92 78 71 95 97 98 96 94 97 93 88 91 88 88 91 92 90 89 88 90 90 92 97 98 95 93 95 94 93 94 95 96 96 94 93 88 93 89 75 84 82 91 87 82 86 86 84 93 93
87 91 75 95 98 96 93 97 93 94 95 98 95 93 91 91 92 93 93 93 93 95 97 98 96 93 94 96 95 96 97 97 97 95 91 92 90 93 91 86 93 93 85 84 84 89 91 78 91
90 93 96 97 97 97 97 93 90 94 99 100 96 93 91 92 93 95 96 97 97 95 96 97 94 91 92 92 95 97 96 97 99 96 93 95 87 91 88 91 86 89 89 79 92 90 91 90 85
95 94 95 97 97 99 95 95 95 97 101 97 94 92 93 92 94 94 95 94 95 95 95 97 94 91 91 91 91 93 95 97 97 98 96 92 91 91 84 87 85 84 85 81 92 91 82 91 90
95 88 92 93 96 95 98 91 91 99 98 95 93 93 93 93 95 93 95 94 95 95 95 95 93 93 89 89 90 92 95 98 97 97 94 92 91 91 89 84 88 83 92 90 89 91 74 87 95
88 89 82 92 95 97 96 82 95 100 97 93 93 93 92 93 95 95 96 97 96 95 93 94 96 93 90 90 90 93 96 96 97 97 96 92 91 91 90 92 94 82 93 93 84 88 93 91 93
86 79 82 87 97 95 93 87 93 101 98 94 94 93 93 93 95 95 97 97 97 95 93 92 93 93 91 90 91 92 93 95 97 97 97 91 91 91 91 92 87 91 83 93 92 89 91 91 92
78 81 85 84 93 94 91 90 92 98 98 96 95 95 93 94 94 96 97 97 98 95 94 92 93 92 90 91 90 93 95 94 96 96 97 91 92 91 90 88 91 91 79 89 92 86 91 90 91
87 86 84 90 96 92 88 89 94 97 98 97 95 95 94 94 97 98 97 98 97 95 93 91 90 89 90 90 89 90 91 92 93 96 94 93 92 91 90 90 89 91 88 89 87 89 87 90 91
84 83 85 90 94 92 89 87 95 97 97 97 97 96 95 96 96 96 96 97 96 94 93 90 89 88 88 91 90 92 92 94 94 95 93 93 92 91 89 87 91 91 87 87 87 86 81 90 91
82 82 84 85 91 94 89 85 88 97 99 98 100 99 99 97 96 94 94 95 96 93 92 90 88 88 88 90 91 91 92 93 92 93 93 92 92 92 91 89 90 91 90 84 87 87 86 79 89
78 88 87 85 84 77 90 73 84 92 93 95 98 99 99 98 98 96 95 94 96 95 94 91 89 88 88 88 89 86 88 88 92 92 94 94 92 92 93 90 90 88 91 81 86 89 88 86 86
81 90 85 85 82 82 83 78 85 91 89 93 97 99 100 100 100 98 96 96 97 97 95 93 89 87 88 87 87 89 87 92 94 95 91 90 90 91 93 92 89 88 89 89 86 87 86 89 88
90 85 85 85 82 70 79 80 81 88 90 95 98 100 101 102 101 100 99 98 97 98 96 94 88 86 87 87 86 87 86 88 92 91 93 93 94 92 91 93 90 89 90 90 88 87 87 85 88
84 80 69 67 68 67 82 78 81 93 97 98 98 100 102 103 102 100 98 97 96 96 95 94 89 86 87 88 87 86 88 87 89 91 92 91 94 95 91 90 88 90 89 90 90 87 88 86 86
80 81 71 59 65 71 81 74 82 96 100 102 103 104 104 103 104 102 99 98 97 96 95 94 90 86 87 88 86 86 88 91 91 91 94 94 95 96 95 90 91 90 90 89 90 90 89 88 87
80 76 87 80 82 77 81 84 93 97 97 98 100 102 103 103 103 101 101 100 98 97 95 93 91 88 88 89 88 87 87 88 91 90 90 95 92 97 96 93 90 91 90 90 89 90 88 89 87
86 88 75 79 65 66 77 79 80 87 90 96 96 99 102 105 103 103 103 101 101 100 99 96 94 90 89 90 89 89 89 88 89 91 90 90 93 93 95 92 92 90 90 90 88 90 89 87 89
80 80 81 83 80 71 70 78 93 91 93 93 97 100 102 104 104 104 103 104 103 102 100 98 96 93 91 90 90 89 90 90 89 90 91 90 92 92 91 91 90 90 89 89 88 88 90 87 86
87 82 82 73 70 79 79 83 96 98 98 97 97 100 103 105 105 105 105 105 104 102 101 100 98 96 94 92 90 90 90 90 90 89 90 90 90 91 91 91 90 90 90 89 88 87 90 89 86

GFSSGP_sfc_temp_030.txt.gz
Temp
83 86 85 78 62 61 62 62 70 75 80 86 88 80 79 81 75 64 76 76 79 79 82 83 82 83 83 83 83 83 83 83 83 83 84 83 83 83 83 84 84 84 84 84 84 84 84 84 83
90 86 78 70 60 54 59 74 71 79 87 91 88 86 80 71 81 76 76 75 80 83 86 87 82 83 83 82 83 83 84 83 83 83 84 84 84 84 84 84 84 84 84 84 84 84 84 84 84
91 87 70 67 61 58 63 68 77 86 90 88 85 88 80 73 80 81 82 80 82 85 90 85 82 83 83 83 83 83 83 84 84 84 84 84 84 84 84 84 84 84 84 84 85 85 85 85 84
82 76 74 63 63 70 78 82 83 86 89 90 85 76 80 85 82 86 82 86 86 88 92 83 83 83 83 83 83 83 84 84 84 84 84 84 84 84 84 84 85 84 84 85 85 85 85 85 84
84 81 65 64 68 77 88 89 84 82 87 84 84 74 73 83 87 86 86 88 87 90 88 86 83 83 83 83 83 84 84 84 84 84 84 84 84 84 85 85 85 85 85 85 85 85 84 84 84
73 69 62 64 71 85 90 92 90 84 88 85 79 76 75 84 84 86 88 89 91 88 90 86 83 83 83 84 84 84 84 84 84 84 84 84 84 85 85 85 85 85 85 85 85 85 84 84 83
68 60 59 65 67 83 87 93 89 86 89 83 86 74 76 80 85 88 88 86 94 92 90 86 86 85 84 84 84 84 84 84 84 84 84 84 85 85 85 85 85 85 85 85 85 85 85 84 84
83 63 62 65 70 68 92 92 93 89 86 95 88 73 70 80 86 88 87 91 90 93 90 87 87 87 85 85 84 84 84 84 84 84 85 85 85 85 85 84 85 86 86 86 86 85 85 85 84
90 70 66 68 76 75 93 90 93 96 92 93 90 84 84 88 89 87 83 85 88 90 90 90 89 87 85 85 85 84 84 84 84 84 84 81 83 81 84 86 85 86 86 86 86 86 86 83 84
84 60 64 79 79 81 91 90 93 91 90 88 85 87 88 87 86 84 81 81 87 86 91 92 90 89 87 90 83 84 86 86 86 84 74 71 78 81 85 87 85 86 86 86 87 86 85 81 79
88 68 80 82 86 95 90 92 97 91 85 86 81 83 86 84 84 83 83 84 85 90 93 92 89 88 88 86 85 87 88 88 85 78 71 71 77 79 79 84 84 84 81 84 81 83 86 83 84
85 76 74 82 88 97 86 80 92 88 88 94 89 88 87 84 85 84 83 85 88 89 92 94 91 88 88 87 87 89 90 85 90 89 83 79 75 75 82 80 85 80 81 79 81 82 84 85 85
88 82 85 74 81 97 91 77 80 84 96 96 92 90 89 87 87 89 88 89 90 89 93 92 89 86 87 85 88 90 87 92 88 88 87 77 75 81 85 85 81 78 74 73 76 82 81 82 81
92 94 88 85 88 98 94 87 85 86 97 93 91 89 90 90 91 90 88 89 90 90 92 93 89 87 89 88 89 85 90 90 89 89 88 87 82 82 86 85 82 82 79 74 77 76 77 78 81
94 86 92 93 95 95 98 90 89 88 96 91 90 89 90 92 94 92 93 92 93 94 94 90 88 89 87 87 89 89 91 92 91 88 87 89 88 87 83 83 79 81 82 85 83 79 77 76 84
87 88 79 91 94 95 95 82 91 90 94 90 90 90 90 91 94 94 96 95 95 94 90 89 94 89 87 86 87 88 89 90 89 91 88 88 90 89 86 82 78 76 81 82 82 82 77 79 81
83 76 79 84 95 93 92 85 95 94 94 90 90 90 90 91 93 94 96 95 95 92 89 89 90 87 86 85 86 86 87 89 90 91 89 86 88 88 86 85 83 82 76 79 84 83 82 81 83
74 77 81 80 90 92 89 88 92 95 82 91 91 91 90 90 92 94 95 96 95 92 90 88 89 85 84 86 85 87 88 88 89 90 89 85 87 88 87 86 85 84 77 83 83 82 83 82 81
83 82 80 87 93 89 88 87 90 87 72 83 91 91 91 91 94 95 95 97 95 92 88 87 86 85 85 85 84 84 84 86 87 89 89 86 87 87 86 83 76 82 79 82 84 83 83 81 83
82 80 81 88 94 91 88 87 91 87 75 78 89 83 92 93 94 93 94 95 95 90 88 85 85 85 85 85 84 85 85 88 87 88 88 87 87 85 85 84 82 83 81 82 83 82 78 80 81
81 79 81 83 90 93 88 83 88 91 95 92 96 91 96 94 93 92 92 94 94 89 87 85 85 85 84 85 86 85 86 86 85 86 87 87 87 86 84 84 84 83 81 80 82 82 81 77 80
75 85 85 84 83 76 90 72 82 89 91 94 95 93 96 95 95 94 93 92 93 91 90 86 85 85 85 85 85 83 83 83 85 85 86 86 86 87 87 85 84 84 81 80 80 84 82 80 77
79 88 84 84 82 81 82 77 82 89 87 91 95 95 91 98 97 94 94 93 95 93 91 88 85 84 84 84 84 84 82 86 87 87 85 84 84 86 88 85 85 84 84 81 80 83 82 82 80
89 85 85 84 81 70 78 78 78 84 87 92 96 98 98 97 98 96 95 94 94 95 92 89 84 83 84 83 83 83 82 83 85 84 85 86 86 86 86 87 84 84 83 82 81 82 83 81 81
85 79 67 65 66 65 80 76 80 90 92 95 96 98 100 100 99 96 93 93 92 92 90 89 84 81 83 83 83 82 83 82 83 83 85 85 86 87 84 85 83 83 83 83 83 82 82 82 81
80 79 69 56 62 67 78 71 79 93 98 99 101 101 102 102 102 99 95 94 92 92 90 88 85 82 83 84 82 82 83 85 85 86 88 87 88 87 86 85 85 85 84 84 84 83 83 82 81
80 74 85 75 77 71 76 80 89 94 94 98 100 101 101 101 102 99 98 96 93 92 90 88 85 83 84 84 83 82 82 84 84 84 86 88 86 91 88 85 85 84 85 84 83 84 82 83 81
85 87 73 76 61 62 73 76 77 84 89 94 96 99 101 102 101 101 99 97 95 95 93 91 88 84 84 85 85 85 83 84 85 85 84 85 87 86 89 85 85 85 85 85 83 83 83 81 83
81 79 79 80 76 67 67 75 92 86 90 92 96 99 101 101 101 102 101 100 97 97 95 93 90 87 86 85 85 85 85 84 84 85 85 86 86 87 86 86 85 84 84 84 83 82 83 82 81
86 80 81 71 67 76 75 77 95 96 96 97 97 98 102 102 101 103 102 101 99 96 96 94 93 91 88 87 85 85 85 85 85 84 85 86 86 86 86 86 85 85 84 84 83 82 84 82 81

GFSSGP_sfc_temp_033.txt.gz
Temp
80 81 79 74 62 60 58 63 69 71 73 80 83 77 71 72 72 60 72 75 77 76 77 82 82 83 83 83 83 83 83 83 83 83 83 83 83 83 83 84 84 83 84 84 84 84 84 83 83
82 82 76 68 59 53 57 68 64 72 80 82 83 79 74 67 73 68 69 76 77 78 78 80 81 82 83 82 83 83 83 83 83 83 83 83 83 83 84 84 84 84 84 84 84 84 84 84 83
85 84 67 63 60 55 60 69 71 80 86 82 79 81 76 68 71 72 74 78 79 79 80 80 82 82 83 83 83 83 83 83 83 83 83 84 84 84 84 84 84 84 84 84 84 84 84 84 84
80 73 70 60 60 67 70 74 77 83 83 81 78 70 77 80 78 75 77 80 79 81 79 82 83 83 83 83 83 83 83 83 83 83 84 84 84 84 84 84 84 84 84 84 84 84 84 84 84
80 70 62 60 62 66 74 80 80 78 79 77 77 68 70 75 77 77 78 81 79 79 80 81 82 82 83 83 83 83 84 83 83 83 84 84 84 84 84 84 84 84 84 84 84 84 84 84 84
69 69 58 57 64 69 75 83 82 81 80 75 72 71 71 75 77 79 81 81 84 80 80 81 82 83 83 83 83 83 83 83 83 83 84 84 84 84 84 84 85 85 85 84 84 84 84 83 83
68 61 56 59 60 69 80 87 80 78 77 75 79 68 72 74 80 82 82 82 84 83 81 79 81 82 84 83 83 83 83 84 84 84 84 84 84 84 84 85 85 85 85 85 85 84 84 84 83
69 63 57 63 63 65 72 87 84 81 77 85 81 67 66 75 82 83 83 84 84 82 80 79 79 79 78 79 84 84 84 84 84 84 84 84 85 85 85 83 84 85 86 86 85 85 84 84 84
83 60 55 62 68 72 77 81 87 90 81 81 83 77 78 81 83 81 79 79 83 81 80 80 79 78 77 78 82 83 84 84 84 83 82 78 75 78 81 83 85 85 85 86 85 85 85 84 83
72 61 62 77 78 75 77 77 85 81 77 75 75 79 82 82 80 78 76 77 78 78 80 81 81 79 79 84 77 76 79 78 78 76 72 71 73 74 79 83 85 86 85 85 85 85 85 84 77
77 68 76 79 82 77 78 78 77 79 71 73 71 76 80 81 79 79 79 79 80 81 82 82 82 81 79 79 76 75 76 77 77 73 72 73 75 75 74 76 78 79 81 79 78 79 80 80 78
75 81 79 79 83 83 81 81 75 83 78 81 79 81 80 79 79 79 79 80 83 82 83 83 83 82 79 79 78 79 79 78 77 74 74 72 73 74 76 74 77 77 74 75 76 76 77 77 80
80 77 82 86 82 80 84 80 79 81 83 84 82 81 79 79 80 82 82 82 84 82 84 84 83 82 80 79 79 78 79 80 82 76 75 73 71 72 74 77 74 75 73 72 73 75 76 77 79
84 83 80 82 84 82 79 80 77 82 84 82 81 78 79 80 80 81 82 83 83 84 85 85 83 81 82 82 77 78 83 81 84 82 78 76 75 73 75 75 72 73 73 72 73 73 72 77 76
85 81 82 81 83 84 83 74 70 84 84 81 80 78 80 81 82 80 82 82 84 85 86 84 84 82 82 80 80 82 79 84 81 85 79 79 79 77 79 73 75 74 73 73 74 73 74 77 79
79 79 71 79 81 84 84 68 83 87 83 79 81 81 81 81 83 82 84 85 86 86 85 84 88 82 79 79 79 80 80 82 81 83 79 81 81 80 75 76 75 74 78 78 75 76 76 74 77
72 65 69 76 88 88 81 72 82 87 83 80 81 83 83 82 84 84 86 86 86 85 83 83 84 81 78 78 78 79 79 79 82 84 80 80 81 81 77 74 75 76 75 75 77 76 78 75 74
62 64 69 72 83 83 78 75 79 84 83 72 72 82 83 84 84 87 86 89 89 84 84 84 83 81 79 78 77 77 77 78 79 80 79 79 79 81 79 75 74 75 75 74 76 76 75 74 75
73 71 71 78 84 80 79 77 79 74 71 72 69 70 82 84 87 88 89 90 88 85 83 82 80 79 80 78 77 76 76 76 77 79 80 79 79 80 78 76 74 76 74 75 77 75 74 73 74
74 71 71 78 85 81 81 78 79 73 71 70 70 72 78 84 85 87 88 89 87 84 83 82 79 79 80 81 80 76 76 77 79 79 78 80 80 79 79 77 75 76 74 75 75 75 72 72 73
71 69 71 71 80 83 80 77 70 77 77 76 75 75 80 85 85 85 87 87 86 82 82 81 81 79 80 80 80 76 76 76 76 77 76 79 80 80 78 78 76 76 75 74 75 75 73 70 72
65 77 77 76 72 63 80 63 71 74 73 72 74 73 79 82 87 86 87 86 86 83 84 82 82 80 81 80 80 80 80 78 75 77 77 79 80 80 79 78 77 77 74 75 74 77 74 72 70
71 79 77 76 71 64 71 62 73 77 70 70 72 77 76 77 86 86 87 88 88 85 83 82 81 80 81 81 82 79 77 75 76 76 77 76 77 79 81 79 78 77 75 75 74 75 74 74 72
82 75 72 73 69 58 66 61 62 73 77 77 80 79 79 85 88 84 88 89 88 86 84 82 81 80 81 81 79 79 77 76 74 74 76 75 79 79 79 80 79 77 76 75 75 75 75 74 74
76 66 54 52 55 54 64 62 65 77 83 85 83 80 81 79 84 83 86 86 87 84 84 82 80 79 80 80 81 76 77 77 75 75 75 75 77 79 78 78 78 77 76 76 76 75 75 74 73
71 68 51 43 49 55 65 59 68 80 84 88 92 85 82 79 82 87 87 87 87 86 84 82 80 80 80 80 80 81 77 79 81 76 78 76 80 80 81 80 80 78 78 77 76 76 75 75 74
70 64 70 54 57 52 59 67 75 82 84 84 86 91 87 87 90 88 88 88 88 86 85 83 80 80 80 80 80 80 80 77 81 81 77 80 78 82 81 82 79 79 79 78 76 78 75 75 74
74 75 61 63 47 48 58 63 65 73 79 82 82 86 90 89 88 90 89 89 88 89 87 85 82 80 80 81 81 80 81 81 80 80 80 78 81 79 81 81 81 80 80 79 78 76 76 75 75
71 67 69 61 57 48 48 59 79 77 80 80 84 84 94 92 91 90 89 90 89 90 87 85 83 81 80 80 81 81 80 81 81 80 79 78 78 79 77 80 80 80 80 79 78 76 75 75 74
77 72 70 61 54 58 57 62 79 80 85 85 87 85 88 93 92 91 90 90 89 89 88 86 84 82 81 82 81 81 81 80 81 80 79 82 77 80 79 80 80 80 80 80 78 77 80 76 75

GFSSGP_sfc_temp_036.txt.gz
Temp
79 81 78 72 61 59 57 63 67 68 69 77 79 75 71 69 68 57 71 73 76 74 78 81 82 83 83 82 82 83 83 83 83 83 83 83 83 83 83 83 83 83 84 84 83 83 83 83 83
80 79 74 68 58 53 56 64 63 72 75 79 79 77 72 63 70 68 69 75 77 76 76 80 81 82 83 82 83 83 83 83 83 83 83 83 83 83 83 84 83 83 84 84 84 84 84 83 83
80 81 67 63 59 54 57 64 68 78 81 80 75 78 73 64 70 70 74 76 77 76 77 80 82 82 83 83 83 83 83 83 83 83 83 83 83 83 84 84 84 84 84 84 84 84 84 84 83
77 73 69 60 59 65 68 71 75 75 77 78 76 67 73 75 72 73 76 78 76 77 77 81 82 83 83 83 83 83 83 83 83 83 84 84 84 84 84 84 84 84 84 84 84 84 84 84 83
77 69 62 60 61 67 72 77 77 73 73 75 75 66 66 72 75 76 76 79 76 76 78 81 82 83 83 83 83 83 83 83 83 83 84 84 84 84 84 84 84 84 84 84 84 84 84 83 83
66 65 57 56 60 69 73 75 70 72 73 72 71 69 63 72 73 75 78 77 78 77 78 80 82 83 83 83 83 83 83 83 83 83 83 83 84 84 84 84 84 84 84 84 84 83 83 83 82
67 60 57 58 61 65 70 75 72 72 74 73 78 64 64 69 75 78 78 78 78 78 78 79 80 82 83 83 83 83 83 83 83 83 83 83 84 84 84 84 84 85 85 85 84 84 83 83 83
70 61 60 63 61 60 71 73 78 76 73 81 80 64 60 70 77 78 79 78 77 78 77 76 76 77 77 79 84 83 83 83 83 84 84 84 84 84 84 83 84 85 85 85 85 84 84 83 83
71 58 57 60 62 61 69 73 80 80 76 80 80 75 74 77 79 77 75 76 75 77 76 76 75 74 75 77 81 83 84 84 84 83 83 80 74 76 80 82 84 85 85 85 85 85 84 84 83
70 56 61 70 73 71 67 72 72 75 75 73 72 75 78 78 77 75 74 72 73 73 75 76 75 74 75 82 76 75 78 77 76 76 74 72 73 74 78 81 85 85 85 85 84 84 84 82 76
70 61 70 74 77 81 76 74 79 72 67 71 68 71 76 77 76 75 76 74 74 75 77 76 76 75 75 77 73 73 74 75 75 73 71 71 74 74 74 74 76 76 80 77 77 77 77 77 76
67 74 75 77 83 83 79 78 76 77 73 78 75 76 76 75 75 76 76 76 75 76 77 77 77 77 74 74 74 73 75 74 74 72 72 71 72 73 73 73 74 75 73 74 74 74 75 76 78
72 75 79 83 84 81 83 77 77 78 79 79 78 77 76 76 77 78 79 79 78 77 78 78 78 77 75 74 73 74 74 75 76 74 73 72 71 72 73 74 74 73 73 73 72 74 75 75 75
77 77 79 83 81 78 79 78 77 75 78 76 77 75 77 77 78 77 79 78 78 79 79 80 78 78 77 76 73 73 75 76 76 75 74 74 72 72 73 73 72 73 73 71 71 73 71 72 74
78 73 78 79 81 80 83 76 73 76 77 75 75 76 77 78 79 78 80 79 81 81 81 80 79 79 78 78 73 74 76 80 79 78 76 75 75 74 74 72 72 72 72 73 72 72 72 78 77
72 73 65 78 83 83 80 68 76 77 75 73 74 76 76 77 78 80 81 82 82 82 81 81 84 80 79 79 76 77 77 76 78 78 77 77 77 76 74 73 73 73 72 72 71 73 74 75 75
64 59 63 72 81 81 78 72 75 76 73 72 73 75 76 77 78 81 82 83 83 82 81 81 82 79 79 76 76 77 77 76 76 77 76 77 78 77 75 73 73 73 72 72 74 72 72 71 74
56 57 62 66 76 78 75 73 73 76 74 72 72 74 75 76 77 81 82 84 84 81 82 82 82 80 78 75 74 75 75 75 76 81 77 77 77 78 75 73 74 73 72 73 73 72 72 71 71
66 65 64 72 79 76 75 74 72 75 75 72 71 72 74 76 81 82 83 84 84 80 81 81 81 78 78 74 72 72 73 73 74 76 78 76 77 77 75 74 73 73 73 73 74 72 71 71 70
68 64 65 73 78 72 72 71 74 75 74 75 74 74 76 78 80 82 82 83 84 80 80 80 80 78 79 79 78 74 72 72 75 75 77 77 77 77 76 74 73 73 72 72 73 72 69 69 70
65 62 65 65 73 73 75 68 73 76 76 77 77 79 79 80 80 81 82 82 84 80 80 80 80 79 80 78 75 72 73 73 73 73 73 77 77 77 76 76 74 74 73 72 73 73 71 68 70
59 72 72 70 65 58 72 57 63 69 69 72 75 76 76 79 84 83 83 82 84 81 82 80 80 79 79 77 77 77 77 75 74 74 73 76 77 77 77 77 75 74 73 73 73 74 72 69 68
66 73 71 70 62 56 65 56 59 68 64 66 71 74 78 78 83 83 85 84 85 84 82 80 79 79 79 78 79 78 77 77 72 73 73 75 76 77 79 76 75 74 73 73 73 73 72 71 69
76 70 67 67 59 50 63 59 56 62 67 71 75 75 79 80 84 86 87 87 84 84 82 81 77 77 79 78 78 78 77 73 73 71 74 73 77 77 77 78 76 75 74 73 72 73 73 72 71
71 58 50 48 50 50 65 55 63 72 76 76 75 77 79 81 84 85 84 85 84 82 81 81 78 76 78 78 78 78 78 75 75 73 74 71 73 73 75 76 75 76 74 74 73 72 73 72 72
66 62 50 42 43 52 57 51 61 75 82 84 80 81 81 81 81 84 85 86 85 82 81 81 79 78 78 79 78 79 79 79 79 74 74 76 77 77 78 78 77 77 76 75 73 73 73 73 72
62 60 62 50 44 47 55 58 68 75 75 78 78 80 80 81 81 85 86 86 86 82 81 80 79 80 79 79 79 78 77 79 78 77 75 74 75 79 78 79 78 77 77 75 74 73 73 74 72
70 68 54 48 42 39 50 53 62 68 72 73 78 79 80 81 84 85 86 86 87 85 83 82 81 81 80 80 81 80 78 78 80 78 74 74 75 77 79 78 79 77 77 77 74 74 73 73 73
62 64 58 58 50 46 43 57 67 69 70 75 77 82 82 82 84 84 86 87 88 87 84 82 81 81 80 80 80 80 79 79 77 78 77 77 75 76 77 78 78 78 77 77 75 74 75 74 74
73 63 63 57 48 48 49 59 73 78 78 79 78 81 82 84 84 86 87 87 87 86 85 82 81 81 81 80 80 79 79 79 79 77 77 78 77 76 77 76 78 78 78 78 77 75 77 75 73

GFSSGP_sfc_temp_042.txt.gz
Temp
80 79 75 70 59 58 53 59 67 64 62 72 77 72 68 66 65 56 68 71 73 73 75 80 82 82 82 82 82 83 82 83 83 83 82 83 82 83 83 83 83 83 83 83 83 83 83 83 83
79 77 72 66 57 51 54 64 64 67 72 72 76 73 69 61 70 66 68 73 75 75 74 79 81 82 82 82 83 83 83 83 83 83 83 83 82 83 83 83 83 83 83 83 83 83 83 83 82
78 79 66 62 57 54 56 62 65 70 75 75 70 73 68 64 69 68 72 74 75 74 74 78 82 82 82 83 83 83 83 83 83 83 83 83 82 83 83 83 83 83 83 83 83 83 83 82 83
73 70 67 60 58 63 65 66 70 67 71 72 70 62 69 75 72 71 75 75 73 74 76 81 82 83 83 83 83 83 83 83 83 83 83 83 83 84 84 84 84 84 83 83 83 83 83 83 83
74 68 60 59 61 67 70 69 70 69 68 70 70 62 63 71 73 74 74 75 73 73 76 80 82 83 83 83 83 83 83 83 83 83 83 84 84 84 84 84 84 84 84 84 83 83 83 83 83
65 63 57 56 58 68 70 71 69 71 69 69 65 64 63 70 72 73 75 74 75 74 76 78 82 83 83 83 83 83 83 83 83 83 83 83 84 84 84 84 84 84 84 84 83 83 83 83 82
64 61 56 54 59 63 68 72 70 68 68 69 71 62 64 68 73 74 73 74 75 75 75 76 78 81 83 83 83 83 83 83 83 83 83 83 83 84 84 84 84 84 84 84 84 83 83 83 82
68 59 58 59 57 61 70 71 73 71 69 77 73 60 61 68 73 73 73 72 72 74 74 74 75 76 77 79 83 83 83 83 83 83 83 84 84 83 84 83 83 85 85 84 84 84 83 83 82
75 57 54 59 61 65 69 70 75 77 73 76 74 69 70 72 73 71 70 70 72 73 73 73 73 74 75 76 80 83 83 83 83 83 83 78 75 76 79 82 84 85 85 85 84 84 84 83 84
64 55 59 69 69 68 72 71 74 72 72 68 66 70 71 72 71 68 70 70 71 74 73 72 73 73 74 79 76 76 79 77 77 76 74 73 75 76 79 81 84 85 84 84 84 83 83 80 79
66 57 68 73 72 77 72 71 74 72 67 68 63 64 68 69 70 69 70 73 71 75 76 72 72 73 73 75 74 74 75 75 75 74 73 73 74 75 75 76 75 76 79 77 77 77 78 78 78
63 68 72 75 77 74 71 74 71 73 71 75 70 69 69 68 69 69 69 72 70 72 75 72 72 72 73 73 73 73 73 74 73 73 73 72 72 73 74 74 75 75 75 75 74 75 76 76 77
65 69 73 75 75 74 76 73 72 72 74 74 72 70 69 69 70 71 72 72 71 71 74 72 72 72 72 72 72 72 73 74 74 73 73 73 72 73 74 75 73 74 74 72 72 75 75 75 77
72 72 72 73 73 75 74 73 73 73 73 70 69 68 70 70 71 71 71 71 71 72 72 73 73 72 71 71 71 71 73 74 74 73 73 74 72 72 73 74 74 73 73 73 73 74 73 74 76
72 67 70 71 72 71 77 68 68 71 72 68 68 69 70 71 73 72 73 72 72 73 73 72 73 72 71 71 71 71 73 75 74 74 74 75 74 73 73 73 73 74 74 74 74 74 75 75 77
63 67 55 68 72 75 73 60 69 70 69 66 68 70 70 71 73 74 74 74 74 74 72 73 77 74 71 70 70 71 73 73 74 75 75 75 75 75 73 73 74 74 74 74 73 73 75 75 75
55 50 57 64 73 73 71 62 67 70 68 66 68 69 70 71 73 75 76 75 75 74 73 72 74 73 71 70 71 71 73 73 73 75 75 75 76 76 74 73 73 75 74 74 75 73 74 74 75
49 50 55 59 68 70 67 65 66 68 67 66 67 69 70 71 72 75 77 77 77 75 74 73 74 72 71 70 71 72 72 73 73 74 74 75 76 77 75 72 73 74 73 73 73 73 71 72 73
57 57 58 64 72 67 66 67 64 67 67 66 66 68 70 71 75 77 77 78 77 75 73 73 73 71 71 69 69 70 71 72 73 74 75 75 76 77 75 73 73 73 73 74 75 74 72 71 72
58 53 55 63 73 67 64 66 65 66 66 68 67 68 70 72 73 75 76 78 77 75 74 73 73 71 73 74 72 72 71 72 74 75 75 75 76 76 75 74 73 72 73 74 75 74 71 71 71
55 53 55 57 68 70 64 60 61 66 68 70 70 71 72 72 72 74 75 77 78 75 74 73 73 72 74 73 71 71 71 71 72 73 74 75 76 77 76 76 75 74 73 73 74 74 73 71 72
46 61 63 61 57 51 64 50 57 62 63 67 68 70 71 73 75 75 75 76 78 77 76 75 74 73 75 73 73 72 71 71 71 72 74 74 75 76 77 76 75 75 74 74 75 75 73 71 72
56 62 61 62 55 51 61 53 56 62 58 63 67 70 72 74 75 75 76 77 79 79 77 76 74 73 74 74 74 74 73 72 71 71 73 73 74 75 77 76 75 75 75 74 75 74 74 73 71
65 58 56 54 51 47 55 58 52 55 62 65 69 71 73 74 75 77 78 79 78 80 78 77 73 73 73 74 74 73 73 70 70 70 71 72 73 74 75 77 75 75 75 75 75 75 74 73 72
61 55 39 38 39 45 55 57 57 63 69 70 70 72 74 75 76 77 77 77 78 78 78 76 74 73 73 74 74 74 74 71 72 71 71 70 72 73 74 75 75 75 75 75 75 74 74 74 74
58 54 41 33 36 47 51 47 56 73 73 75 75 76 77 76 77 77 79 78 78 78 78 76 75 74 74 74 73 74 75 74 75 73 72 73 73 74 76 75 76 76 76 76 75 75 75 75 74
54 52 57 43 38 40 53 52 65 68 73 72 75 76 76 77 78 78 80 80 80 79 78 76 75 75 75 75 75 74 75 74 74 73 74 73 73 76 76 76 76 76 76 76 75 75 75 75 75
61 62 49 43 39 34 44 47 56 59 63 69 71 74 76 78 78 79 80 81 81 82 81 78 78 76 76 76 76 76 75 75 75 74 73 72 73 75 75 75 76 76 76 76 75 75 75 74 75
55 56 55 54 46 43 37 46 61 62 69 67 72 74 77 78 78 79 81 83 82 83 82 79 78 76 77 76 76 76 76 76 76 75 74 73 73 75 75 75 75 76 76 76 75 75 75 74 75
48 53 53 52 44 42 43 52 65 68 68 71 73 73 76 79 80 81 82 83 82 81 81 79 79 77 78 77 76 76 76 76 76 75 74 74 73 75 75 75 75 75 76 76 75 75 77 75 75

GFSSGP_sfc_temp_045.txt.gz
Temp
81 82 82 74 62 61 60 65 71 67 69 74 80 75 74 73 70 64 79 82 84 83 85 85 82 83 83 83 83 83 83 83 83 83 83 83 83 83 83 83 83 83 83 83 83 83 83 83 83
81 77 74 67 57 56 63 69 67 70 76 79 79 75 71 67 73 70 76 83 85 86 87 88 81 82 83 83 83 83 83 83 83 82 83 83 83 83 83 83 83 83 83 84 83 84 83 83 83
81 79 66 62 59 56 62 66 66 74 77 78 74 77 71 67 73 75 83 84 86 85 86 87 82 82 82 83 83 83 83 83 83 83 83 83 83 83 83 83 83 83 83 83 84 83 83 83 83
76 72 67 60 60 65 65 66 69 72 71 74 74 69 73 77 75 80 83 85 86 86 88 84 82 83 83 83 83 83 83 83 83 83 83 83 83 83 84 84 84 84 83 83 83 83 83 83 83
78 71 60 63 64 69 72 73 71 71 71 68 73 65 64 73 79 81 83 85 86 87 88 88 83 83 83 83 83 83 83 83 83 83 84 84 84 84 84 84 84 84 84 84 84 84 83 83 83
69 69 59 59 65 69 74 75 74 73 69 70 69 67 65 75 76 79 84 85 88 87 88 87 83 83 83 83 83 83 83 83 83 83 84 84 84 84 84 84 84 84 84 83 83 82 83 83 83
67 65 64 65 63 66 72 76 73 73 71 71 74 66 66 71 77 80 84 86 87 88 87 87 88 85 83 83 83 83 83 83 83 83 83 83 84 84 84 84 84 84 84 84 84 83 83 83 84
71 72 64 66 66 66 74 74 71 71 71 78 79 65 63 71 77 81 84 85 85 86 87 85 87 87 86 86 83 83 83 83 83 84 84 84 84 84 84 83 84 85 85 85 84 84 83 83 83
77 65 63 66 67 71 74 73 75 80 74 78 77 76 77 76 77 78 78 81 83 84 85 87 87 85 84 85 85 83 83 84 84 84 82 83 87 87 87 84 85 85 85 83 83 84 84 84 84
71 66 67 75 78 74 73 76 76 74 75 70 72 78 77 76 75 74 75 76 80 82 83 86 85 85 85 87 86 85 88 89 87 87 85 85 86 86 87 86 85 84 83 84 83 83 84 85 92
73 67 73 78 80 78 74 76 78 75 71 74 70 72 72 75 75 75 76 78 81 82 83 84 84 83 85 85 86 86 87 86 86 84 84 83 85 87 88 89 88 89 84 90 88 89 91 87 92
68 74 75 76 80 78 74 79 77 77 79 82 77 76 74 75 76 77 78 80 80 78 80 83 84 82 84 85 86 86 86 86 86 85 82 83 86 85 86 88 87 86 88 86 87 89 86 87 87
70 72 76 78 80 81 82 78 77 78 80 82 78 75 74 76 77 80 81 82 81 80 81 83 83 81 82 82 84 85 84 86 87 85 84 85 85 84 86 85 87 86 87 87 87 87 87 85 86
77 74 76 79 80 81 78 80 79 78 79 76 74 74 76 76 78 78 79 80 80 81 82 83 82 82 82 82 81 83 84 85 86 86 85 83 85 84 84 82 84 86 87 87 87 85 86 86 88
76 70 74 76 80 78 81 75 75 78 78 74 74 74 76 77 79 78 80 80 81 82 82 82 82 83 81 81 82 83 85 86 86 87 83 84 84 83 83 83 82 86 85 84 86 86 87 88 89
72 72 63 75 78 80 80 71 78 77 76 73 73 74 74 76 79 80 82 82 82 82 80 82 85 83 82 82 82 84 85 85 86 87 87 84 84 83 83 85 87 85 84 86 87 88 88 78 87
68 66 65 72 80 81 79 74 76 77 77 73 73 74 75 76 78 80 82 83 83 82 80 80 82 82 82 81 82 83 83 84 86 87 87 85 84 84 85 86 85 85 86 85 88 86 87 84 87
63 65 67 69 78 79 76 77 75 76 76 74 73 74 75 76 77 81 82 83 83 82 81 81 82 81 80 81 80 83 84 85 85 86 86 85 85 85 84 85 84 84 83 86 86 83 84 86 87
67 66 68 71 79 77 76 77 74 74 74 73 73 74 75 76 80 82 83 84 83 82 81 80 79 80 80 80 81 82 83 84 85 86 84 84 85 85 84 86 84 84 85 85 84 84 81 83 84
66 64 65 72 74 77 76 76 80 75 74 74 74 74 75 78 79 80 82 83 83 81 80 79 79 79 80 82 82 84 83 85 87 87 85 85 85 85 85 83 83 82 84 83 83 82 84 84 84
64 63 65 65 72 76 75 73 75 75 77 77 78 78 78 78 78 79 80 82 83 81 80 79 79 79 80 81 82 81 82 83 83 84 86 85 85 85 85 83 84 82 81 81 82 84 82 83 83
60 69 67 66 65 64 75 62 73 77 73 74 77 77 78 79 81 81 81 81 83 82 82 81 80 80 81 80 81 80 82 82 85 85 87 86 85 85 85 85 83 83 85 81 84 85 84 83 83
64 70 67 67 64 64 67 64 72 75 72 74 76 78 80 80 81 81 82 82 84 84 83 82 80 79 81 80 81 82 81 85 85 85 83 84 83 85 86 85 84 83 83 83 83 82 82 84 85
71 67 67 67 65 55 63 64 67 72 73 77 79 79 80 81 82 82 84 84 84 85 83 83 79 78 80 80 80 80 81 82 82 83 84 86 87 86 84 85 84 84 85 83 84 82 82 83 83
68 63 54 51 51 52 68 62 66 78 80 82 80 79 81 82 82 82 82 82 82 83 83 82 79 78 79 80 81 81 81 81 80 81 84 85 86 86 84 83 83 85 84 85 84 83 83 83 83
64 64 55 46 50 57 67 58 67 80 84 85 86 86 83 82 84 83 83 83 83 83 83 82 80 79 80 80 80 80 81 84 84 83 86 85 87 87 87 85 85 85 85 85 84 85 85 84 84
64 58 70 60 59 57 64 68 75 79 81 84 84 85 83 82 83 83 84 85 84 83 83 82 81 80 80 81 81 80 81 82 83 83 83 86 84 87 86 86 85 85 85 84 84 85 84 83 83
62 72 57 60 48 47 59 62 65 72 76 81 83 84 84 85 84 85 85 86 86 86 86 85 83 80 81 82 82 82 82 82 83 83 82 83 84 84 86 85 85 85 85 84 83 85 85 83 85
62 59 64 65 60 53 52 60 76 75 78 80 82 86 87 86 86 86 87 88 87 88 87 86 84 82 82 82 82 82 82 83 83 82 82 83 84 83 84 84 85 84 84 84 83 83 85 83 83
56 51 62 57 53 60 59 62 78 81 83 85 86 87 89 87 87 88 88 87 88 87 88 86 86 85 84 83 82 82 82 83 82 82 83 83 82 84 84 84 84 84 85 85 83 83 85 83 83

GFSSGP_sfc_temp_048.txt.gz
Temp
84 90 92 84 66 72 68 72 79 75 77 82 87 82 82 83 77 66 90 91 81 89 92 89 82 83 83 83 83 83 83 83 83 83 83 83 83 84 84 84 84 84 84 84 84 84 84 83 84
85 87 81 77 60 60 70 76 72 79 82 86 85 81 82 74 82 81 85 90 92 95 96 93 81 83 83 83 83 83 84 83 82 83 83 83 84 84 84 83 84 84 84 84 84 84 84 84 84
87 82 69 62 62 61 66 75 77 81 85 85 79 85 81 73 82 85 92 92 95 95 97 90 82 82 83 83 83 83 83 83 83 83 83 84 84 84 83 84 84 84 83 84 84 84 84 83 83
80 78 68 61 64 71 72 75 71 78 77 80 83 77 80 82 85 92 93 95 96 95 98 85 83 83 84 83 83 82 83 83 83 83 84 83 84 84 84 84 84 84 84 84 84 84 84 84 84
88 75 61 64 67 75 76 74 79 76 75 76 77 73 67 80 87 92 93 95 95 97 96 92 82 83 83 83 84 83 83 83 83 84 84 84 84 84 84 84 84 84 84 84 84 84 84 84 84
70 70 67 65 67 77 82 82 77 76 71 73 79 72 68 82 83 90 94 95 97 97 96 92 83 83 83 84 83 83 83 83 83 84 84 84 84 84 84 84 84 84 84 84 84 83 84 84 83
72 76 73 76 69 69 78 84 78 74 75 77 79 74 73 78 86 91 94 96 97 98 96 93 92 86 84 84 83 84 84 84 83 84 84 84 84 85 85 85 85 85 85 84 84 84 84 84 83
81 82 72 76 71 71 81 80 74 74 77 82 83 75 68 78 86 88 94 95 95 96 96 93 94 93 91 91 84 84 84 83 83 84 84 84 85 85 85 84 85 85 85 85 84 84 84 84 82
84 75 72 75 75 77 82 76 79 80 78 84 86 84 86 83 86 85 90 92 93 94 95 95 95 93 88 90 88 84 84 84 84 85 84 85 94 93 92 85 85 85 85 85 85 84 84 84 84
79 77 77 85 86 84 82 76 82 81 82 79 80 85 83 82 81 83 87 88 89 91 94 96 93 92 88 95 89 90 91 94 94 93 91 94 93 92 93 88 84 84 85 84 84 85 85 83 92
83 77 83 85 87 88 83 81 87 84 80 83 80 76 77 81 83 86 88 90 91 92 94 94 92 91 91 90 92 93 95 94 93 90 91 91 93 93 95 93 93 93 87 96 93 92 97 94 96
78 84 84 85 87 86 82 88 84 81 86 91 87 83 82 82 84 87 89 90 91 91 92 93 92 90 92 92 95 95 94 94 93 92 89 89 93 92 92 95 93 93 97 93 96 95 92 94 94
80 83 83 82 85 87 83 82 80 83 89 92 88 84 83 84 86 89 91 92 92 90 91 92 90 88 89 89 93 94 93 95 95 92 90 94 94 91 93 91 96 95 96 95 95 94 94 91 93
86 85 81 82 88 86 81 85 85 88 90 87 85 83 85 86 87 88 89 89 89 89 90 92 89 88 89 89 88 90 93 94 94 94 93 89 94 88 92 91 92 93 97 95 95 93 93 94 94
86 79 84 82 84 85 88 83 82 88 88 84 84 84 85 86 88 87 89 89 90 90 90 90 89 89 87 88 88 90 92 95 94 94 89 90 90 87 88 91 90 92 92 90 91 92 93 95 95
80 82 76 86 86 88 86 75 86 88 87 83 84 84 84 86 88 89 90 90 91 91 88 89 93 91 88 88 88 92 93 94 94 95 93 90 90 88 88 90 91 93 93 94 95 95 90 89 94
79 74 76 80 88 87 85 82 86 89 88 84 83 84 84 84 87 88 90 91 91 90 88 88 89 90 88 87 89 91 90 92 94 95 95 90 90 90 92 94 90 89 93 94 95 95 89 91 93
74 74 80 77 85 86 84 84 86 87 88 85 83 84 83 84 86 88 90 91 92 90 89 88 89 88 87 88 88 91 92 92 94 94 95 91 92 90 90 92 88 91 91 91 94 90 93 94 95
77 79 77 81 88 81 82 84 86 86 87 83 84 83 84 85 88 89 90 91 91 90 88 87 86 86 87 87 88 89 89 91 92 94 91 90 91 90 89 89 90 89 90 90 89 90 87 91 92
75 73 75 81 84 83 84 83 89 87 86 85 84 84 84 86 87 87 89 90 91 89 87 86 85 85 85 89 88 91 91 93 93 94 91 92 91 90 91 89 91 90 88 87 87 87 91 91 92
73 73 74 74 77 82 81 80 84 89 88 88 88 88 88 87 87 86 87 89 90 88 87 86 85 85 85 88 89 88 90 90 90 91 92 92 91 91 90 89 90 88 90 90 88 88 87 89 90
69 78 76 74 73 68 81 70 80 86 84 86 87 88 88 88 89 88 88 88 89 89 89 87 85 84 85 86 87 85 87 88 92 92 94 93 91 91 91 89 89 88 88 88 89 91 90 88 88
71 79 76 74 72 73 74 71 79 87 83 84 88 89 90 89 90 89 89 89 91 91 90 88 85 84 86 85 86 87 86 92 93 94 90 90 89 91 92 89 89 89 91 88 88 87 87 91 92
76 74 74 74 73 62 71 72 75 82 85 88 90 91 91 91 91 91 91 91 91 92 91 89 85 83 84 85 84 85 86 88 91 90 91 92 94 92 90 91 89 89 89 89 89 88 87 88 89
75 70 61 59 61 61 76 71 75 86 91 91 92 92 93 93 91 91 90 90 89 89 89 89 86 83 84 85 85 85 85 86 87 87 90 91 93 94 91 89 88 90 88 90 89 86 87 88 88
70 71 64 54 60 65 75 67 75 87 92 95 95 97 96 94 95 92 91 90 89 89 89 88 86 83 85 85 84 85 85 90 90 89 92 92 94 95 93 90 90 90 90 90 89 88 89 89 89
70 66 77 69 73 68 74 76 84 89 88 90 91 94 95 94 94 93 93 92 91 89 89 88 87 85 86 87 86 85 86 86 90 90 89 93 91 95 93 92 90 90 90 90 89 91 89 89 88
68 79 65 67 54 54 67 70 73 79 83 88 90 92 95 95 94 95 94 93 93 93 92 90 89 86 87 88 87 88 87 87 88 89 88 89 92 90 92 90 90 90 90 89 88 90 89 88 91
67 64 67 72 68 59 59 68 84 83 85 85 90 94 96 96 95 95 95 96 95 95 93 91 90 88 87 88 88 88 88 89 88 88 88 88 89 90 88 89 89 90 90 89 88 88 90 88 88
66 63 68 61 59 66 66 70 90 87 89 91 91 95 98 98 97 97 97 96 96 94 94 93 92 91 90 90 88 88 89 89 89 87 88 88 87 89 89 89 88 89 90 90 88 88 90 88 87

GFSSGP_sfc_temp_051.txt.gz
Temp
85 92 94 89 65 72 72 71 81 81 82 90 93 86 80 81 74 65 89 87 81 87 90 88 83 84 83 83 83 83 83 83 84 84 83 83 84 84 84 84 84 84 84 84 84 84 84 84 83
96 93 89 72 64 61 69 76 76 79 86 91 89 87 83 78 88 88 88 91 88 93 95 93 81 83 83 83 84 84 84 84 84 83 83 84 84 84 84 84 84 84 84 84 84 84 84 84 84
94 87 68 65 68 66 68 75 79 86 90 86 85 91 85 79 89 90 92 87 97 97 98 89 82 83 83 83 83 83 83 83 83 83 84 84 84 84 83 84 84 83 84 84 84 84 84 84 84
87 81 72 62 66 75 77 78 82 84 86 89 88 77 83 89 89 90 94 96 100 100 97 85 83 83 84 84 84 84 83 83 83 84 84 84 83 83 84 84 84 84 84 84 84 84 84 84 84
90 78 67 64 70 75 82 83 84 76 82 84 86 77 76 86 92 95 97 98 100 101 95 91 83 84 83 83 83 83 83 83 84 84 84 84 84 85 84 84 84 84 84 84 84 84 84 84 84
72 81 67 69 71 76 77 82 80 69 71 81 82 75 72 87 89 92 98 97 102 99 97 91 84 83 83 84 84 84 84 84 84 84 84 84 84 84 85 85 85 85 85 84 84 84 84 84 83
73 72 71 71 72 77 77 86 75 69 72 79 81 73 77 84 89 93 97 99 99 100 97 93 92 86 84 83 84 84 83 84 84 84 84 84 85 85 85 85 85 85 85 85 85 85 84 84 83
82 80 73 78 70 69 82 82 80 75 73 84 84 75 72 82 89 94 96 98 99 98 97 94 93 93 91 89 84 84 84 84 84 84 84 85 85 85 85 84 85 85 85 85 85 85 84 84 83
92 73 71 76 75 80 88 81 82 82 79 84 88 88 87 87 89 90 91 95 96 95 98 99 98 94 88 91 86 85 84 84 84 85 85 85 93 91 90 85 85 85 85 85 85 85 84 84 83
83 78 75 82 89 78 87 85 84 80 84 85 87 92 89 86 85 86 89 91 94 94 98 100 98 94 90 96 89 89 91 93 94 93 90 82 90 92 93 88 85 85 85 85 85 85 84 84 85
88 80 86 88 91 91 88 84 87 80 82 87 84 83 83 82 85 87 92 94 95 96 98 98 93 90 90 92 93 93 91 93 91 92 88 92 93 93 88 92 92 93 82 88 91 89 78 75 77
84 90 90 85 92 88 79 81 86 87 71 94 89 86 84 85 87 88 92 95 95 96 96 98 96 84 91 94 87 91 93 98 96 94 93 91 85 87 86 87 94 87 83 93 76 95 94 91 90
86 88 88 89 90 89 89 81 82 82 94 95 89 86 86 88 89 93 94 96 96 95 96 96 94 90 82 86 93 98 96 98 97 93 93 87 84 85 84 93 82 84 88 92 90 94 92 93 96
91 91 87 89 86 87 84 83 87 85 96 91 87 86 89 89 92 93 94 94 94 95 95 95 93 92 90 85 93 92 94 90 97 96 94 93 81 88 92 92 85 84 76 87 87 88 93 94 95
91 85 89 87 90 78 85 76 79 92 94 89 88 87 89 90 93 92 94 94 95 95 95 93 93 93 91 85 92 86 86 98 90 96 91 92 89 90 91 84 93 84 92 92 93 93 90 94 92
85 86 80 89 89 89 89 74 90 94 92 88 88 88 88 90 93 94 95 95 95 94 92 92 96 93 91 91 90 94 96 91 85 87 94 93 90 90 89 92 93 92 88 87 94 80 91 92 90
84 76 79 85 92 88 89 73 68 95 92 88 88 88 89 89 91 93 95 95 95 93 91 91 93 91 90 90 91 93 93 89 86 86 87 92 91 92 79 81 91 91 90 82 89 89 90 90 92
77 78 84 82 89 90 85 77 74 94 93 89 88 89 88 89 90 93 95 96 95 94 92 91 92 91 89 90 90 94 93 93 86 85 85 92 94 93 92 89 90 87 94 84 78 90 86 83 82
85 85 82 88 93 85 80 79 67 93 93 89 88 88 88 89 93 94 94 95 95 93 91 89 89 89 89 89 89 91 91 92 93 91 94 92 94 92 91 89 90 91 91 84 91 90 89 91 93
82 80 82 88 92 86 83 78 84 91 92 91 89 89 89 91 91 92 93 94 94 92 90 88 88 88 88 90 89 92 93 95 95 96 93 93 93 92 93 86 85 80 89 88 89 89 89 92 89
79 78 80 81 86 88 81 77 81 85 93 93 94 93 92 91 91 90 90 92 93 91 89 88 87 87 87 89 90 91 93 94 93 92 93 93 93 93 93 91 88 90 86 85 88 88 88 85 92
74 83 82 82 79 73 85 66 75 84 86 90 92 93 93 92 93 91 91 91 93 92 92 89 87 87 87 88 88 86 89 89 93 94 95 94 93 93 93 91 90 88 92 84 87 91 91 86 88
76 85 82 81 78 77 78 72 75 87 73 88 92 93 94 94 94 92 92 92 94 94 92 91 87 86 87 86 87 89 87 92 94 96 90 93 91 93 94 91 90 89 91 90 89 89 87 92 84
84 80 80 80 78 67 75 77 78 80 82 86 94 95 95 95 95 94 94 94 94 95 94 92 87 85 86 86 85 87 85 89 92 92 93 93 94 93 92 92 90 90 91 89 89 89 89 87 90
79 75 64 62 64 63 79 75 79 91 89 91 94 95 96 96 96 94 93 93 92 93 93 92 87 84 85 86 86 86 87 86 89 90 92 91 94 95 91 91 88 91 89 91 89 88 89 88 89
76 75 67 56 62 68 79 71 79 92 98 79 87 94 99 98 98 96 95 93 92 93 93 92 88 85 86 86 85 85 87 91 91 91 94 94 96 97 92 91 91 91 91 90 90 90 90 90 89
75 70 80 73 77 72 78 81 89 93 93 95 94 96 92 98 99 97 96 96 94 93 92 91 89 86 87 87 86 85 86 87 90 89 90 94 93 98 95 93 90 91 91 91 90 91 88 89 89
73 80 69 70 58 58 72 75 77 83 87 92 93 95 95 98 99 100 98 97 96 96 95 94 92 88 88 89 88 88 87 87 89 90 90 90 94 93 94 93 92 91 91 91 90 91 91 89 91
71 68 71 73 72 62 62 73 90 87 89 90 94 96 98 100 100 101 100 99 98 98 96 94 93 91 89 89 89 88 89 89 89 90 91 90 92 93 91 91 91 90 90 90 89 89 92 88 89
76 72 73 64 61 71 71 73 94 94 94 94 94 97 100 100 102 102 102 100 99 97 97 96 94 93 91 91 89 89 89 89 90 89 90 91 89 91 91 90 90 90 91 91 89 88 91 89 88

GFSSGP_sfc_temp_054.txt.gz
Temp
83 87 88 80 63 67 65 68 73 78 80 82 89 83 78 81 75 64 81 82 84 86 87 84 82 83 82 82 83 83 83 83 83 84 83 84 84 84 84 84 84 84 84 84 84 84 84 83 83
93 92 85 75 60 60 66 77 75 79 85 90 89 86 82 77 84 79 80 82 87 88 88 87 82 82 83 83 83 83 83 84 83 83 84 84 84 83 84 84 84 84 84 84 84 84 84 84 83
87 91 68 65 68 64 64 70 79 77 88 87 82 81 81 77 82 84 86 88 89 91 90 84 82 83 83 83 84 83 83 83 83 84 84 84 84 84 84 84 83 84 84 84 84 84 84 84 83
88 83 74 63 66 71 73 71 70 82 87 88 85 76 86 88 87 89 90 91 93 93 89 83 83 83 84 83 83 83 83 83 83 84 84 84 84 84 84 84 84 84 84 84 84 84 84 84 84
89 75 65 65 66 65 79 71 80 79 80 81 83 75 76 84 91 92 90 92 95 91 88 86 83 83 83 83 83 83 83 83 83 84 84 84 84 84 84 84 84 84 84 84 84 84 84 84 84
71 75 64 60 66 72 77 83 81 71 70 77 79 76 75 87 88 92 92 94 94 91 90 86 83 83 83 83 83 83 84 84 84 84 84 84 84 84 84 85 84 85 85 84 84 84 84 84 83
75 68 68 63 67 72 73 79 78 70 68 73 77 72 78 84 90 94 97 92 93 94 89 86 86 84 84 83 84 84 84 84 84 84 84 84 84 85 85 84 85 85 85 85 85 84 84 83 83
83 72 70 66 68 70 77 77 77 72 70 79 81 71 72 84 90 93 97 94 92 93 91 88 87 87 86 84 84 84 84 84 84 84 84 84 85 85 85 84 85 85 85 85 85 84 84 83 83
92 69 67 66 73 65 77 77 81 86 77 81 83 84 86 90 93 91 93 90 91 93 92 92 91 88 84 84 84 84 84 84 84 85 84 83 85 86 87 85 85 85 85 85 85 84 84 83 83
81 72 74 78 79 77 76 83 83 80 81 80 84 88 89 89 89 88 88 86 89 91 94 94 91 88 88 91 84 84 86 86 87 87 82 81 82 87 89 86 85 86 86 85 84 83 81 77 77
85 76 83 80 84 82 82 86 88 79 79 85 79 82 85 86 86 87 90 90 91 94 95 94 88 87 88 85 86 87 88 88 85 78 76 82 87 83 88 83 85 79 82 83 81 78 72 72 73
82 89 89 89 86 88 74 75 79 70 69 78 86 86 84 84 86 88 91 92 93 92 93 91 90 81 80 89 89 73 85 85 87 83 81 82 83 82 81 76 78 75 81 84 76 80 76 76 75
86 89 90 92 85 88 84 75 70 74 81 84 87 85 82 85 86 90 93 95 95 93 93 89 86 77 77 84 88 75 82 91 89 88 76 75 82 82 86 77 79 81 78 83 80 85 80 79 79
91 91 91 91 90 88 83 72 75 79 83 88 85 82 83 85 87 89 93 93 93 93 90 89 85 84 82 81 82 82 86 86 90 89 84 75 81 82 87 84 79 78 77 81 80 84 84 84 84
91 85 89 89 88 87 89 79 80 82 80 84 83 83 85 86 89 90 94 93 93 93 92 89 85 84 83 86 88 87 82 89 88 88 87 85 86 88 84 86 75 74 80 84 86 85 83 84 85
84 85 77 89 87 87 86 71 82 77 70 82 83 85 85 85 90 93 95 95 94 93 88 89 94 90 88 84 87 79 87 86 87 89 88 85 88 89 83 81 84 82 84 79 82 80 83 80 82
81 73 76 82 91 88 85 76 77 72 67 82 83 85 86 84 89 93 95 95 93 91 87 87 88 88 86 82 87 78 83 83 84 88 87 86 87 82 76 76 85 80 74 77 83 82 83 82 80
73 75 79 79 88 89 82 75 74 70 69 84 85 86 86 84 88 93 95 96 93 91 89 87 88 86 85 86 86 86 84 86 84 84 85 88 87 82 77 77 85 86 75 76 80 79 80 82 79
81 81 81 86 91 87 80 67 71 72 73 80 85 86 87 85 89 93 94 95 93 90 87 86 85 84 84 84 84 81 83 78 79 83 83 88 88 84 76 79 83 82 79 78 83 82 82 81 82
80 78 79 88 93 89 76 66 71 73 72 78 87 87 87 88 89 90 92 93 93 88 86 85 84 83 83 84 83 86 82 86 84 78 87 88 88 88 83 80 82 78 82 85 84 81 80 82 82
79 77 79 80 88 91 86 64 63 72 77 70 91 90 90 89 89 89 90 91 92 87 85 84 84 82 83 84 84 85 87 84 85 84 87 88 86 89 85 86 82 84 81 83 83 84 80 78 79
73 84 82 81 79 73 86 68 66 69 70 63 68 89 90 90 91 90 90 90 91 88 87 84 84 83 83 84 83 83 83 82 85 80 84 87 88 87 88 87 85 84 80 79 83 85 81 79 79
77 85 82 80 77 77 79 73 78 77 66 61 67 90 91 91 92 90 90 91 92 90 88 86 83 83 83 82 83 83 82 85 87 87 82 84 86 88 89 86 86 84 81 82 84 85 84 81 81
86 80 80 80 77 65 74 74 75 80 72 68 68 76 86 92 93 91 91 91 91 92 89 87 82 81 82 82 82 82 81 83 84 85 84 85 86 87 86 87 86 85 83 82 83 85 85 82 81
81 74 62 60 62 61 77 72 76 87 86 74 71 67 73 93 93 91 89 89 90 89 88 87 82 80 82 82 82 82 82 81 82 84 84 85 86 86 84 84 84 85 84 84 84 83 83 84 81
75 74 64 53 58 64 76 68 76 90 94 87 79 77 77 95 96 94 91 90 88 89 88 87 82 80 81 82 81 81 83 84 84 85 86 86 86 87 86 86 85 85 85 85 83 83 83 84 83
73 70 79 69 73 67 73 79 86 91 92 93 81 84 74 80 91 94 93 92 89 90 88 87 83 82 82 83 82 81 82 83 84 84 85 87 86 90 86 86 86 86 85 84 83 83 82 84 83
76 80 67 69 55 54 67 71 75 82 87 89 81 79 77 75 72 87 95 93 92 92 91 90 87 83 83 83 83 83 82 82 83 82 82 84 87 87 84 85 85 86 86 85 84 84 83 83 83
70 67 69 71 68 60 59 67 87 86 88 89 82 79 85 81 75 74 71 96 95 94 93 91 89 85 84 84 83 83 83 84 83 84 82 84 85 87 87 87 86 85 85 85 84 83 84 82 82
74 70 72 62 59 66 66 69 91 89 94 94 94 96 88 85 77 73 70 74 95 93 93 92 91 89 86 85 83 83 84 83 83 82 85 85 85 86 87 86 86 85 85 85 84 83 85 83 83

GFSSGP_sfc_temp_057.txt.gz
Temp
80 81 81 76 60 59 58 63 68 73 76 81 86 81 76 77 72 60 75 80 80 78 80 82 82 82 83 83 82 83 83 83 83 83 83 83 83 83 83 83 84 83 83 83 84 84 83 83 83
82 83 79 69 58 54 58 65 66 70 81 85 82 81 76 69 76 72 74 81 83 81 79 80 81 82 83 83 83 83 83 83 83 83 83 83 83 83 83 84 83 83 83 84 84 84 83 83 83
83 87 69 62 58 56 60 64 65 72 85 81 77 81 78 69 74 75 80 83 84 81 82 80 82 82 83 83 83 83 83 83 83 83 83 83 83 84 84 84 84 84 84 84 84 84 84 83 83
79 75 69 60 59 68 68 68 73 68 78 82 80 72 79 82 79 78 82 85 84 82 80 82 83 83 83 83 83 83 83 83 83 83 84 83 84 83 84 84 84 84 84 84 84 84 84 84 83
81 71 60 58 63 64 70 73 73 68 69 76 78 71 72 79 82 82 84 86 81 79 80 81 83 83 83 83 83 83 83 83 83 83 84 84 84 84 84 84 84 84 84 84 84 84 84 84 84
68 71 59 56 62 71 69 72 75 72 74 76 74 72 72 82 81 83 86 85 82 80 80 81 83 83 83 83 83 83 83 83 83 83 84 84 84 84 84 84 84 84 84 84 84 84 83 83 83
67 65 60 64 63 70 70 71 74 71 72 75 78 69 75 80 84 85 85 84 83 82 80 79 80 82 83 83 83 83 83 83 83 84 84 84 84 84 84 84 84 85 85 84 84 83 83 83 83
74 70 65 66 64 66 75 75 73 73 70 79 82 69 69 79 86 87 88 86 82 82 80 79 78 78 77 79 83 84 84 84 84 84 84 84 84 85 84 82 84 85 85 85 84 83 83 83 83
82 65 61 67 68 65 72 72 77 81 73 78 81 78 82 85 87 86 85 82 82 82 81 80 80 77 76 77 81 83 84 84 84 83 84 82 77 79 82 83 85 85 85 85 84 83 82 81 82
76 67 68 78 78 71 68 73 76 76 74 75 79 83 85 85 84 82 82 79 80 79 81 82 81 79 79 84 78 77 80 77 76 77 77 76 77 76 81 83 85 85 84 84 83 82 82 78 73
78 69 77 81 82 80 70 66 82 76 72 77 75 78 81 82 84 83 83 83 82 83 84 83 82 81 80 79 77 76 76 77 75 76 75 76 78 77 77 76 79 75 81 77 77 75 74 75 73
73 81 82 84 82 73 68 68 71 73 69 75 80 82 82 81 82 82 84 85 84 84 85 83 81 80 78 79 79 75 77 75 76 76 74 74 77 79 73 74 72 72 73 73 73 72 72 73 74
77 81 87 87 80 75 73 74 71 71 73 77 82 82 81 81 82 84 86 86 86 82 82 79 79 79 76 76 73 73 73 74 78 77 74 73 75 78 78 74 75 76 74 73 73 73 72 73 77
83 84 85 89 81 77 75 73 74 74 77 74 80 80 81 81 82 84 87 85 85 84 82 79 79 78 73 76 75 74 77 81 81 75 76 76 75 78 73 72 77 75 75 77 77 75 73 76 77
83 76 83 82 83 78 76 66 68 77 79 77 78 80 81 82 84 83 86 86 85 82 81 79 77 77 76 77 75 77 79 83 79 78 76 77 75 77 77 73 74 74 76 77 77 78 76 76 78
75 72 64 80 81 84 80 62 68 72 72 76 77 79 80 81 83 85 87 87 86 82 80 81 85 79 77 79 77 75 78 79 79 81 78 79 80 76 74 74 75 74 78 76 79 75 79 77 76
66 57 65 73 84 82 77 63 68 71 73 75 76 78 79 80 82 85 90 87 85 83 81 81 81 81 79 77 76 76 79 78 79 79 78 80 79 77 73 73 75 74 75 74 76 75 77 77 76
58 60 65 69 79 80 75 63 67 69 72 74 77 79 79 79 82 86 89 87 83 83 83 80 82 79 78 77 76 76 77 78 79 78 79 80 76 77 73 73 75 73 74 73 74 74 78 78 78
71 69 68 74 82 78 73 65 65 67 71 70 69 75 78 79 85 89 90 87 83 82 81 78 81 79 78 75 74 74 74 75 77 78 83 80 79 78 75 73 75 75 73 73 78 75 76 76 78
70 67 67 75 82 76 71 67 68 68 69 70 65 75 78 81 83 86 87 85 83 81 81 77 79 79 78 76 76 76 76 76 77 77 78 81 80 78 75 73 74 75 75 75 75 75 73 77 74
69 64 67 68 77 75 67 61 63 70 74 70 69 72 78 82 82 84 84 84 83 80 80 78 79 79 79 78 75 76 76 75 75 74 76 78 81 80 80 77 77 75 75 75 75 76 76 71 73
59 74 76 75 67 55 68 50 59 64 66 68 67 66 70 80 84 83 84 83 83 81 82 79 79 78 77 80 75 75 75 74 76 77 78 78 80 81 81 79 78 76 78 75 75 78 75 73 72
68 76 73 73 64 60 66 56 57 67 60 64 66 67 71 72 84 84 85 86 84 83 82 80 78 79 80 78 78 75 74 78 77 80 80 77 78 80 81 79 78 76 74 75 76 77 76 74 73
80 72 69 65 59 51 61 57 57 61 63 63 67 68 72 74 85 85 87 87 84 83 82 81 77 78 79 78 75 75 75 75 79 75 77 81 78 79 79 80 78 77 75 75 76 77 76 75 75
71 55 45 44 48 49 59 56 61 69 72 68 67 69 74 79 84 85 84 85 84 81 81 80 78 76 79 77 77 75 75 75 75 75 81 82 77 76 77 78 77 77 77 76 76 76 76 76 75
63 59 47 40 44 51 61 51 61 79 78 74 75 74 75 76 72 85 85 86 85 82 81 80 79 78 78 78 77 75 75 78 75 76 77 83 82 81 78 79 78 78 78 78 76 76 75 76 75
61 55 64 52 59 49 57 63 73 78 75 74 75 77 72 74 72 73 85 86 86 83 82 81 78 79 79 78 79 77 75 78 75 76 77 78 79 82 79 81 80 79 78 78 76 75 75 76 75
64 66 51 53 41 40 52 56 58 68 76 74 73 73 73 73 72 72 72 80 83 87 84 83 80 79 79 80 79 79 79 77 76 76 76 77 79 79 79 80 80 79 78 78 76 76 76 76 76
59 53 53 53 49 43 44 53 69 70 73 74 74 75 75 74 72 69 72 72 76 87 87 84 81 79 79 80 80 80 79 78 76 76 76 76 78 78 80 82 78 79 78 77 77 76 76 75 75
64 54 53 45 46 49 48 54 76 74 73 78 79 80 75 74 72 72 73 72 73 81 88 86 83 80 80 80 81 79 79 79 79 75 76 77 76 77 78 81 81 79 78 78 77 76 79 77 76

GFSSGP_sfc_temp_060.txt.gz
Temp
79 80 78 72 60 59 56 62 67 66 73 80 83 79 72 71 69 59 72 76 76 76 78 81 82 83 83 83 82 83 83 83 83 83 83 83 83 83 83 83 83 83 84 83 83 83 83 83 83
79 80 74 67 57 54 57 65 61 70 78 81 81 78 72 66 72 68 70 77 78 77 77 80 81 82 83 82 83 83 83 83 83 83 83 83 83 83 84 83 83 83 83 84 84 84 84 83 83
81 82 66 63 58 53 58 64 65 72 79 79 76 80 74 65 71 72 77 78 79 77 78 79 82 82 83 83 83 83 83 83 83 83 83 83 83 83 84 83 84 83 83 84 84 83 83 83 84
77 72 69 60 57 65 66 68 70 70 74 77 76 70 76 78 75 77 80 80 77 78 78 82 83 83 83 83 83 83 83 83 83 83 82 83 83 84 84 84 84 84 84 84 84 84 83 84 83
76 70 61 59 61 67 68 69 72 67 67 68 76 69 67 75 79 80 80 81 77 77 79 81 82 83 83 83 83 83 83 83 83 83 83 84 83 84 84 84 84 84 84 84 84 83 84 83 83
65 69 58 56 60 68 67 70 74 72 70 74 72 71 67 77 77 80 82 79 79 77 79 80 83 83 83 83 83 83 83 83 83 83 83 83 83 84 84 84 84 84 84 84 84 84 83 82 83
66 64 58 63 65 65 66 70 72 68 71 74 77 67 68 73 78 82 80 79 79 79 78 78 80 82 83 83 83 83 83 83 83 83 83 83 84 84 84 84 84 84 84 84 84 83 83 83 83
70 65 63 66 62 62 68 70 73 72 71 81 80 67 64 74 81 80 79 78 77 77 77 75 76 76 77 79 83 84 83 83 83 83 84 84 84 84 84 83 84 85 85 84 84 83 81 83 83
81 60 59 66 69 66 70 69 73 78 74 79 80 77 79 81 81 77 76 75 75 77 75 76 76 74 75 76 81 83 84 84 83 83 83 81 76 78 80 82 84 85 84 84 83 82 81 81 83
68 59 63 72 73 70 71 70 75 74 71 75 75 81 82 81 79 75 73 72 73 74 75 75 74 74 75 82 76 76 79 76 75 76 76 74 74 74 79 82 85 84 84 84 83 82 82 78 74
71 64 73 77 76 73 70 70 74 74 68 75 72 76 79 79 78 76 75 75 76 76 77 76 76 75 75 76 74 74 74 74 74 75 74 74 75 75 75 75 76 75 80 76 77 75 73 74 72
66 76 78 79 75 71 67 72 71 73 73 79 78 80 80 78 77 77 76 76 76 76 78 77 77 76 74 76 74 73 75 73 73 74 74 73 73 73 73 72 71 72 72 72 72 71 72 73 74
70 75 79 84 75 74 74 68 71 72 75 79 78 81 79 79 79 80 80 80 78 77 79 78 78 75 74 73 73 72 73 73 74 73 74 73 76 73 75 74 72 74 72 72 72 72 72 73 75
77 77 79 76 72 70 67 71 71 75 76 75 76 78 79 78 79 82 81 80 79 80 79 77 78 76 74 74 72 71 73 75 75 74 73 74 74 73 72 73 73 72 72 72 72 74 73 72 77
78 71 75 77 73 71 74 66 69 74 75 72 74 79 79 78 80 81 82 79 82 80 80 78 75 75 74 74 73 74 75 78 75 74 75 76 75 74 72 72 72 72 73 73 73 74 72 72 75
68 65 59 73 73 75 74 62 69 73 73 72 77 79 79 77 79 81 85 81 82 80 77 78 82 77 75 74 74 74 76 76 76 74 75 76 76 75 73 71 72 72 73 74 72 71 72 72 76
60 53 59 68 78 70 68 60 70 75 73 72 75 77 78 77 78 80 85 83 81 79 78 78 78 76 76 76 74 74 76 77 78 75 75 76 76 76 73 72 73 73 72 72 74 73 74 72 72
52 54 58 62 73 72 66 62 67 71 72 72 74 76 76 77 78 81 83 83 81 80 79 79 78 76 76 75 73 74 74 75 76 76 76 77 75 75 73 72 73 73 72 71 73 73 74 77 74
62 60 60 68 76 71 65 63 65 68 70 70 70 72 75 77 80 83 84 83 81 79 78 77 77 75 76 72 71 71 72 73 73 74 78 76 76 74 72 73 73 72 72 72 75 76 73 75 75
64 60 60 68 74 69 62 60 65 67 70 72 71 72 75 77 79 81 82 81 80 79 77 77 78 75 76 75 73 74 74 73 75 75 76 77 77 75 74 73 73 73 73 73 73 73 74 72 71
61 57 61 62 69 67 63 58 60 64 69 72 73 75 72 78 78 80 81 81 81 78 76 77 77 77 76 75 74 73 74 73 72 72 74 76 77 76 76 75 74 73 72 72 73 73 74 70 71
51 66 69 69 60 53 64 50 57 61 63 65 66 70 70 74 81 80 80 79 80 79 78 78 77 76 77 75 73 73 72 70 72 73 75 75 77 77 78 76 75 73 73 72 73 78 72 70 71
63 71 67 65 57 54 57 53 53 63 61 62 65 69 71 76 80 81 81 80 81 81 79 77 77 76 77 77 76 75 71 73 73 74 75 74 75 77 78 77 75 74 74 73 74 74 73 72 71
75 66 62 56 53 45 52 55 49 57 60 64 67 69 72 76 78 82 83 81 80 81 80 77 76 76 76 77 72 74 73 73 72 74 74 74 74 76 76 77 75 74 73 73 74 74 74 72 72
65 52 43 43 43 43 49 52 56 65 71 67 67 70 75 78 78 77 81 80 79 78 79 77 76 75 76 75 74 73 74 73 73 72 77 77 75 73 75 75 74 74 74 74 74 73 74 74 73
56 54 44 38 39 44 54 49 60 70 75 74 74 76 74 75 73 77 82 81 80 79 79 77 76 76 76 77 75 73 74 74 73 73 78 80 80 79 77 77 76 75 76 75 74 73 73 74 73
57 51 57 47 41 45 49 56 66 72 70 70 71 71 70 73 74 77 84 84 79 79 79 78 76 76 77 77 77 75 74 74 72 74 74 76 79 79 77 78 77 76 75 75 74 73 73 74 73
57 62 51 45 38 37 46 49 53 59 63 68 68 69 73 73 74 76 81 84 80 80 81 80 79 78 77 78 78 78 76 74 73 73 74 75 76 77 76 77 77 76 75 75 74 73 74 73 73
52 50 50 49 45 39 39 47 59 62 66 66 70 72 75 73 72 72 77 78 78 77 80 79 79 78 77 78 78 78 78 76 72 74 74 75 74 76 77 78 78 77 76 75 74 73 74 73 73
56 49 45 42 41 42 43 47 65 68 69 70 69 73 72 72 73 74 75 74 77 78 80 80 79 79 79 79 78 78 78 78 76 74 76 74 74 74 76 77 78 78 77 76 74 73 76 73 73

GFSSGP_sfc_temp_063.txt.gz
Temp
78 79 77 70 59 59 56 61 67 66 70 79 79 76 71 72 68 57 69 74 75 75 77 81 82 83 82 82 82 83 82 82 82 83 83 83 83 83 83 83 83 83 83 83 83 83 83 83 83
77 78 73 66 57 55 56 64 63 65 73 76 78 76 71 64 70 66 68 75 76 75 75 79 81 82 83 82 83 83 83 83 83 83 83 83 83 83 83 83 83 83 83 83 83 84 83 83 83
78 81 65 61 58 53 57 63 64 69 75 77 74 73 70 63 68 70 74 76 77 75 76 79 82 82 82 83 83 83 83 83 83 83 83 83 83 83 83 83 83 83 83 83 83 84 83 83 84
75 71 67 58 57 64 63 66 70 68 71 73 72 66 71 73 73 74 77 78 75 75 76 81 82 83 83 83 83 83 83 83 83 83 83 83 83 84 83 83 83 84 83 83 83 83 83 84 84
74 67 60 59 61 66 67 67 68 65 66 67 75 65 64 72 77 77 77 77 74 74 77 80 82 83 83 83 82 83 83 83 83 83 83 83 83 83 83 83 84 83 83 83 83 83 82 82 82
65 66 58 57 60 66 66 69 71 69 68 71 70 67 64 74 74 76 78 76 77 76 77 79 82 83 83 83 83 83 83 83 83 83 83 83 83 83 83 84 84 84 84 84 83 82 82 83 83
64 63 59 62 63 64 65 69 68 68 70 72 75 62 66 71 76 78 77 76 77 78 76 76 78 81 83 83 83 83 83 83 83 83 83 83 83 84 84 84 84 84 84 84 83 83 83 83 84
68 65 62 64 61 63 68 70 72 71 72 79 77 61 62 71 77 77 76 75 75 75 75 74 75 76 76 78 83 83 83 83 83 83 83 84 84 84 84 83 84 84 84 84 83 83 83 83 83
78 61 56 62 65 65 72 68 72 75 74 79 78 73 73 77 76 73 73 73 74 75 73 73 74 74 75 76 80 83 83 83 83 83 84 81 75 77 79 82 84 84 84 84 84 83 83 83 82
66 58 60 69 71 68 70 71 70 72 73 75 74 75 76 75 73 71 71 71 71 71 72 72 73 73 74 81 76 75 78 75 75 75 74 73 74 74 78 81 84 84 84 83 83 83 83 79 74
67 63 70 74 74 74 70 71 76 72 69 74 70 71 74 73 72 71 71 71 71 72 74 72 72 73 74 75 73 73 73 73 74 74 73 73 74 73 74 74 75 73 77 74 74 74 72 72 72
62 73 75 74 75 72 68 73 71 73 73 79 77 76 75 72 72 72 72 72 72 72 74 72 72 73 72 73 72 73 72 72 72 73 73 72 72 72 72 71 71 72 71 72 71 70 72 72 74
66 71 75 78 74 74 75 70 71 71 76 78 79 77 75 74 73 75 75 75 74 72 74 73 73 72 72 72 72 72 72 72 73 73 73 72 71 72 72 71 70 71 71 70 70 71 72 73 74
75 75 73 75 70 73 71 70 72 73 74 74 77 75 76 75 75 75 75 74 74 75 74 74 73 72 72 72 72 71 72 73 73 73 72 73 72 72 72 71 71 71 71 72 71 72 71 71 74
73 67 71 68 69 68 72 66 67 71 74 71 75 77 77 77 78 76 77 75 75 76 76 74 74 72 72 72 72 71 72 73 73 74 73 73 74 72 71 71 71 71 71 72 72 72 71 72 74
65 62 57 66 68 72 68 61 66 71 71 68 72 76 77 77 78 79 80 78 78 77 75 75 80 74 72 73 73 72 73 74 74 73 72 73 75 74 71 71 71 71 72 71 71 70 70 71 72
57 51 56 62 69 69 65 60 68 72 71 69 71 75 77 76 78 80 80 80 79 78 75 74 75 74 73 73 72 72 74 73 74 74 72 72 76 75 72 71 71 72 71 70 72 70 71 70 71
50 52 53 58 65 66 62 60 67 71 71 70 72 74 76 76 76 79 80 81 80 78 76 77 76 75 73 72 70 71 72 72 73 74 73 74 73 73 72 72 72 71 70 70 70 71 71 71 70
60 57 56 62 70 66 61 61 64 69 70 70 70 71 74 76 79 78 80 81 80 79 76 76 75 73 73 70 69 70 70 71 72 73 75 74 74 74 72 72 72 71 71 71 72 71 73 72 71
61 56 55 63 70 63 61 59 64 66 68 70 70 70 73 75 77 78 79 79 78 77 76 75 76 74 74 72 71 72 72 71 72 73 74 75 74 73 73 72 72 71 71 71 72 72 70 70 69
55 53 55 59 65 62 59 59 60 64 68 70 71 72 73 75 77 76 76 77 78 76 75 75 76 74 74 73 72 70 72 71 71 72 73 75 75 75 74 73 72 72 71 71 71 72 72 69 69
48 62 64 63 57 50 59 47 59 60 61 65 68 70 72 76 79 76 77 76 77 77 77 76 76 75 74 73 72 71 71 69 71 72 73 74 75 75 74 75 74 72 71 71 72 74 73 69 69
59 66 63 61 56 49 54 50 51 58 58 62 66 69 72 75 79 77 77 77 78 78 77 77 75 75 76 74 75 72 70 72 72 72 72 72 73 75 76 74 74 72 72 72 72 73 71 70 70
69 61 57 52 50 43 51 51 49 56 60 63 67 69 72 76 77 78 78 79 79 79 78 77 74 74 75 74 72 72 71 71 70 70 71 71 72 73 75 75 74 73 72 72 72 72 72 71 70
60 50 42 40 40 42 47 50 55 61 65 68 67 69 72 73 75 77 76 77 77 77 77 76 74 74 74 74 72 72 72 72 71 71 72 71 71 72 74 74 73 72 73 72 72 72 72 72 71
54 52 43 36 37 43 48 47 56 65 70 70 73 73 74 73 73 77 77 77 77 78 77 76 74 74 74 74 73 71 72 74 72 72 72 74 75 75 75 74 74 74 74 74 72 72 71 73 72
54 49 53 42 37 43 46 53 61 66 65 66 69 70 70 73 74 76 79 78 78 78 77 76 75 75 75 75 75 71 72 72 72 72 72 73 75 77 75 74 74 74 74 73 72 71 72 72 72
53 57 46 43 37 36 43 45 48 56 60 64 65 68 70 72 74 74 79 79 79 79 79 78 77 76 76 76 77 75 73 72 71 72 72 72 74 75 74 74 74 74 74 74 72 71 72 71 71
47 43 41 43 41 37 37 42 58 56 59 61 63 68 72 71 71 72 76 80 79 79 79 78 77 77 76 77 77 77 74 72 71 71 72 73 72 74 74 74 74 73 74 73 72 72 72 72 72
53 42 39 37 38 39 41 42 59 60 62 65 65 65 70 70 71 71 70 69 70 71 72 74 77 77 77 77 77 77 77 75 72 71 71 72 73 73 72 74 74 74 74 73 73 72 74 72 72

GFSSGP_sfc_temp_066.txt.gz
Temp
78 77 76 70 59 58 55 60 66 65 69 74 76 72 69 69 65 56 67 72 74 74 76 80 82 83 83 82 82 82 83 82 82 82 83 82 83 83 83 83 82 82 83 83 83 84 83 83 84
76 77 72 65 57 53 56 64 63 66 70 75 75 74 69 63 68 64 67 74 76 75 75 78 81 82 82 82 82 82 83 82 82 82 82 83 83 83 83 83 83 83 83 83 83 83 83 83 83
77 79 64 61 59 53 57 63 64 66 70 72 70 71 69 63 68 68 72 75 76 74 75 78 82 82 82 83 82 83 83 83 82 83 83 83 83 83 83 83 83 83 83 83 84 83 83 84 84
73 70 65 58 57 64 62 64 65 67 70 71 72 65 70 72 71 72 75 76 74 74 75 81 82 83 83 83 83 82 83 82 82 83 83 83 83 83 83 82 83 83 83 83 83 83 84 83 83
75 68 59 58 59 65 65 68 66 65 66 67 73 63 63 70 74 75 75 76 73 73 76 80 82 83 83 83 83 82 83 83 82 83 83 83 83 83 83 83 83 83 83 83 83 83 83 83 84
65 66 58 56 61 65 65 70 67 66 68 69 66 66 64 72 72 74 75 74 75 75 76 78 82 82 82 83 83 82 83 82 83 82 83 83 83 82 82 82 84 84 84 83 83 83 83 83 83
65 62 59 60 62 63 66 68 68 67 68 70 72 63 65 69 73 75 74 75 75 76 75 76 77 80 83 83 82 82 82 83 82 83 83 83 83 82 83 84 84 84 84 84 83 83 83 83 83
68 63 61 61 59 61 68 69 68 72 69 77 74 61 62 69 74 74 74 73 73 74 75 74 75 77 77 78 82 83 83 83 83 83 83 83 83 83 84 82 84 84 84 83 83 83 83 82 83
76 60 55 60 64 64 70 68 71 75 73 78 77 71 72 74 74 72 71 72 74 74 72 73 74 75 75 77 80 82 83 83 83 83 83 78 76 78 79 83 83 84 84 84 84 83 82 83 83
64 59 60 68 69 67 70 71 70 72 73 68 68 72 74 72 71 70 71 72 74 74 73 72 73 74 75 80 76 76 79 76 76 75 75 74 75 76 79 82 84 84 84 84 84 83 82 78 78
65 59 67 71 72 73 70 70 73 70 68 70 65 68 70 70 71 73 73 73 74 75 75 72 72 73 74 74 74 74 74 75 75 75 74 74 75 75 74 73 76 75 78 75 76 75 75 76 75
59 70 71 71 73 72 68 73 70 71 72 73 72 72 70 70 70 72 71 70 70 73 74 72 72 72 73 73 73 73 73 73 74 74 74 73 73 74 73 73 73 73 73 74 73 74 75 75 76
63 69 72 74 72 71 73 69 69 72 76 75 74 72 70 70 71 72 73 73 71 71 71 72 72 72 72 72 72 72 73 73 74 74 74 74 73 74 74 73 73 73 73 73 73 73 75 75 77
71 71 71 72 69 71 69 68 72 73 75 72 71 70 71 72 71 73 73 72 71 72 71 71 72 72 72 72 72 72 73 74 74 74 74 74 73 73 73 73 73 73 73 74 74 74 73 75 77
70 64 68 68 66 67 71 64 66 73 72 69 70 71 72 74 74 72 74 72 73 72 72 71 71 72 71 72 72 72 73 74 74 74 74 75 74 72 72 73 73 73 74 75 75 75 75 76 77
62 60 55 64 66 69 68 58 67 72 68 67 70 72 73 73 75 75 75 74 74 73 71 72 77 73 71 72 72 73 73 74 74 75 74 74 74 73 72 72 74 74 74 74 74 74 75 74 75
56 50 54 62 67 66 64 60 66 72 69 69 70 72 73 72 75 76 77 76 75 74 73 73 74 72 72 72 73 73 73 73 74 75 73 74 75 75 72 72 74 75 74 73 75 73 75 74 75
50 51 52 55 62 64 60 59 66 69 69 68 70 72 72 72 73 76 78 77 77 75 74 74 74 72 72 72 72 72 73 73 74 74 74 75 75 74 73 74 74 74 74 73 74 74 74 75 75
57 55 54 60 66 60 60 59 63 67 69 68 68 70 72 73 77 78 78 78 77 75 73 73 72 71 72 70 70 70 71 72 73 73 76 75 75 74 73 73 73 73 73 74 75 75 75 75 74
58 54 53 61 66 61 57 58 61 65 68 70 68 70 72 73 73 75 77 78 76 74 73 72 73 71 73 72 71 72 72 72 73 74 75 76 76 74 74 73 73 73 73 74 75 75 74 73 73
52 50 52 56 63 60 57 54 60 65 67 68 70 72 73 73 72 74 75 76 77 74 73 72 73 73 73 72 72 71 72 72 73 73 74 75 76 75 75 75 74 73 72 74 75 75 75 73 72
43 60 62 59 55 48 57 45 54 61 61 64 67 68 70 73 75 75 76 75 75 75 75 74 73 73 73 72 72 71 71 70 72 73 75 75 76 76 76 75 75 74 74 74 75 76 75 73 72
57 63 61 59 52 47 52 49 51 57 57 61 65 68 71 73 76 75 76 75 76 76 75 75 73 73 73 73 73 72 71 72 72 72 74 74 75 76 76 76 76 74 74 74 75 76 75 74 73
66 59 53 49 47 41 49 49 50 53 57 61 67 69 71 73 76 77 77 77 76 77 76 75 72 72 73 73 72 72 71 71 71 72 73 73 74 74 76 77 74 74 74 75 75 76 76 74 74
57 49 39 38 39 41 44 49 51 59 62 64 65 68 71 74 75 76 75 74 75 74 75 75 72 72 73 73 72 72 72 72 72 72 72 72 73 74 75 75 74 73 75 75 75 75 75 75 75
52 50 41 36 35 42 46 45 53 62 64 65 68 70 72 73 75 77 75 76 75 75 75 75 73 72 73 73 72 72 72 73 73 73 73 73 74 76 76 76 76 75 76 75 74 75 75 76 76
51 46 49 42 36 40 44 50 59 64 64 65 65 67 69 71 73 74 77 76 75 75 74 75 73 74 73 74 73 71 71 72 72 73 73 74 75 77 77 75 75 76 76 75 75 75 74 75 76
51 51 44 42 36 35 42 42 45 53 57 61 61 63 66 70 72 73 76 76 77 77 76 76 76 75 75 75 75 74 73 72 73 73 73 73 75 76 76 76 76 75 76 75 75 75 75 75 76
45 41 40 42 39 38 35 40 55 53 56 57 61 63 64 70 70 71 71 75 76 78 77 76 76 75 75 75 75 74 73 72 72 73 74 74 74 75 75 76 76 75 75 76 75 75 75 75 75
48 41 37 39 38 36 38 41 56 55 57 60 60 63 63 64 66 69 70 69 71 72 73 75 77 76 77 76 75 74 74 73 72 72 73 74 74 74 75 75 76 75 75 75 75 75 77 75 75

GFSSGP_sfc_temp_069.txt.gz
Temp
83 84 82 76 65 67 61 63 70 68 70 77 80 76 74 76 70 65 79 82 84 85 86 86 82 83 83 82 82 83 83 83 83 83 83 83 83 83 83 83 83 83 83 83 84 83 83 84 83
84 80 78 73 64 62 62 64 61 64 72 79 77 78 74 69 73 72 77 83 86 87 88 89 81 82 83 82 83 83 83 82 83 83 82 83 82 83 83 83 83 83 84 83 83 83 84 84 83
82 80 73 68 66 61 59 62 63 67 75 72 72 76 72 66 71 77 83 85 87 86 88 87 82 82 83 83 83 83 83 83 83 83 82 82 83 83 82 83 84 83 83 83 84 84 84 84 84
78 75 70 63 62 65 63 62 65 65 68 74 75 69 72 76 77 80 84 86 87 87 89 85 82 83 83 83 83 83 83 83 83 82 83 83 83 84 83 84 84 84 83 84 84 84 84 83 83
80 74 64 63 63 66 66 66 66 64 67 70 74 65 64 76 80 82 84 86 86 87 89 89 82 83 83 83 83 83 83 82 83 83 83 83 83 83 83 83 82 84 83 83 83 84 84 84 83
67 67 62 62 65 68 67 68 66 66 69 69 69 69 68 78 79 81 85 86 88 87 89 88 83 83 83 83 83 83 83 83 83 83 83 83 83 83 84 83 84 84 84 83 83 83 83 83 83
68 69 65 66 67 66 66 71 68 69 72 71 74 66 67 75 80 82 84 86 87 88 87 87 88 85 83 83 83 83 82 83 83 83 83 83 83 83 83 84 84 84 84 84 84 83 83 83 82
71 73 64 68 68 62 69 68 70 75 72 80 80 68 65 73 81 82 84 85 85 86 87 85 86 86 86 86 83 83 83 83 83 83 83 83 84 84 83 83 84 84 84 84 84 84 83 82 82
78 69 64 67 69 66 71 68 70 78 73 77 79 75 79 79 81 80 81 81 83 83 85 87 86 86 84 84 84 84 83 83 83 84 81 84 88 87 88 84 84 84 84 84 84 84 82 83 82
71 67 68 75 76 72 72 68 69 73 73 69 72 77 78 79 79 78 77 78 80 81 83 86 85 85 85 87 84 86 87 87 86 86 84 85 85 86 87 86 84 84 84 84 84 82 82 85 88
73 69 74 77 79 78 75 73 74 75 69 70 69 71 76 77 78 79 79 81 82 82 82 84 84 84 85 84 86 86 86 86 86 83 84 84 85 86 87 86 87 86 84 88 87 88 88 85 88
67 74 75 77 79 77 75 77 74 77 73 74 77 77 77 77 78 79 79 80 79 77 79 83 84 82 84 85 86 85 86 86 86 85 83 83 86 85 84 86 85 84 87 86 86 88 85 84 85
70 73 78 80 79 78 77 75 75 75 78 79 78 77 77 77 79 81 82 82 80 76 79 82 83 81 82 82 83 84 84 86 86 86 84 86 86 84 85 84 86 85 86 86 85 85 85 85 86
76 76 78 80 78 79 75 74 76 76 77 75 75 76 78 76 80 79 79 79 80 80 81 82 82 82 82 82 81 82 84 85 86 87 86 83 85 83 85 84 85 86 88 87 86 85 85 87 88
76 72 78 75 76 74 78 69 71 72 73 70 72 76 77 76 79 78 81 80 81 82 82 81 82 82 81 81 82 84 85 87 87 87 84 85 84 83 78 83 85 86 86 84 86 86 86 88 89
73 73 70 73 75 74 75 66 74 74 70 67 68 76 76 77 78 80 81 83 83 82 80 81 84 82 82 82 82 85 86 86 87 88 87 83 84 83 82 84 81 86 86 87 87 88 87 87 88
70 66 68 70 75 73 73 69 71 73 71 68 69 75 77 77 77 79 79 82 83 82 81 80 82 82 82 81 83 84 84 85 87 88 87 83 84 83 83 84 86 84 86 87 88 86 87 87 88
63 66 68 68 72 72 71 71 71 74 71 72 69 74 76 78 78 81 80 84 84 83 82 81 82 81 81 82 81 84 84 85 86 87 87 84 85 83 83 85 84 86 87 86 87 84 86 88 88
68 68 67 70 75 73 72 73 71 73 73 72 72 74 77 79 82 83 79 85 84 82 81 81 80 80 81 81 81 82 83 84 85 86 84 84 84 83 82 82 84 85 86 86 84 86 84 86 87
67 66 66 71 74 73 72 72 71 74 74 73 74 76 78 80 81 81 82 84 83 82 81 80 80 79 80 82 82 84 83 85 86 85 84 85 84 82 83 83 84 83 86 83 83 84 86 86 86
66 66 65 67 72 72 69 67 68 70 73 74 75 78 79 80 81 81 82 83 84 82 81 80 80 80 81 81 82 81 82 83 83 83 85 86 84 83 83 83 84 83 85 86 84 84 83 85 84
63 70 70 68 67 64 70 63 66 69 68 70 74 76 79 80 82 83 83 82 83 83 83 82 81 80 81 80 81 80 83 82 86 85 86 86 85 84 84 83 83 83 86 84 85 86 85 84 84
66 72 70 69 67 66 65 66 66 68 66 67 72 76 80 81 82 82 83 84 84 85 84 83 80 80 81 80 81 81 82 86 86 86 83 84 83 83 85 84 83 83 85 84 84 84 79 86 87
74 69 66 66 67 59 66 67 64 67 67 71 75 77 79 82 83 83 85 85 84 86 84 83 79 79 80 80 80 80 81 82 84 84 84 85 86 81 84 85 83 83 84 83 85 84 84 85 85
71 67 57 55 55 58 63 64 61 68 71 71 71 77 79 81 82 83 82 84 83 83 83 82 79 78 80 80 81 81 81 82 82 82 85 84 86 86 84 84 83 83 84 83 84 83 84 84 86
67 68 60 49 52 59 62 62 62 71 73 73 74 77 81 80 83 84 83 83 83 83 82 82 80 79 80 80 80 81 81 84 85 84 87 86 87 88 86 85 84 84 84 84 83 85 86 85 86
63 61 70 60 57 60 63 64 69 72 70 69 71 74 76 80 82 82 84 84 84 83 82 82 80 80 80 81 81 80 81 81 84 84 84 87 86 88 86 86 85 84 84 84 83 86 84 84 84
66 66 61 62 50 51 55 56 58 60 61 64 64 68 75 78 80 82 84 84 84 85 85 84 83 81 81 82 82 82 81 81 83 83 82 84 86 85 86 85 86 85 84 84 83 84 84 83 85
63 61 59 63 59 56 52 54 63 60 60 58 60 63 69 75 78 81 82 83 84 86 85 85 84 82 82 82 82 82 82 82 82 83 83 84 85 84 84 84 85 85 84 84 82 83 84 83 84
59 54 55 59 53 55 61 53 65 63 63 60 57 61 64 67 70 73 78 80 81 81 84 85 85 83 82 83 81 82 83 82 82 81 83 84 83 85 84 84 84 85 85 84 83 83 85 83 83

GFSSGP_sfc_temp_075.txt.gz
Temp
86 93 97 92 71 79 68 64 75 77 79 91 93 88 85 85 77 71 96 97 95 94 92 89 83 83 83 83 83 83 83 83 82 83 83 83 84 83 84 84 84 84 84 84 84 84 84 84 84
98 95 91 79 72 66 63 68 62 67 86 91 90 89 84 79 89 90 92 96 98 97 97 93 82 83 83 83 83 83 84 84 83 83 83 83 84 84 83 84 84 84 84 84 84 84 84 84 83
91 93 75 73 75 61 61 65 64 68 88 86 87 89 83 79 91 93 97 98 100 98 98 89 83 83 83 83 83 83 84 83 83 84 83 83 83 84 84 84 84 84 84 84 84 84 84 84 84
91 84 80 69 68 73 72 65 68 71 80 86 89 79 85 94 93 97 98 101 98 96 95 85 83 83 83 84 84 83 83 83 84 84 83 84 84 84 84 84 84 84 84 84 84 84 84 84 84
89 78 69 69 70 72 73 69 70 73 75 83 86 78 80 93 98 98 99 101 99 93 95 91 83 84 83 84 83 83 83 83 83 83 84 84 84 84 84 84 84 84 84 84 84 84 84 84 84
72 81 67 64 67 71 69 68 67 72 78 84 81 79 80 93 95 98 101 100 98 97 96 91 83 84 83 84 83 83 83 83 84 83 84 84 84 84 84 84 84 84 84 84 84 84 84 84 83
78 74 68 71 66 69 71 73 71 77 80 81 87 77 84 89 96 99 100 102 99 97 95 92 93 87 84 83 83 83 84 84 84 84 84 84 84 85 85 84 84 85 85 85 85 84 84 83 83
88 79 72 78 70 66 74 78 80 81 80 91 92 78 80 90 97 100 101 101 100 95 96 97 95 95 91 90 83 84 84 84 84 84 84 84 85 85 84 83 84 84 85 85 84 84 83 83 83
92 70 69 74 76 74 79 76 85 86 86 86 88 89 92 95 98 98 98 98 98 92 100 100 99 95 87 89 87 84 84 84 84 85 84 84 89 92 88 84 84 85 85 85 84 84 83 83 83
86 69 76 85 85 74 77 79 82 84 82 84 88 93 93 94 95 94 94 94 95 92 98 99 94 94 91 93 89 91 91 90 92 92 84 79 86 92 92 87 85 85 85 84 84 84 84 85 92
84 73 83 86 89 84 77 73 78 80 81 85 85 87 90 92 93 94 95 95 97 98 99 96 92 88 84 93 96 96 95 96 93 89 85 88 93 92 94 90 91 90 85 92 85 85 88 90 97
78 85 87 90 92 88 80 84 80 80 78 88 90 91 90 91 93 94 95 96 97 96 97 98 96 84 90 96 96 92 93 90 89 88 90 92 95 92 87 87 94 86 89 93 80 89 87 94 95
82 87 90 91 92 91 89 85 80 74 78 87 93 91 90 92 93 96 97 98 97 95 96 97 94 84 87 93 94 85 95 88 95 86 88 86 85 87 90 91 86 89 88 93 92 89 87 92 92
89 89 90 93 93 91 84 84 82 81 86 87 89 89 91 92 94 94 94 95 95 94 95 96 93 89 90 91 91 88 84 96 86 88 93 92 92 91 93 93 86 88 90 88 87 82 86 84 95
90 85 89 91 92 84 90 77 79 85 89 85 88 89 91 93 95 93 94 94 94 94 94 93 93 93 90 89 91 87 91 91 89 91 93 93 85 91 92 91 84 85 92 92 93 92 94 92 93
85 87 82 90 91 90 86 69 82 88 85 84 86 89 90 92 94 95 96 96 95 94 91 93 97 94 92 90 92 85 85 86 84 88 90 92 91 91 89 92 89 94 94 85 87 84 87 90 90
84 78 81 83 93 89 84 74 85 88 85 82 81 87 88 89 90 93 96 96 95 94 91 91 94 93 91 90 93 88 91 84 84 86 85 92 92 91 92 89 92 89 89 92 87 90 87 83 91
77 79 84 82 87 89 83 65 83 85 80 80 80 81 84 86 88 92 95 94 95 94 92 91 93 91 90 90 91 91 92 84 87 84 83 92 87 91 91 93 92 88 90 83 89 85 82 86 86
87 84 81 87 90 88 84 77 82 86 84 81 74 73 84 84 90 92 94 92 90 93 91 89 89 88 89 89 90 92 82 83 84 85 92 91 85 90 89 93 91 90 92 89 92 91 88 92 95
85 84 84 86 88 88 86 84 86 84 85 83 76 72 81 84 87 90 91 92 88 92 90 88 88 87 88 91 91 94 83 87 81 86 92 93 91 90 91 87 91 88 92 90 90 86 86 89 93
82 83 84 81 84 88 86 82 82 86 89 83 78 83 82 84 85 87 87 89 88 91 90 88 87 87 88 91 91 91 93 91 89 87 93 93 90 91 91 90 87 91 90 91 90 91 88 84 93
78 87 87 83 80 74 86 71 80 84 83 79 76 82 83 84 87 88 87 87 86 92 92 89 88 87 88 89 90 88 88 85 91 89 84 92 92 91 92 91 91 90 88 85 91 93 89 88 90
80 88 84 84 80 82 80 77 66 84 79 78 80 84 86 86 88 86 87 89 85 94 93 90 87 87 88 88 86 89 83 86 92 82 84 90 89 92 92 91 91 89 91 92 87 89 89 93 92
86 83 82 83 81 70 79 79 71 77 70 81 83 78 86 86 89 85 88 87 87 94 94 92 87 86 88 87 87 87 87 84 84 78 89 91 93 92 91 91 89 88 86 90 91 90 90 87 90
83 78 67 65 67 68 82 78 74 81 83 85 84 82 88 83 91 88 82 90 86 89 94 93 88 85 87 88 88 87 87 88 87 88 89 85 85 93 89 89 88 89 89 90 90 89 90 89 90
79 79 71 59 64 70 82 72 73 83 86 86 88 92 90 89 91 92 91 86 86 89 93 93 89 86 87 87 87 87 88 91 91 90 90 92 82 80 90 90 89 90 88 90 89 91 91 91 91
78 73 86 78 81 75 76 74 80 82 81 78 78 88 91 89 84 89 91 91 86 87 93 93 91 88 88 89 88 87 88 87 91 92 91 93 88 78 93 91 90 91 91 90 90 90 89 87 90
80 85 73 76 63 63 72 69 71 74 74 74 71 75 76 72 68 67 75 86 89 90 93 95 94 89 90 91 90 90 89 88 89 91 89 92 86 93 80 91 91 91 91 90 89 89 90 89 91
76 75 78 81 77 68 66 66 77 72 72 70 64 69 71 68 69 70 66 68 71 74 89 91 95 92 91 91 91 90 90 91 89 89 90 89 91 91 91 90 91 91 90 90 88 87 91 88 88
79 78 79 70 67 75 73 61 78 72 71 68 62 64 68 64 61 65 65 65 64 67 69 71 91 95 94 93 91 91 91 91 91 89 90 90 89 91 91 91 90 90 90 91 89 88 92 89 88

GFSSGP_sfc_temp_078.txt.gz
Temp
84 89 90 83 68 71 60 64 69 71 82 89 92 84 80 83 77 65 90 91 91 88 86 86 83 83 83 83 83 83 83 83 83 83 83 83 83 84 84 84 83 84 84 84 84 84 84 84 84
92 95 90 80 65 58 57 67 63 68 79 91 88 86 83 78 87 85 86 91 92 90 90 87 82 83 83 83 83 84 84 83 83 83 83 83 83 83 84 84 84 84 84 84 84 84 84 84 84
87 94 77 70 71 57 58 66 66 73 84 89 83 85 84 80 88 88 91 95 94 92 90 85 83 83 83 83 83 83 83 83 83 83 83 83 84 84 84 84 84 83 84 84 84 84 84 84 84
87 82 79 64 65 68 70 67 67 75 83 84 86 79 89 94 89 94 97 97 95 92 90 84 83 83 84 83 83 84 84 83 83 83 84 83 83 84 84 84 84 84 84 84 84 84 85 84 84
87 78 64 66 66 70 72 67 67 74 79 78 83 79 82 90 95 97 97 97 92 90 88 86 83 83 84 83 83 83 83 83 83 84 84 84 84 85 84 84 84 84 84 84 84 84 84 84 84
71 73 64 63 65 70 70 69 72 76 75 81 81 81 82 94 94 96 95 92 94 91 90 87 84 83 84 83 83 83 83 83 83 84 84 84 84 84 84 84 85 85 85 85 84 84 83 83 83
73 69 66 66 67 67 67 73 75 80 80 79 86 77 85 90 96 98 93 95 92 94 90 87 87 84 84 83 84 84 84 84 84 84 84 84 84 84 84 84 85 85 85 85 84 84 83 83 83
79 71 67 70 70 66 72 76 80 81 77 91 90 77 79 90 97 98 95 88 95 91 92 90 88 87 85 85 84 84 84 84 84 84 84 84 85 85 84 83 85 85 85 85 84 84 83 83 83
90 72 69 70 74 72 76 76 84 87 80 82 88 88 91 95 98 95 93 89 80 88 89 94 90 85 83 84 85 84 84 84 84 84 84 83 84 86 86 84 85 85 85 85 84 83 83 83 83
71 67 75 82 81 75 78 79 82 82 79 82 81 91 94 95 95 92 90 84 85 88 92 91 89 88 88 91 84 83 86 86 86 86 76 77 86 86 87 85 85 85 85 85 84 84 84 84 85
67 70 83 85 86 84 82 80 83 73 75 83 81 86 91 93 93 93 93 92 93 92 91 89 88 86 87 87 87 86 85 83 87 86 83 82 86 84 86 84 85 83 84 81 84 84 83 83 84
77 86 89 87 88 84 79 82 83 76 77 86 89 90 91 91 91 94 93 94 94 89 89 88 87 82 82 90 89 84 89 88 84 84 86 83 85 82 74 85 82 83 75 73 75 85 86 88 87
69 78 88 94 88 86 84 83 77 74 83 89 90 90 90 92 91 95 96 94 95 92 89 87 85 84 85 82 86 84 84 88 88 85 87 86 84 83 82 77 84 79 78 76 80 80 86 84 87
88 79 89 93 91 91 85 77 81 72 85 87 88 88 91 91 92 93 94 92 93 93 88 88 87 84 90 82 80 81 78 84 85 85 87 83 83 84 85 79 85 84 78 84 79 81 83 83 86
92 81 89 91 92 87 87 77 77 78 86 86 86 88 90 91 92 92 94 93 93 94 91 88 87 88 87 89 85 80 87 88 82 87 80 78 82 81 77 83 80 83 86 86 81 83 85 84 86
86 86 78 90 92 89 85 68 79 85 85 85 86 88 89 90 90 92 94 94 93 92 88 90 92 89 88 88 89 89 87 84 85 85 84 79 82 81 76 81 81 82 85 83 76 81 76 83 79
83 75 79 79 93 88 85 69 78 85 85 84 85 87 87 88 86 92 92 92 93 90 89 89 87 88 88 86 87 86 82 80 83 77 79 85 87 88 83 81 82 83 82 83 79 81 84 82 82
74 76 80 75 87 89 78 64 65 82 83 83 84 85 85 87 84 90 89 94 93 90 90 89 90 85 86 86 85 85 84 74 79 77 77 83 86 88 85 80 86 86 83 81 83 82 80 76 78
84 82 79 82 85 87 77 68 70 82 84 81 81 77 82 84 89 87 88 92 90 90 88 87 86 84 85 85 84 79 83 83 82 82 83 80 78 87 86 84 87 80 79 79 85 85 82 83 82
83 82 82 79 82 80 72 69 71 79 81 81 82 76 77 83 84 86 90 92 91 87 86 85 85 84 85 85 84 82 85 84 80 80 84 82 83 87 87 81 85 81 81 84 86 83 80 82 83
82 81 82 77 71 80 79 69 68 79 83 84 83 80 79 82 81 85 86 86 88 82 86 85 84 83 84 86 85 82 74 74 72 73 81 87 85 87 85 84 85 82 83 83 85 83 77 80 83
77 87 87 81 78 72 86 68 76 80 75 77 78 79 79 83 82 82 86 85 87 79 88 85 85 83 84 85 85 84 83 77 81 84 82 86 87 85 84 87 86 82 77 75 83 87 82 81 79
80 89 86 81 79 79 79 74 76 76 69 75 77 80 83 85 85 85 88 87 87 86 89 86 84 83 83 84 84 83 83 78 77 80 77 81 84 86 86 85 87 83 76 77 81 85 84 82 80
88 85 84 83 78 68 76 76 69 67 62 69 80 82 78 85 86 88 88 87 86 86 90 86 83 82 84 83 85 83 82 72 70 76 75 78 84 86 84 86 85 83 76 79 81 86 86 83 83
84 78 67 64 65 65 80 76 71 69 66 64 83 82 76 80 82 87 85 86 86 84 87 86 83 81 83 83 84 83 83 83 76 77 78 83 79 85 83 85 84 81 83 81 85 86 84 85 83
79 78 68 56 61 67 79 71 71 79 72 71 88 88 88 86 86 78 88 87 84 84 85 86 83 81 83 83 83 83 84 81 83 75 81 78 75 77 85 85 85 86 85 86 85 84 83 84 84
78 73 83 75 77 71 73 73 79 80 79 81 79 77 72 70 68 72 86 88 79 86 85 86 83 83 84 85 84 83 83 83 86 85 86 81 76 81 82 84 85 85 83 85 83 80 82 83 82
77 84 71 74 59 57 66 66 67 72 72 74 73 70 68 65 65 65 69 76 76 86 89 90 86 84 85 86 86 86 85 85 85 85 85 88 76 75 75 73 81 85 83 83 83 82 80 80 81
76 71 75 77 74 64 57 58 78 72 73 69 69 67 63 62 61 62 63 66 70 74 76 71 87 86 86 87 86 85 86 86 85 85 87 87 89 76 73 72 72 79 85 85 83 81 81 82 82
82 77 77 68 65 72 56 53 75 72 70 67 66 67 64 59 60 61 60 60 61 66 70 68 73 73 88 88 86 86 86 86 86 85 86 87 85 86 78 74 72 80 83 82 83 82 84 81 82

GFSSGP_sfc_temp_081.txt.gz
Temp
80 82 81 76 61 62 56 60 65 68 71 84 84 80 77 80 73 60 81 83 82 80 81 83 82 83 83 83 83 83 83 83 83 83 83 83 83 83 83 83 83 83 84 84 84 84 84 84 84
82 85 79 72 58 55 56 66 64 68 76 82 83 80 75 70 80 78 78 83 83 81 81 81 81 83 83 83 83 83 83 83 83 83 83 83 83 84 84 84 84 83 84 84 84 84 84 84 84
81 86 70 63 60 54 56 66 67 72 82 82 80 83 78 72 81 81 84 84 84 82 80 80 82 82 83 83 83 83 83 83 83 83 83 83 83 84 84 84 83 84 84 84 84 84 84 84 84
80 76 72 61 60 62 67 67 68 72 77 80 82 74 82 86 82 85 87 87 82 80 79 82 83 83 83 83 83 83 83 83 83 83 83 83 84 84 84 84 84 84 84 84 84 84 84 84 83
83 72 60 62 62 66 68 66 67 70 69 78 80 73 76 84 88 89 88 86 81 79 80 81 83 83 83 83 83 83 83 83 83 83 83 84 84 84 84 84 84 84 84 84 84 84 84 84 83
68 69 60 59 62 65 67 67 70 72 75 80 76 74 75 88 88 89 87 83 82 80 80 81 83 83 83 83 83 83 83 83 83 83 84 84 84 84 84 84 84 84 85 84 84 84 83 83 83
68 63 61 63 63 64 66 71 70 75 77 78 81 72 79 83 89 88 85 84 84 82 80 79 80 82 83 83 83 83 83 83 83 83 83 84 84 84 84 84 85 85 85 84 84 83 83 83 84
74 65 66 67 64 61 71 71 75 75 77 88 86 72 72 81 87 88 88 85 83 82 81 80 78 78 78 79 83 84 83 84 84 84 84 84 84 84 84 83 84 85 85 85 84 84 83 83 83
83 61 63 67 67 67 73 71 78 76 79 80 86 83 85 86 88 85 83 81 81 82 81 80 80 78 76 77 81 83 84 83 84 83 84 81 77 79 80 83 85 85 85 84 84 83 83 83 84
64 59 67 75 75 69 72 75 74 68 74 78 82 87 89 88 85 80 80 79 77 79 80 83 81 80 78 84 77 76 80 77 74 74 74 74 74 77 81 83 84 85 85 84 84 84 84 83 79
65 61 76 78 78 79 76 77 74 72 71 79 78 82 86 83 81 80 81 80 80 79 83 80 80 81 78 79 76 76 77 75 75 75 73 74 75 75 75 75 78 78 81 76 80 79 77 79 77
67 72 77 79 83 81 77 77 69 69 74 85 85 86 86 85 83 80 82 82 82 82 81 83 80 80 78 77 78 77 77 77 80 77 78 78 76 74 73 73 75 77 74 73 73 75 80 79 80
69 75 82 86 84 82 82 75 71 72 74 88 88 87 84 83 87 87 86 86 81 79 81 81 79 78 78 81 80 81 77 77 79 78 78 75 74 72 73 72 73 74 72 72 74 74 77 81 81
74 77 78 80 80 82 76 74 76 76 85 85 86 83 85 84 87 86 85 83 82 81 80 78 79 79 79 77 76 77 76 78 80 78 75 76 77 74 74 72 75 76 73 73 74 77 76 78 80
78 72 75 79 80 77 77 68 72 78 82 82 84 84 86 87 85 86 87 84 80 81 82 79 78 80 80 77 77 78 78 81 79 75 78 76 74 75 74 76 76 74 75 76 74 76 78 78 80
75 73 63 81 85 81 77 63 67 76 77 78 83 84 84 86 84 86 88 86 83 82 80 81 87 81 79 78 77 78 76 76 78 75 75 76 77 76 73 77 76 76 78 74 72 77 72 76 76
70 61 69 73 86 80 76 63 66 78 77 76 81 82 83 84 82 83 88 87 83 83 81 80 80 79 79 79 78 77 76 75 74 74 74 77 80 78 74 78 76 78 79 76 75 75 76 74 76
61 64 68 69 81 78 63 60 64 67 72 78 80 82 80 83 80 83 87 86 83 81 81 83 83 78 78 77 76 76 77 73 73 74 72 77 78 81 76 76 78 75 75 74 74 75 77 75 78
73 70 70 78 79 67 62 61 66 70 69 77 79 80 80 79 84 84 86 86 84 81 80 79 82 76 77 75 74 72 72 73 73 73 73 76 76 80 77 76 74 73 74 75 78 77 76 79 76
74 70 71 75 77 67 63 61 65 71 69 79 77 77 80 79 80 83 82 86 83 80 79 77 76 76 76 76 75 76 73 74 74 74 75 78 76 79 79 74 75 79 75 75 77 77 74 75 76
70 65 68 68 72 72 69 62 61 67 76 78 78 79 80 80 79 80 83 83 82 79 78 76 77 76 76 77 76 74 73 71 70 71 73 77 79 80 79 78 76 77 74 74 76 77 75 73 75
60 76 79 72 66 58 68 50 60 68 71 74 76 74 76 77 80 80 82 80 81 79 81 77 78 76 77 77 77 76 72 71 71 72 73 76 79 80 81 79 76 75 74 73 75 80 76 74 72
70 79 77 73 64 63 62 58 58 68 65 66 71 74 78 80 80 80 80 83 81 82 83 79 77 76 76 77 76 74 72 73 72 73 75 75 77 80 81 80 78 75 75 77 75 77 76 75 74
82 76 74 71 67 57 63 63 56 61 66 69 65 69 77 78 77 78 82 82 80 81 82 80 76 76 75 76 77 75 72 69 69 71 71 74 75 79 82 82 76 75 75 76 75 77 77 76 76
72 60 50 50 49 54 66 64 55 64 67 66 65 66 72 80 77 80 80 80 80 79 81 79 75 75 75 75 76 75 72 72 70 72 73 73 73 75 76 77 76 75 76 76 76 76 76 77 75
65 60 51 44 47 53 64 53 56 69 70 70 73 72 73 74 72 75 79 81 81 79 80 80 76 74 75 75 75 75 75 72 72 73 72 72 71 74 77 77 77 77 78 77 76 76 76 76 75
65 61 68 58 57 52 55 59 65 66 66 68 66 66 64 67 67 70 71 71 79 77 81 80 78 77 77 76 75 75 75 74 73 72 72 74 73 77 74 75 77 77 77 78 76 74 75 75 76
68 69 58 55 45 48 54 54 52 58 63 61 59 59 61 62 65 65 66 66 70 73 77 81 79 78 78 78 78 76 76 76 75 74 76 74 73 73 74 75 75 76 77 79 76 75 76 75 79
62 58 57 58 55 48 46 46 60 59 60 56 56 57 58 59 59 61 63 64 65 68 69 70 70 71 74 77 76 76 76 77 76 76 77 74 73 71 72 73 73 73 76 77 76 75 76 75 74
67 62 62 50 50 52 50 48 63 61 62 60 57 58 58 59 58 59 59 60 62 65 66 67 68 68 69 70 72 77 77 78 76 76 77 78 74 72 71 71 70 72 75 76 75 75 78 76 75

GFSSGP_sfc_temp_084.txt.gz
Temp
80 81 79 74 61 59 56 58 65 67 70 80 80 77 73 75 70 58 75 78 79 78 80 82 82 83 83 82 82 83 83 83 83 83 83 83 83 83 83 83 83 83 84 84 84 84 84 83 84
79 81 75 67 58 53 55 65 61 67 77 77 81 78 72 66 76 72 72 79 80 79 78 80 81 82 83 83 83 83 83 83 83 83 83 83 83 83 83 83 83 83 84 84 84 84 84 84 84
82 84 66 62 60 53 54 65 66 68 81 79 76 78 74 69 75 75 78 80 80 78 78 79 82 82 83 83 83 83 83 83 83 83 83 83 83 83 83 83 83 83 84 84 84 84 84 84 84
78 73 70 60 59 60 61 67 67 71 78 79 77 68 77 82 78 79 80 81 78 77 76 81 83 83 83 83 83 83 83 83 83 83 83 83 83 84 84 84 84 84 84 84 84 84 84 84 85
77 71 60 60 61 65 66 67 66 69 72 75 76 69 71 79 82 81 81 80 76 75 78 81 82 83 83 83 83 83 83 83 83 83 83 83 84 84 84 84 84 84 84 84 84 84 83 84 85
68 68 58 58 60 64 67 68 68 71 75 75 72 71 69 81 80 81 81 78 78 76 78 80 82 83 83 83 83 83 83 83 83 83 83 83 83 83 84 84 84 84 84 84 84 83 83 83 84
67 63 61 62 61 64 67 70 70 73 74 73 79 67 72 77 81 81 79 79 78 79 77 76 79 82 83 83 83 83 83 83 83 83 83 83 84 84 84 84 84 85 84 84 84 83 83 83 84
73 65 64 65 62 61 70 71 75 76 74 84 81 68 67 78 81 80 80 78 77 77 77 75 75 76 76 78 83 83 83 83 83 83 83 84 84 84 84 83 84 85 84 84 84 83 83 83 83
77 61 59 62 65 65 71 70 75 77 79 81 82 78 81 81 81 79 76 75 75 77 74 74 74 74 74 75 81 82 84 84 84 83 84 80 75 78 79 83 84 85 84 84 83 83 83 83 83
67 58 64 72 73 69 71 70 72 74 76 78 79 81 83 81 80 76 74 73 72 73 74 75 74 73 74 81 76 76 79 74 74 74 74 73 73 75 79 82 85 84 84 84 84 84 84 82 78
64 62 72 74 77 77 73 70 72 69 65 76 74 76 80 81 79 77 76 75 75 76 78 77 75 74 74 75 73 74 74 73 72 73 73 72 74 74 74 73 74 74 80 76 78 76 75 78 78
65 70 72 77 80 77 73 71 67 69 73 82 82 81 80 79 78 78 77 77 77 77 79 77 76 74 74 74 73 74 74 74 73 73 73 72 72 72 72 72 74 74 73 73 72 74 76 76 78
68 74 75 80 81 80 77 71 70 69 77 83 85 82 79 80 81 81 80 79 79 78 77 77 76 74 75 75 74 74 74 75 75 74 74 74 71 71 72 72 73 73 71 71 72 72 75 76 81
76 76 69 75 80 78 72 71 74 72 77 83 84 79 80 81 81 80 80 79 78 78 77 76 77 76 76 75 74 74 73 75 75 74 74 74 73 71 71 71 72 73 71 72 72 74 74 74 78
81 72 72 76 75 74 75 68 69 76 78 80 83 81 83 82 82 81 79 78 78 79 78 77 76 77 75 74 75 74 75 77 75 74 73 74 74 72 71 72 73 71 72 74 72 74 75 75 77
71 70 64 74 76 75 72 59 72 73 78 78 81 81 81 81 83 82 82 80 80 79 77 80 84 78 76 75 75 75 74 74 74 73 74 75 74 74 73 73 73 73 74 72 72 73 72 74 74
67 57 64 70 78 73 68 58 66 73 76 76 80 79 82 81 82 82 81 80 80 79 77 76 77 76 76 76 75 74 75 73 73 74 74 76 76 75 72 73 73 75 74 73 73 74 73 73 74
57 58 66 69 73 71 63 61 65 70 73 76 79 78 81 78 80 81 80 81 81 79 79 78 77 76 75 74 72 73 73 72 72 73 73 74 75 78 73 73 76 76 73 73 73 74 73 72 74
65 63 65 71 72 64 62 60 64 70 71 74 77 78 78 80 81 82 81 82 80 79 78 76 75 74 73 72 71 70 70 71 72 73 75 74 74 78 73 73 74 73 72 73 72 73 74 75 73
66 62 66 72 73 66 62 62 66 68 69 72 76 77 77 77 79 80 80 80 80 77 78 75 75 74 73 74 72 73 71 72 72 73 74 74 74 76 76 74 74 73 73 74 74 74 72 72 73
63 58 62 64 68 67 63 59 62 68 69 71 75 80 77 79 77 78 79 80 78 76 76 75 75 74 74 73 72 71 71 70 70 71 72 74 76 77 74 76 76 75 73 73 73 73 73 71 72
54 70 73 67 61 54 64 47 59 62 65 68 71 74 74 79 76 76 78 78 77 77 76 77 76 74 74 73 73 72 70 69 70 72 72 74 77 77 77 76 74 74 72 73 74 77 74 72 71
65 72 72 69 60 59 58 53 56 63 62 63 66 69 71 78 75 76 79 78 78 79 77 78 76 74 74 74 73 74 72 72 71 71 72 73 74 76 78 76 74 73 72 73 74 76 73 73 72
77 68 67 62 59 49 60 56 51 59 63 67 68 70 73 75 75 76 78 79 79 81 79 77 75 75 73 74 74 72 71 71 69 70 70 72 73 75 78 77 74 74 74 75 74 74 74 73 73
67 55 46 45 47 47 59 57 59 65 69 69 69 73 74 76 73 76 76 78 77 78 78 76 75 72 73 73 74 72 71 69 70 71 74 71 72 73 74 74 74 73 74 74 74 74 74 74 73
59 57 48 44 43 51 64 53 54 63 70 68 69 69 72 71 72 72 74 77 76 75 77 78 74 73 72 72 73 73 72 70 69 71 71 71 71 73 75 75 75 75 76 75 74 73 74 74 73
59 54 61 54 49 51 50 53 60 62 59 61 61 62 63 66 67 69 69 69 73 74 76 78 74 74 73 72 72 73 73 72 72 71 71 71 72 75 75 76 75 75 75 75 74 72 73 73 73
64 65 53 49 42 41 47 47 48 54 53 56 56 58 60 60 62 65 66 67 69 71 70 73 76 74 75 73 73 73 73 73 73 71 71 71 72 75 73 74 75 75 75 75 74 73 73 72 73
60 54 54 53 49 45 41 45 59 54 54 52 53 57 57 58 60 60 63 67 68 68 69 69 69 70 69 69 70 72 73 74 73 72 73 73 72 72 73 72 73 73 74 75 74 72 73 74 72
63 56 54 52 51 47 44 47 61 56 55 54 54 56 57 58 59 59 60 63 65 66 67 68 68 68 68 69 70 71 71 72 73 73 74 72 72 72 72 72 71 72 73 73 73 73 76 74 73

GFSSGP_sfc_temp_087.txt.gz
Temp
79 79 78 72 60 59 56 59 64 66 68 74 75 73 69 71 67 56 70 75 77 77 78 81 82 82 82 82 82 82 83 83 82 82 82 83 83 83 83 83 83 83 84 84 84 84 84 84 84
78 79 74 66 57 53 55 63 63 68 74 77 76 76 71 65 72 68 69 77 78 77 76 78 81 82 82 82 83 82 82 82 82 83 83 82 83 83 83 83 83 83 84 84 84 84 84 84 84
78 82 65 60 57 54 55 61 63 68 77 77 73 76 72 66 71 71 75 78 78 76 76 78 82 82 82 82 82 83 83 83 82 83 83 83 83 83 83 83 83 84 84 84 84 84 84 84 84
76 71 69 59 57 61 62 64 68 67 76 78 74 66 74 77 74 75 78 78 75 75 75 80 82 83 82 83 83 83 83 82 82 83 83 83 83 84 83 84 84 83 84 84 84 84 84 84 84
77 69 60 59 60 64 66 67 66 66 71 74 74 67 68 75 77 77 77 77 74 73 76 78 82 83 83 83 83 83 82 83 82 82 83 83 84 84 84 84 84 84 84 84 84 84 84 84 84
67 68 59 56 60 64 66 68 67 69 72 72 70 68 66 76 75 77 77 75 76 75 76 78 82 83 83 83 83 83 83 83 83 83 83 83 83 83 84 84 84 84 84 84 84 84 84 84 84
67 64 61 62 60 62 67 69 66 70 71 70 75 63 67 72 77 77 76 75 76 77 75 75 77 81 83 83 83 83 83 83 83 83 83 83 83 84 84 84 83 84 84 84 83 83 84 84 83
71 64 63 64 60 61 68 71 76 73 71 80 78 63 63 72 77 76 75 74 73 74 75 74 75 75 75 77 83 83 83 83 83 83 83 83 84 84 83 82 84 84 84 84 83 84 82 83 83
76 60 57 62 63 64 71 70 76 77 75 77 79 75 75 77 76 74 72 72 72 74 72 73 73 73 74 75 80 82 84 83 83 82 83 77 74 75 79 83 84 84 84 84 83 83 83 83 84
66 57 62 71 71 67 69 72 73 73 72 71 73 77 77 76 74 71 70 69 69 70 72 72 72 72 73 80 74 74 77 74 74 74 73 72 73 75 79 82 84 84 84 84 84 84 84 81 77
66 61 70 73 75 74 69 68 71 71 68 71 69 71 74 74 73 72 72 71 71 72 73 72 71 72 72 74 73 73 73 72 72 73 72 72 73 73 73 73 74 73 78 74 76 75 75 76 75
65 71 73 75 77 74 70 73 71 68 73 78 76 76 75 74 73 73 72 72 72 73 74 74 73 71 71 72 72 72 72 72 71 72 72 71 71 71 71 72 73 73 71 72 72 72 73 74 76
68 71 76 79 76 76 73 71 69 71 76 79 79 77 75 75 75 75 75 76 74 73 74 74 73 72 72 72 72 72 72 73 73 72 73 72 71 70 71 71 71 72 70 70 71 71 73 77 75
69 74 72 77 76 76 72 71 71 72 78 77 77 75 77 76 76 75 75 75 75 75 74 74 74 73 73 72 72 72 71 73 73 73 73 73 71 70 71 71 71 71 71 70 70 72 72 73 74
75 66 69 71 76 71 75 65 69 75 80 75 76 76 77 79 79 76 76 76 76 75 75 74 74 75 74 73 73 72 73 74 73 72 74 74 73 72 71 71 71 70 71 73 71 73 73 73 75
69 66 57 72 73 73 69 60 67 74 74 74 75 77 77 78 78 78 79 78 77 75 74 74 81 76 73 73 73 73 73 72 72 71 72 74 74 73 71 72 72 72 72 70 71 71 71 72 72
60 54 61 64 69 69 67 59 68 75 74 74 76 77 78 76 78 79 80 78 77 76 75 74 75 73 73 73 73 73 73 73 72 71 72 74 75 74 72 72 73 73 72 70 71 72 72 71 73
53 53 61 65 68 67 64 61 68 70 73 74 77 78 78 77 77 77 79 79 78 76 76 74 75 73 73 72 71 71 71 71 71 72 72 74 74 75 72 72 73 73 72 72 71 71 72 71 72
62 59 62 68 72 67 65 62 65 69 70 73 76 75 76 77 78 79 78 79 78 76 73 73 72 71 73 70 70 69 69 69 71 72 74 74 73 74 73 72 72 72 71 72 72 71 72 72 71
61 58 64 64 66 65 62 62 65 66 67 71 75 74 75 76 75 76 77 78 77 75 74 72 73 71 71 72 71 71 69 71 71 72 73 74 74 75 75 73 73 71 72 73 73 72 71 70 71
56 55 61 59 63 64 62 59 61 66 67 69 72 75 76 76 75 75 75 76 78 75 74 74 72 72 71 72 71 70 70 69 70 71 71 73 75 75 75 74 73 72 72 72 72 71 71 70 71
47 65 70 64 58 52 60 49 56 62 62 65 68 72 74 75 76 75 77 75 76 76 77 75 74 71 72 71 71 71 70 68 69 70 71 73 75 75 75 75 74 73 71 71 73 75 72 70 71
61 68 70 65 56 54 55 50 53 61 59 62 65 70 74 75 75 75 77 77 76 78 77 75 74 71 71 71 71 71 69 69 70 72 71 72 73 75 76 75 73 72 71 71 73 73 73 71 71
71 65 63 56 53 46 54 54 50 56 62 65 68 70 73 75 75 77 78 74 73 78 77 75 74 72 71 72 71 71 70 70 69 69 70 71 71 72 74 75 73 72 72 72 73 73 73 72 72
61 53 46 43 44 45 53 52 51 58 67 68 67 69 72 71 71 73 72 73 73 75 75 76 74 71 71 72 71 71 71 70 70 70 70 71 70 71 73 73 72 72 73 74 72 73 73 72 71
56 56 45 41 40 47 54 48 51 59 64 67 68 67 70 69 69 72 72 73 72 74 75 76 73 73 70 71 71 71 70 68 68 70 70 70 71 72 73 73 73 73 74 73 73 72 72 73 72
55 51 58 49 43 46 46 49 57 60 56 60 61 62 62 64 66 68 71 72 72 72 76 76 75 75 72 71 71 71 70 70 69 70 71 71 71 74 73 73 74 73 74 74 73 71 72 72 71
62 63 52 48 41 38 44 44 48 55 53 56 58 58 60 62 62 64 66 68 69 69 72 74 75 74 73 70 70 71 71 71 71 70 70 70 71 71 73 73 74 73 73 73 72 72 71 71 71
57 52 50 50 46 41 39 44 53 53 53 52 55 57 58 59 60 62 63 67 69 70 71 70 70 70 69 71 71 71 71 71 71 71 71 70 70 71 73 72 73 73 73 73 72 72 72 71 71
59 50 49 49 44 43 42 44 57 54 53 53 53 57 58 59 59 60 62 64 66 68 69 69 69 68 68 68 69 70 71 72 71 71 72 71 72 71 70 72 71 71 71 72 72 72 74 72 71

GFSSGP_sfc_temp_090.txt.gz
Temp
78 78 76 72 60 60 55 57 63 63 65 70 73 70 66 68 64 55 68 73 76 76 78 80 82 82 82 82 82 82 82 82 82 82 83 82 82 82 83 83 84 84 84 84 84 84 84 84 83
77 78 73 66 57 53 54 62 62 65 71 72 73 73 69 63 70 66 68 75 77 77 76 78 81 82 82 82 82 82 82 83 82 82 82 82 83 83 83 83 84 84 84 84 84 84 84 84 84
77 80 65 60 56 53 55 61 64 68 74 73 69 74 71 65 69 69 72 77 77 75 76 78 81 82 82 82 82 82 82 82 83 83 83 83 83 83 83 83 84 84 83 84 84 84 84 84 84
74 70 68 58 56 61 62 64 67 68 74 75 71 64 72 76 72 73 77 77 74 74 75 80 82 82 83 82 82 83 83 82 82 83 83 83 83 83 83 83 84 84 84 83 84 84 84 84 84
75 69 60 58 56 63 64 66 66 65 72 72 71 65 67 72 75 76 75 76 73 73 75 78 82 82 83 82 82 82 83 82 82 83 83 83 83 84 83 83 84 84 84 84 84 85 84 84 84
66 67 58 56 60 63 65 68 67 66 71 71 68 65 65 73 73 75 76 74 75 74 75 78 82 82 82 83 82 82 82 82 82 83 83 83 82 84 84 84 84 84 84 84 84 84 84 84 84
66 63 60 60 60 61 66 69 67 68 69 68 73 63 67 69 74 75 73 74 75 75 75 76 78 81 82 83 82 82 83 83 82 83 83 82 83 84 84 84 84 84 84 84 84 84 83 83 83
69 65 62 62 60 60 67 68 75 71 68 77 75 63 63 69 74 73 73 72 73 73 74 74 75 75 75 78 83 83 83 83 83 83 83 84 83 84 84 83 83 84 84 84 84 84 84 83 83
75 60 59 62 62 64 70 69 76 77 73 75 76 72 72 73 73 71 70 71 72 73 72 73 73 73 74 76 80 82 83 83 83 81 80 77 75 76 78 83 84 84 84 84 84 83 82 83 83
65 56 62 70 69 67 69 72 72 71 69 69 68 72 73 73 71 69 68 69 70 70 71 72 72 73 74 78 74 75 76 74 74 73 73 73 75 78 80 83 84 84 84 83 83 83 84 81 77
65 60 69 71 73 74 70 70 73 69 64 69 65 67 70 71 70 69 69 69 69 70 72 71 71 72 73 73 73 73 73 73 73 73 73 73 74 74 74 74 75 75 79 75 76 77 77 78 78
62 70 73 72 75 73 70 71 71 71 71 75 72 72 71 70 69 69 69 69 69 71 72 72 72 72 72 73 73 73 73 73 73 73 73 73 73 73 73 73 74 74 73 73 73 74 75 76 77
65 68 75 76 76 74 73 70 71 69 75 75 74 73 71 71 71 72 72 72 71 71 72 72 72 71 72 73 72 73 73 73 74 73 74 73 73 72 73 73 73 74 73 73 73 73 75 76 77
71 70 74 74 73 73 71 70 70 72 73 74 73 71 72 72 72 72 72 72 71 72 72 73 72 72 72 72 72 72 73 74 74 74 74 74 73 72 73 72 73 74 73 73 73 74 75 75 76
72 65 71 72 70 70 74 65 68 74 72 72 72 72 73 73 74 73 74 73 73 72 73 73 73 73 72 73 73 73 74 75 74 74 74 74 74 73 73 73 74 73 74 75 73 75 76 76 78
66 63 58 70 71 71 69 59 69 73 71 70 72 73 73 74 74 75 75 75 74 73 72 73 79 75 73 73 73 73 73 73 74 73 74 76 75 75 74 74 75 75 75 72 73 75 74 75 76
57 52 57 63 72 69 67 61 69 71 72 70 71 73 74 75 73 75 77 76 75 73 73 73 75 73 73 72 73 73 73 73 73 73 73 75 76 76 74 74 75 75 75 73 74 75 75 75 76
50 53 56 60 65 65 65 62 67 71 71 70 71 73 74 73 73 76 77 77 75 74 73 73 73 72 71 72 71 72 72 72 73 73 74 76 76 76 75 75 76 76 75 75 75 74 75 75 75
59 57 57 66 68 65 62 61 65 68 71 71 73 71 73 74 76 76 77 77 75 73 72 72 71 71 71 70 70 70 70 71 72 73 75 75 75 76 75 75 75 75 75 75 76 75 74 76 75
60 56 55 61 68 64 58 60 66 67 68 72 73 73 74 75 75 74 75 76 75 73 73 71 71 70 71 71 71 72 71 72 73 73 74 75 76 76 76 74 75 75 75 76 76 75 74 74 75
53 53 57 58 60 63 61 57 61 65 68 68 71 75 75 75 71 73 73 74 75 73 72 72 71 71 71 72 71 70 71 71 71 72 73 75 76 76 77 75 75 75 75 75 76 75 74 74 74
48 63 68 61 58 52 61 50 57 62 63 65 68 72 73 74 75 74 74 74 74 74 75 73 71 71 72 71 71 71 71 70 71 72 73 75 77 77 77 76 75 75 74 75 76 77 75 74 74
60 65 68 62 54 52 54 51 54 60 59 62 65 69 72 73 74 74 76 76 76 77 75 74 71 70 71 71 72 72 70 71 72 72 73 74 75 77 77 76 75 75 74 75 77 76 76 75 75
67 62 58 56 51 46 52 53 51 53 59 64 68 70 71 73 73 75 78 77 75 77 77 75 71 70 71 71 71 71 71 71 71 71 71 72 74 75 76 77 75 74 74 75 76 76 77 75 75
59 51 47 41 44 42 48 52 52 57 60 64 67 68 71 72 71 72 74 71 72 75 76 75 72 71 71 71 71 71 71 72 72 72 71 71 72 73 75 76 74 74 75 75 75 76 77 76 76
54 53 44 38 38 45 51 47 53 59 61 65 69 67 68 66 68 71 71 72 72 74 75 75 74 73 71 72 72 71 71 71 71 72 71 72 72 74 76 76 76 75 76 76 75 76 77 76 76
53 50 55 46 41 44 45 50 56 60 59 61 61 62 63 66 68 69 69 72 70 71 75 75 73 73 72 73 72 71 71 71 71 71 73 72 73 75 75 75 75 75 76 76 75 75 75 76 76
58 60 50 45 40 37 44 46 48 54 55 58 58 60 61 63 64 66 67 70 70 71 71 74 74 72 71 72 72 72 72 72 72 72 72 72 73 74 74 75 75 74 75 75 74 74 75 75 75
55 50 47 48 45 40 39 45 53 54 57 56 57 59 60 61 62 63 64 68 69 70 71 71 71 71 70 70 72 72 72 73 73 72 73 72 73 73 72 73 75 74 74 75 74 74 75 74 74
53 48 47 46 42 41 42 46 55 54 54 56 57 58 59 60 60 62 63 65 68 69 70 70 69 69 69 69 70 71 72 73 73 71 73 74 73 73 72 73 74 74 75 75 75 74 75 74 74

GFSSGP_sfc_temp_093.txt.gz
Temp
82 83 84 80 65 68 60 62 69 67 69 77 78 75 73 73 70 66 82 82 84 86 87 86 82 82 82 82 82 82 82 82 82 83 83 83 82 83 83 84 84 84 84 84 84 84 83 83 83
84 81 81 74 63 60 60 67 66 71 76 79 78 78 74 69 74 74 78 83 86 87 88 88 81 82 82 82 82 82 83 82 82 83 83 83 83 83 84 84 84 84 84 84 84 84 84 84 84
83 81 71 66 59 60 61 67 70 74 78 77 75 79 74 68 74 77 83 84 86 86 88 86 82 82 83 82 82 82 82 83 82 82 83 83 83 83 84 84 84 84 84 84 84 84 84 84 84
82 75 72 59 58 64 67 70 72 74 78 78 78 70 75 80 79 80 84 86 86 87 89 84 82 82 83 82 83 82 82 82 83 83 83 82 83 84 83 84 84 84 84 84 84 84 84 84 84
82 72 58 58 61 66 70 72 73 73 76 76 76 67 69 76 82 83 84 86 86 87 88 88 82 83 82 82 82 82 82 82 83 83 83 83 83 84 84 84 84 84 84 84 84 84 84 84 84
67 69 59 55 61 66 68 71 73 73 76 75 73 72 70 78 80 81 85 85 88 87 88 88 83 83 83 83 82 82 82 82 83 82 83 83 84 84 84 84 84 85 85 84 84 84 84 84 83
66 65 61 61 61 62 68 73 73 74 74 73 78 70 71 74 81 83 84 86 87 87 87 86 87 85 82 83 82 82 82 82 83 83 83 82 84 83 84 84 84 85 85 85 84 84 84 83 83
71 68 63 64 60 64 70 69 77 76 72 81 82 69 66 74 81 83 84 85 85 86 87 85 85 85 86 86 83 83 83 83 83 83 83 83 84 85 84 83 84 84 85 85 85 84 84 83 83
77 63 60 64 64 66 73 72 79 81 78 78 79 79 80 79 82 81 80 81 82 83 84 86 86 85 84 84 85 84 84 83 83 82 81 83 87 87 88 84 84 84 84 85 84 84 84 83 83
72 66 65 73 77 70 73 75 75 75 74 72 73 77 79 79 79 79 78 76 79 79 82 84 84 84 85 85 84 84 85 86 84 84 83 86 85 86 88 86 84 84 84 84 83 83 83 85 84
71 67 73 75 79 78 75 74 79 74 72 74 72 74 77 78 79 79 80 80 81 81 83 83 83 83 81 81 85 85 86 85 85 83 84 84 85 86 86 86 86 86 84 90 88 88 90 86 88
69 74 75 77 80 76 72 77 75 77 75 80 79 79 78 77 78 80 81 80 80 81 82 83 84 82 82 85 85 85 85 86 86 85 83 84 86 84 84 86 86 85 88 85 86 89 86 86 86
70 74 77 80 79 75 75 74 74 73 78 80 79 78 78 79 80 82 83 82 82 81 82 83 82 81 81 82 84 84 84 86 86 85 84 86 86 83 84 84 86 85 87 87 86 87 87 86 88
75 76 76 78 76 77 71 73 75 71 79 77 77 78 80 80 81 81 81 81 81 82 82 83 83 82 82 82 82 83 85 86 86 86 86 83 86 84 85 85 86 86 87 88 86 86 87 87 90
77 72 75 76 75 72 73 66 65 72 77 76 77 79 79 80 81 81 83 82 83 83 84 83 83 83 82 82 83 84 86 88 87 87 84 84 84 83 83 86 85 86 86 85 87 88 88 90 91
70 74 66 73 75 66 69 62 70 71 72 75 77 78 78 80 82 83 84 84 84 84 82 83 86 84 83 83 83 86 86 87 86 86 86 84 84 84 84 87 86 86 86 88 88 88 89 89 91
65 64 64 67 73 68 66 59 70 70 74 76 77 78 79 79 81 83 85 85 85 84 83 82 84 83 83 82 84 85 83 86 85 86 86 84 84 84 86 87 86 86 87 87 89 88 88 88 90
60 64 68 66 70 68 64 63 66 66 73 75 77 78 79 79 81 84 85 86 86 84 83 83 84 82 82 83 82 84 85 84 86 86 86 84 86 85 86 87 86 87 88 88 88 85 88 87 87
70 68 64 70 73 70 66 64 65 69 74 72 76 77 77 76 85 85 85 86 86 84 83 82 82 81 81 81 81 82 82 82 83 85 84 84 85 84 85 87 85 87 87 86 86 88 85 89 88
72 69 68 68 72 68 63 61 64 70 72 75 76 78 77 82 82 83 84 85 85 84 83 81 81 80 81 82 82 84 82 84 85 84 83 84 85 84 86 84 85 85 87 84 84 84 88 88 86
70 70 67 68 64 65 61 57 62 70 74 76 77 81 82 82 82 81 82 84 85 83 82 81 81 80 81 82 81 81 81 81 82 82 84 85 85 85 84 85 86 85 86 88 85 85 84 86 86
68 74 72 67 67 56 66 49 60 67 67 70 76 79 82 83 84 83 83 83 84 84 84 83 81 80 81 81 82 79 80 79 84 84 85 85 85 85 85 84 85 84 87 84 86 88 86 86 84
70 74 73 69 65 65 60 54 62 66 64 66 73 78 83 84 84 82 83 84 85 85 84 83 81 80 81 81 81 83 79 85 85 84 82 82 83 85 86 84 84 83 87 85 85 84 84 87 86
75 72 70 69 68 59 65 64 62 63 68 71 73 76 78 82 84 82 78 80 83 85 84 83 80 79 80 80 81 80 80 79 82 82 82 84 86 86 84 85 84 83 84 84 86 84 84 85 85
73 68 55 57 57 59 64 63 69 69 67 71 74 76 77 80 81 81 77 79 80 81 79 75 81 79 80 80 81 81 81 81 81 82 83 82 83 83 84 84 83 85 83 84 84 83 83 85 86
69 71 59 51 54 60 63 61 68 65 66 70 73 80 79 80 80 81 80 76 72 73 80 80 81 80 80 80 80 81 81 84 85 83 84 84 82 82 85 84 85 84 84 84 84 86 88 86 87
66 64 75 63 61 63 63 65 64 65 63 67 72 76 77 77 77 79 81 80 78 72 77 82 79 79 81 82 81 81 81 81 83 81 82 85 83 86 84 85 85 84 84 84 83 86 84 84 85
73 76 65 64 54 53 57 59 66 62 59 61 64 64 67 72 74 73 77 79 79 74 71 74 74 79 79 79 80 82 81 81 82 81 81 82 84 82 82 83 84 83 84 84 82 84 84 83 86
68 67 66 70 64 59 56 61 65 66 64 60 60 63 63 64 66 67 71 73 73 72 71 73 73 79 76 72 74 79 82 83 80 82 82 81 81 81 81 81 82 83 82 83 80 81 83 82 83
70 66 69 64 57 61 65 64 63 64 67 65 63 65 66 65 64 65 67 70 73 73 71 72 73 75 74 77 72 73 79 82 80 80 81 81 81 81 81 81 82 81 84 82 82 82 84 82 82

GFSSGP_sfc_temp_096.txt.gz
Temp
86 93 94 88 75 81 70 69 77 74 77 85 86 83 81 82 79 71 93 93 93 94 94 89 82 83 83 82 83 83 83 83 83 83 83 83 83 84 84 84 84 84 84 84 84 83 83 84 84
93 89 90 82 72 69 67 76 74 79 82 86 85 84 83 75 84 86 87 92 95 94 96 95 81 83 82 83 83 83 82 83 83 83 83 83 83 84 84 84 84 84 84 85 84 84 84 84 84
91 85 82 68 70 68 68 76 77 81 85 84 82 87 82 76 86 88 93 94 97 92 97 90 82 83 83 83 83 83 83 83 83 83 83 83 83 84 84 84 84 84 84 84 83 84 84 84 84
90 86 75 64 70 71 76 79 81 80 83 83 85 77 82 89 86 92 94 96 96 96 97 85 82 82 82 83 83 83 83 83 83 83 83 83 84 84 84 84 84 84 84 84 84 84 84 84 84
92 72 65 63 70 74 81 82 83 79 80 82 84 76 77 86 92 93 94 97 96 97 97 93 82 83 83 83 83 83 83 83 83 83 83 84 84 84 84 84 84 84 85 85 84 84 84 84 83
77 71 65 66 70 75 79 83 83 82 82 82 82 80 80 88 90 93 95 96 98 98 97 93 84 83 83 83 83 83 83 83 83 83 83 84 83 84 84 84 85 85 85 85 84 84 84 83 83
72 69 68 67 69 71 76 84 82 83 82 82 86 79 80 86 91 94 95 96 97 97 96 95 94 86 83 82 83 83 83 83 83 83 84 84 84 84 84 85 85 85 85 85 84 84 83 83 83
83 69 64 67 65 71 80 82 86 84 81 89 90 77 74 86 90 93 95 95 95 96 94 93 93 93 92 91 84 83 83 83 83 83 84 85 85 84 85 84 84 85 85 85 85 84 84 83 83
81 70 61 67 67 72 79 79 85 89 84 86 86 89 86 90 92 92 91 92 92 93 95 97 95 91 88 89 88 84 83 83 83 84 84 86 91 90 89 84 85 85 85 85 85 84 84 83 83
77 71 67 81 80 78 80 82 81 82 81 82 85 88 89 89 89 88 88 88 90 90 93 95 93 94 93 94 90 90 91 94 92 92 90 92 90 90 93 88 85 85 84 84 84 84 84 86 94
79 69 79 83 84 86 82 82 85 83 78 83 81 83 86 87 88 89 89 91 91 91 93 93 91 90 92 90 93 93 93 92 91 90 92 92 93 94 94 92 93 93 88 95 93 93 96 91 95
75 80 80 85 87 85 81 84 82 83 84 89 87 87 87 86 88 90 90 90 90 90 91 92 92 86 90 92 93 93 93 93 93 91 90 90 92 92 92 93 93 93 96 93 94 94 92 93 92
77 79 83 87 86 79 84 82 81 80 86 90 89 88 87 88 89 91 92 92 91 90 91 91 90 87 88 89 92 93 92 95 93 93 92 94 93 90 92 91 94 94 96 95 94 94 93 93 95
81 80 83 85 82 78 80 81 83 82 87 86 86 87 89 89 90 90 90 90 90 90 90 91 89 88 89 88 88 90 93 93 95 94 92 90 93 91 92 92 94 95 97 95 95 93 95 96 97
78 76 78 80 78 77 80 74 75 83 85 83 86 88 88 89 91 89 91 90 91 92 91 89 90 90 88 88 89 92 94 95 94 94 90 90 92 89 91 93 94 94 93 93 93 95 95 97 97
75 78 67 74 79 73 70 65 72 79 83 83 85 87 87 89 91 91 92 92 92 92 89 90 93 91 90 89 90 93 94 95 95 94 93 91 90 90 91 93 94 94 96 97 95 96 95 96 97
67 67 70 69 77 70 66 63 73 72 74 83 85 86 87 88 90 91 92 92 92 91 89 89 90 90 89 88 91 92 90 94 94 94 95 90 90 90 93 95 93 93 96 96 98 95 95 95 97
60 70 76 72 70 66 61 60 69 67 71 83 85 87 87 88 89 91 92 93 93 91 90 89 90 88 87 88 89 93 92 93 94 94 94 90 92 90 93 93 92 95 97 95 95 91 95 95 95
72 65 74 78 75 63 63 62 64 67 68 81 84 86 87 88 92 93 93 93 92 91 90 88 88 86 85 86 89 90 90 91 92 93 90 90 91 90 90 94 92 94 93 91 92 95 91 95 96
79 75 75 79 78 73 61 61 64 66 67 77 83 86 88 89 91 91 92 93 93 90 89 88 87 86 86 89 89 91 91 92 93 93 90 91 90 90 91 90 92 92 92 90 90 89 95 96 94
79 77 77 73 70 72 67 60 62 66 66 75 84 88 89 88 90 90 90 92 93 90 89 88 87 87 87 89 88 85 88 89 87 89 90 91 90 91 90 90 93 90 92 93 92 92 89 93 93
75 81 79 74 71 57 67 52 61 63 62 67 79 86 86 89 91 92 91 91 93 92 92 89 88 87 87 87 88 83 81 81 85 91 93 92 90 91 91 90 90 89 94 91 91 94 92 90 91
76 82 80 79 72 66 63 67 63 63 63 71 79 86 89 91 93 92 92 93 94 94 92 91 88 86 88 86 87 87 85 83 91 92 86 89 88 90 92 90 89 89 93 90 91 90 90 94 93
81 80 79 79 75 64 68 67 61 67 68 75 80 84 88 92 93 93 94 94 94 95 93 92 87 85 86 86 86 85 84 86 81 85 87 91 92 91 90 90 89 89 91 89 91 90 89 90 91
78 76 63 63 65 67 76 69 71 74 75 78 77 81 86 91 92 93 91 91 92 92 91 90 87 84 86 86 86 86 86 85 85 85 84 90 87 89 88 88 87 90 88 90 91 88 89 90 92
74 76 66 54 61 67 72 65 73 81 80 79 85 83 87 89 92 92 83 80 80 90 88 81 82 86 86 86 86 86 86 89 86 89 89 84 89 90 91 89 90 90 90 90 89 91 92 91 91
75 69 82 72 72 70 71 74 71 74 75 79 82 83 86 87 90 91 90 89 87 79 82 79 78 85 87 88 86 86 85 85 89 86 87 86 86 93 90 90 89 90 90 89 89 92 89 90 89
81 83 71 73 59 59 69 70 71 69 73 69 79 82 87 86 87 88 90 87 81 76 74 79 85 78 83 86 88 86 87 87 88 88 85 86 90 88 88 89 90 89 89 88 86 90 89 88 91
75 75 77 79 75 66 63 69 79 77 75 69 69 70 75 83 83 83 85 87 86 78 73 71 72 78 82 82 84 82 86 89 88 87 88 87 88 87 85 86 88 88 87 88 86 86 88 87 88
82 78 78 70 66 73 73 69 76 77 78 75 68 70 69 71 70 73 79 80 77 79 74 72 71 72 74 82 80 81 85 86 88 87 88 87 86 86 86 87 86 86 89 88 87 86 89 86 87

GFSSGP_sfc_temp_099.txt.gz
Temp
86 94 99 92 69 75 74 75 84 81 83 92 93 89 85 85 80 72 97 99 97 97 93 89 83 83 83 83 83 83 83 83 83 83 83 84 84 83 84 84 83 84 84 83 83 83 84 84 84
99 96 94 89 67 69 71 81 78 83 88 90 91 88 82 80 90 90 92 97 95 96 96 94 82 82 83 83 83 83 83 83 83 83 83 84 84 84 83 84 84 84 84 84 84 84 84 84 84
93 91 82 68 65 67 72 81 82 86 89 90 86 87 86 82 91 93 97 94 97 86 97 89 82 83 83 83 83 83 83 83 83 83 84 84 84 84 84 84 84 84 83 83 83 83 84 84 84
95 88 80 68 63 77 80 83 85 84 87 90 88 80 90 94 93 97 96 92 91 93 94 85 83 83 83 83 83 83 83 84 83 83 84 84 84 84 83 84 84 84 84 84 84 84 84 84 84
90 86 72 63 73 79 86 87 86 83 84 83 85 81 83 93 97 96 92 92 97 95 96 92 82 83 83 83 83 83 84 83 83 84 83 84 84 84 84 84 84 85 84 84 84 84 84 84 83
78 76 72 67 71 79 86 88 86 85 82 86 85 83 84 96 92 93 93 98 99 89 95 92 84 83 83 83 83 83 83 83 83 83 84 84 83 84 84 85 85 85 85 85 84 84 84 83 83
76 66 68 72 72 76 82 91 86 85 85 84 90 81 86 89 92 99 100 102 102 92 92 95 93 86 84 83 83 83 83 83 84 84 84 84 84 84 85 85 85 85 85 85 84 84 83 83 83
81 65 67 68 76 75 86 89 90 88 83 95 93 80 81 90 96 99 100 101 100 95 98 94 86 84 88 91 83 83 83 84 84 84 84 84 85 85 84 84 85 85 85 85 84 84 84 83 83
88 66 63 67 79 79 88 84 90 89 89 90 93 91 94 96 99 98 96 96 98 94 98 96 94 94 92 90 87 84 84 83 84 85 84 84 93 92 89 85 85 85 85 85 84 84 83 83 83
80 72 68 79 88 84 85 86 84 86 84 86 90 93 94 95 95 93 93 93 95 96 99 98 90 87 92 95 85 90 89 91 92 91 88 84 91 88 93 88 85 85 85 85 84 84 84 84 90
80 72 80 85 90 90 87 83 90 82 80 89 85 88 91 93 94 93 94 95 96 97 97 97 87 94 95 92 92 91 92 95 88 88 84 88 93 93 94 91 92 90 86 87 88 86 93 93 93
77 82 82 85 90 90 86 90 86 89 88 94 92 92 92 92 94 94 95 96 95 94 94 95 89 91 93 95 97 90 96 96 90 91 92 92 95 93 91 92 94 89 92 94 93 95 93 94 95
80 79 84 85 90 90 88 87 87 86 92 95 93 92 92 93 94 96 97 96 95 93 94 94 89 88 92 93 96 94 95 97 94 94 95 96 93 91 92 92 92 93 92 90 95 95 95 94 96
81 83 83 83 86 84 85 85 88 87 93 91 90 91 93 94 95 94 95 94 94 94 93 93 92 90 87 91 92 93 95 96 97 96 94 94 90 84 89 87 92 94 92 92 96 94 96 94 97
84 75 78 77 84 78 83 79 77 88 92 88 90 92 93 94 95 93 94 93 95 95 94 92 92 93 87 88 91 93 96 97 86 94 92 93 93 92 92 90 88 88 94 93 95 95 97 98 98
79 74 63 73 83 78 79 65 81 88 88 87 90 91 92 93 95 95 95 95 95 94 91 93 95 94 92 86 89 87 94 93 93 92 94 92 91 92 92 93 86 96 94 97 96 97 97 97 98
75 60 65 67 79 71 73 65 77 88 87 88 89 89 91 92 93 94 96 96 95 93 91 92 93 91 90 91 84 86 92 90 87 87 88 92 92 93 84 88 91 89 92 96 94 97 95 96 98
67 58 71 67 71 74 62 59 69 75 73 85 86 90 90 91 92 94 96 97 96 93 92 92 93 87 86 92 91 83 89 89 86 88 85 92 93 92 87 94 93 85 93 95 95 91 96 95 96
64 60 58 72 71 66 65 63 64 67 69 73 84 85 88 88 92 94 96 97 95 93 91 91 84 88 88 88 89 82 81 84 87 84 92 92 92 92 91 89 92 94 91 89 93 93 91 95 96
80 67 56 67 73 70 63 60 64 63 66 69 77 86 88 90 89 90 93 96 95 93 91 90 88 86 86 90 81 85 81 85 85 83 92 92 93 92 92 91 90 89 93 91 91 90 92 96 96
81 70 62 56 67 66 62 57 60 63 64 68 74 86 89 91 91 91 91 95 96 92 91 90 90 86 89 82 85 90 89 84 91 86 90 92 93 92 92 91 83 92 89 90 91 93 91 90 94
75 74 65 60 72 58 63 51 62 61 61 63 77 80 87 88 86 93 93 95 96 93 93 91 90 88 89 90 85 85 81 80 87 76 80 88 92 93 93 92 91 90 92 88 89 95 91 90 92
77 84 66 64 71 70 65 63 63 68 59 61 77 80 85 87 90 83 94 95 98 96 94 93 90 89 90 89 86 88 87 85 91 78 85 80 90 92 93 92 91 90 92 92 89 90 90 94 90
86 83 83 79 76 54 71 70 64 67 63 62 68 76 83 87 86 89 96 96 95 97 92 93 89 87 89 88 88 87 85 87 82 82 84 88 88 92 91 92 91 91 92 90 91 92 91 89 90
84 79 66 63 50 65 74 71 71 77 69 67 67 74 84 79 92 88 92 87 90 90 91 90 89 86 88 88 88 88 87 86 85 86 89 75 76 76 88 90 88 91 90 91 91 89 89 90 90
79 81 69 58 63 65 73 66 70 82 81 83 82 84 88 89 82 90 92 85 92 90 94 91 89 86 88 88 88 89 88 90 90 90 86 92 78 93 88 90 90 90 91 91 91 92 92 92 92
79 74 85 71 75 61 69 72 78 84 83 83 83 88 85 89 85 89 92 93 86 90 91 91 87 85 89 90 88 86 86 88 85 87 89 90 90 82 92 90 90 91 91 91 91 91 91 83 90
84 88 74 77 60 55 65 70 71 72 76 83 84 86 88 88 92 88 88 90 84 79 83 82 83 81 85 90 90 88 88 88 89 89 87 88 80 82 87 90 90 90 90 90 89 90 91 89 90
79 78 80 81 77 66 62 69 80 77 81 79 86 88 90 90 90 90 88 90 90 86 83 74 78 80 81 86 87 85 89 86 89 89 89 89 90 88 88 88 89 90 89 90 88 87 88 88 88
86 81 81 72 68 76 73 58 85 83 83 83 78 79 81 84 88 89 91 83 82 79 74 76 72 73 75 77 82 84 87 89 84 88 89 90 88 89 88 88 87 88 88 89 87 87 89 88 87

GFSSGP_sfc_temp_105.txt.gz
Temp
79 84 84 74 62 62 64 69 79 74 75 84 86 80 76 79 71 58 78 79 81 80 81 82 82 83 83 83 83 83 83 83 83 83 83 83 83 83 83 83 83 83 84 84 84 84 83 84 84
84 87 78 66 59 57 64 74 72 73 79 83 83 80 74 71 81 77 76 83 83 81 79 80 81 82 83 83 83 83 83 83 83 83 83 83 83 83 83 84 84 84 84 84 84 84 84 84 83
82 83 70 60 59 59 61 72 74 77 83 82 79 83 79 74 83 82 83 84 82 80 79 80 82 83 83 83 83 83 83 83 83 83 83 83 83 84 84 84 83 84 84 84 84 84 84 84 83
82 79 73 60 58 67 72 75 77 77 80 85 82 76 83 86 83 85 86 85 81 79 79 82 83 83 83 83 83 83 83 83 83 83 83 84 84 84 84 84 84 84 84 84 84 84 83 83 83
81 76 60 59 64 76 78 80 79 78 79 80 78 72 74 84 87 87 84 84 80 79 80 81 82 83 83 83 83 83 83 83 83 83 84 84 84 84 84 85 84 84 84 84 84 84 83 83 83
72 72 58 57 67 76 79 82 81 78 80 78 76 74 73 85 85 82 81 82 83 80 79 81 83 83 83 83 83 83 83 83 83 83 84 84 84 84 84 85 85 85 84 84 84 83 83 83 83
69 63 61 65 70 72 78 84 79 78 80 78 81 70 74 79 82 82 81 84 84 82 79 79 80 82 83 83 83 83 83 83 84 84 84 84 84 84 84 85 85 85 85 84 84 83 83 83 83
70 64 60 65 70 69 81 84 85 81 80 85 84 71 68 79 83 84 81 81 83 82 80 79 78 78 77 79 83 84 84 84 84 84 84 84 85 85 84 84 84 85 85 84 84 83 83 83 83
76 58 56 61 72 73 79 75 85 87 84 83 86 81 83 87 87 83 81 81 82 83 81 80 79 76 77 78 82 83 84 84 84 83 84 81 77 79 81 83 85 85 85 84 84 83 83 83 83
69 59 60 69 70 75 82 80 81 81 82 80 80 85 87 88 85 82 82 77 79 79 80 78 80 78 78 85 77 77 79 76 76 77 77 75 76 76 81 82 84 85 84 84 84 84 84 81 77
68 60 66 69 71 73 82 79 85 79 72 80 77 81 86 86 84 83 84 80 79 81 83 82 81 79 78 79 77 77 77 76 74 74 75 74 74 78 75 71 69 71 76 71 75 79 79 75 77
68 70 69 70 70 73 79 84 81 79 81 86 85 86 88 86 83 83 83 81 82 81 80 82 83 79 78 78 77 77 77 74 71 75 76 76 77 74 72 68 68 68 70 69 70 74 79 81 79
74 76 70 70 70 72 84 83 79 82 86 88 88 87 85 87 85 85 87 84 81 81 80 80 80 79 82 79 78 79 79 76 76 74 79 73 76 72 71 70 71 71 71 70 72 76 78 78 81
78 73 72 71 69 68 80 77 81 81 87 85 85 83 87 87 88 87 86 81 80 81 79 81 80 81 82 81 81 81 80 78 78 75 74 77 74 73 73 69 69 70 71 74 75 76 76 77 81
77 70 74 68 69 72 78 74 74 83 87 83 84 85 88 86 87 84 84 81 79 81 80 79 79 82 83 79 80 79 80 84 79 75 76 78 77 73 71 71 70 74 73 79 77 77 76 76 81
74 69 62 70 69 70 74 63 74 80 83 80 83 85 87 85 85 85 86 84 82 81 79 80 88 80 80 80 80 81 80 77 79 78 76 79 78 76 74 74 75 77 81 79 80 79 77 76 74
65 56 61 64 67 66 72 64 74 81 82 80 81 82 85 84 85 84 87 86 83 80 78 81 79 79 79 79 79 76 78 78 79 79 79 81 80 78 79 76 78 78 76 72 76 77 80 78 78
58 58 65 60 59 62 64 63 69 73 81 80 82 81 83 82 85 85 86 85 84 81 81 83 78 78 77 74 74 74 76 78 78 79 79 81 80 80 81 77 73 75 75 74 78 77 81 81 77
65 62 58 59 60 58 62 62 63 67 70 69 79 78 81 81 84 85 85 85 84 81 82 79 76 76 76 76 73 74 73 77 78 78 82 82 81 82 80 75 75 70 73 75 79 79 78 78 79
65 59 57 57 60 59 58 61 63 64 66 66 69 72 74 81 84 83 83 84 83 78 81 79 76 76 77 76 75 73 73 75 76 78 80 81 81 82 82 75 73 74 73 74 78 78 78 76 78
65 61 58 58 57 58 56 57 60 65 66 67 71 72 72 76 81 81 81 82 83 78 78 76 76 76 76 75 74 73 75 74 71 73 74 77 82 82 80 74 73 74 72 72 72 75 76 72 76
59 68 63 58 55 49 56 49 57 61 63 66 68 71 71 71 79 81 82 82 82 80 80 78 79 75 76 76 73 73 71 70 72 72 72 73 78 81 81 77 76 74 69 69 71 79 76 76 73
61 68 64 61 52 54 55 51 55 60 59 65 69 71 71 76 80 82 83 83 83 83 81 78 76 75 76 75 75 72 72 73 72 72 74 73 74 80 82 79 78 73 71 73 73 74 77 75 74
72 65 61 58 54 46 54 52 53 55 61 66 70 71 72 74 78 78 85 84 83 84 81 79 76 75 76 75 76 74 74 72 70 70 72 72 73 74 75 82 78 73 71 72 74 76 77 77 75
65 57 47 44 44 44 56 53 55 65 67 67 68 70 72 72 72 78 80 77 84 82 81 79 77 74 76 76 76 76 75 74 72 71 72 73 71 70 72 73 77 76 74 74 75 76 77 77 76
63 60 48 44 44 48 59 51 56 70 73 74 72 72 72 72 74 75 79 72 73 81 82 78 76 74 76 76 76 76 76 75 73 74 71 71 70 72 73 74 75 77 77 78 76 77 77 75 74
66 58 68 51 51 50 52 56 61 70 69 72 70 70 69 71 72 74 77 71 72 70 78 77 75 75 76 77 76 76 75 75 75 75 72 72 72 73 73 73 72 74 78 80 77 76 75 75 75
68 72 56 57 44 43 51 51 53 61 62 68 69 71 75 74 74 73 73 71 71 70 71 75 75 75 77 78 77 77 76 76 76 74 70 70 71 71 73 72 72 73 78 78 77 76 75 74 74
64 59 61 60 58 51 45 50 62 64 69 68 71 73 74 73 73 71 71 70 70 70 70 74 73 75 75 76 75 75 75 75 76 75 75 72 70 70 70 72 72 76 78 78 77 76 76 76 74
70 65 62 53 53 56 56 51 68 69 70 73 72 74 73 76 75 71 70 69 68 69 70 70 71 74 75 75 73 74 73 72 73 72 73 73 72 72 72 74 75 76 77 76 76 76 78 75 74

GFSSGP_sfc_temp_108.txt.gz
Temp
79 82 81 73 62 60 62 67 74 72 74 82 84 77 73 74 68 59 73 76 78 77 79 81 82 83 83 83 82 83 83 82 83 83 83 83 83 83 83 83 83 83 84 84 84 83 84 84 84
81 85 75 67 57 57 59 71 67 72 76 80 80 77 72 66 74 69 71 79 79 78 76 78 81 82 82 82 83 83 83 83 83 83 83 83 83 83 84 83 84 84 84 84 84 84 84 84 84
82 83 68 61 56 56 57 69 71 76 80 79 75 79 75 66 72 74 77 79 79 75 75 77 82 82 82 82 83 83 83 83 83 83 83 83 83 84 84 84 84 84 84 84 84 84 84 84 84
80 74 68 59 58 67 69 70 74 75 79 80 78 71 78 82 79 79 80 79 76 75 75 81 83 83 83 83 83 83 83 83 83 83 83 84 84 84 84 84 84 84 84 84 84 83 83 84 84
78 70 58 59 60 71 74 76 77 73 73 74 76 70 70 78 81 79 78 79 75 74 77 80 82 83 83 83 83 83 83 83 83 83 84 84 84 84 84 84 84 84 84 83 84 84 83 83 84
69 68 58 59 63 73 75 79 78 74 74 74 73 72 69 80 79 79 79 77 78 76 77 80 82 83 83 83 83 83 83 83 83 83 84 84 84 84 84 84 84 84 84 84 83 83 83 83 83
69 63 59 61 67 69 74 81 75 73 74 74 79 67 70 75 79 80 78 78 78 78 76 77 79 82 83 83 83 83 83 83 83 84 83 83 84 84 84 84 84 84 84 84 84 83 83 83 83
69 65 63 63 67 66 77 80 81 76 74 83 82 68 65 74 80 82 78 77 77 77 76 74 75 76 76 79 83 84 84 84 84 83 84 84 84 84 84 83 84 84 84 84 83 83 83 83 83
73 59 57 63 70 69 79 78 83 84 78 81 84 78 79 81 80 79 76 76 73 77 75 74 74 73 75 77 81 83 84 84 84 83 84 81 75 78 79 82 84 84 84 84 83 83 83 83 83
69 58 59 68 70 68 75 74 79 76 76 76 80 80 81 82 79 76 75 73 71 74 74 73 73 73 75 82 75 75 78 75 75 75 75 74 74 74 79 81 84 84 82 82 84 84 84 82 76
68 60 66 68 72 73 73 74 83 75 73 78 76 76 79 79 77 77 76 76 75 76 77 75 75 74 74 76 74 74 74 74 74 75 74 74 75 74 70 70 70 70 77 70 74 74 78 75 75
64 68 68 72 75 72 71 79 78 74 76 83 82 82 81 79 77 77 78 77 77 77 78 77 76 75 75 74 74 74 75 73 71 72 74 72 73 72 69 68 68 68 69 71 70 71 76 77 79
68 68 71 69 69 71 72 72 77 77 82 84 84 83 80 79 79 81 81 80 79 77 78 77 77 75 75 74 74 73 73 72 72 74 75 75 72 71 70 68 68 70 70 70 70 71 74 75 77
78 74 68 66 68 69 68 74 77 79 82 82 82 81 82 80 79 79 80 78 78 77 76 77 78 79 76 75 75 75 74 74 75 72 74 75 72 71 69 69 69 70 71 71 71 71 72 75 76
79 68 64 64 68 65 72 68 70 80 84 80 81 81 85 82 81 78 79 79 78 78 77 77 78 81 79 77 73 76 75 77 72 73 74 74 72 71 71 69 70 70 72 72 72 73 75 76 77
72 65 60 65 66 66 65 60 74 81 80 79 80 82 83 81 80 80 81 80 79 78 76 78 84 81 78 80 75 76 76 77 74 73 74 75 74 72 70 70 71 72 71 74 72 72 76 75 73
66 55 60 60 64 63 63 61 74 79 79 78 78 78 81 80 81 80 80 80 79 78 77 76 77 79 76 75 76 77 79 76 75 75 76 77 77 76 75 72 72 72 72 70 73 72 76 76 75
55 60 59 56 59 62 58 61 70 74 77 77 76 80 80 79 78 79 80 81 80 78 77 76 75 75 74 72 72 71 73 75 76 76 76 78 77 79 75 73 72 72 74 73 77 76 76 77 75
64 58 56 58 61 60 56 58 61 67 74 72 73 76 78 78 81 80 80 81 79 78 77 76 74 73 74 73 72 71 71 74 74 77 79 79 79 77 75 74 72 71 72 72 75 77 77 77 75
61 56 55 58 61 60 57 56 62 65 64 66 70 76 78 78 78 78 79 80 79 77 77 75 74 74 74 73 72 72 71 74 74 73 77 79 79 78 76 74 73 73 72 72 73 74 75 75 74
61 60 55 57 59 59 56 54 59 65 65 68 69 70 73 77 75 76 78 79 78 76 76 76 74 73 74 73 72 71 72 72 72 72 73 75 77 78 75 74 74 72 70 70 70 73 74 72 74
53 66 63 57 55 48 56 48 56 61 62 64 68 70 70 74 77 77 78 77 78 77 77 76 75 73 74 73 72 72 70 69 70 71 72 73 76 76 77 75 75 72 68 70 72 74 73 73 72
58 67 62 59 52 52 54 50 54 59 59 63 67 70 71 72 77 77 78 79 79 79 78 77 75 73 73 73 73 71 70 72 71 71 72 72 73 77 78 75 75 72 71 72 73 74 73 74 72
68 62 60 58 52 44 53 52 51 55 60 65 70 70 72 73 74 76 79 80 79 79 77 75 73 73 73 73 73 72 71 71 70 70 70 71 72 73 74 78 75 74 73 73 72 74 76 74 73
61 51 45 45 45 44 53 51 54 62 65 68 69 67 71 72 72 73 76 76 77 77 76 75 72 71 72 74 74 73 72 71 71 70 71 71 71 70 72 74 73 72 73 71 73 74 74 74 73
57 53 49 43 41 47 55 50 56 67 71 74 74 72 71 72 72 73 75 74 75 77 77 76 73 71 72 73 73 74 73 72 71 71 71 71 70 70 73 73 74 75 75 75 75 73 74 73 72
57 54 60 49 46 47 51 57 62 68 68 69 70 72 70 72 72 72 72 71 70 72 75 75 73 73 72 74 74 73 73 73 72 73 71 71 72 73 72 74 73 74 75 75 75 73 74 73 72
65 67 52 48 41 41 47 49 51 61 63 66 67 69 71 71 70 71 70 71 70 69 68 71 74 74 74 73 75 74 72 74 73 71 71 72 72 72 72 72 72 74 74 75 74 73 74 74 72
61 56 54 54 51 45 43 48 59 63 65 65 66 70 70 72 70 68 68 70 70 72 72 69 70 74 74 74 73 73 73 73 73 71 71 71 70 70 71 71 72 73 74 75 74 73 74 74 73
66 61 56 49 50 51 52 51 69 67 69 68 68 70 71 75 72 69 68 68 69 70 70 70 69 70 73 72 72 73 73 73 73 72 72 70 69 69 69 70 72 73 75 74 74 74 75 74 73

GFSSGP_sfc_temp_111.txt.gz
Temp
79 81 79 72 60 59 60 62 70 69 70 78 78 75 69 69 67 56 69 75 76 76 77 80 81 82 82 82 82 82 82 83 82 82 83 82 83 83 83 83 83 83 83 83 83 83 84 84 83
78 82 75 66 56 52 55 67 64 69 74 78 78 75 69 64 71 67 70 76 77 76 75 78 81 82 82 82 82 82 83 83 83 83 83 83 82 83 83 84 83 83 84 84 84 84 83 84 83
80 82 68 61 55 52 55 67 67 72 78 76 72 78 73 65 71 72 73 77 76 74 74 76 81 82 82 82 82 82 82 83 82 83 82 83 83 83 83 83 84 83 83 84 84 84 83 84 84
78 72 69 59 56 64 66 69 72 72 76 78 75 68 75 78 75 75 77 76 73 73 74 79 82 82 82 82 82 82 82 83 83 83 83 83 83 83 83 84 84 84 84 84 83 83 84 84 84
75 69 58 59 62 67 72 73 74 70 71 72 74 66 66 75 77 77 75 76 73 72 75 78 82 82 82 82 82 83 82 83 83 83 84 84 84 84 83 83 84 84 84 84 83 83 84 84 84
67 66 56 57 61 70 72 75 73 71 71 72 70 68 65 75 75 75 77 74 76 74 75 78 82 82 82 83 83 83 83 82 83 83 83 83 84 84 84 83 84 84 84 84 83 83 83 83 84
66 62 59 59 63 67 71 76 71 70 72 71 75 63 66 71 75 76 75 75 76 76 75 75 77 80 82 83 82 83 83 83 83 83 83 83 84 84 84 84 84 84 84 84 84 83 83 83 84
67 63 62 61 64 64 74 75 76 74 71 80 78 63 62 71 76 76 75 73 72 73 74 73 74 75 76 77 83 83 83 83 83 83 83 84 84 84 84 82 84 84 84 84 83 83 83 83 83
72 59 57 61 66 68 76 73 78 82 76 77 80 74 76 76 75 73 72 72 72 73 72 72 73 73 74 76 81 83 84 84 83 82 83 80 75 76 78 82 84 84 84 84 84 84 84 84 82
67 59 61 67 69 67 73 75 75 74 73 73 74 77 77 76 74 71 70 68 69 70 71 71 72 73 74 81 75 75 78 76 75 75 74 73 73 73 78 80 82 81 82 82 81 81 83 78 74
67 61 66 71 71 71 71 75 79 72 68 73 71 72 75 74 73 72 72 72 69 72 73 72 71 72 73 74 73 73 73 73 73 73 72 73 73 73 71 70 70 69 76 70 74 73 75 75 74
65 69 68 71 74 73 70 73 76 75 76 79 78 76 75 73 73 73 73 73 71 72 73 73 72 71 72 72 71 73 73 72 71 72 73 71 71 71 68 68 68 67 68 70 70 70 73 74 76
67 68 68 71 71 72 72 70 74 74 80 81 79 77 75 74 74 76 77 76 74 73 73 73 73 72 73 73 72 71 71 71 71 72 73 71 71 70 68 67 68 69 70 70 70 71 71 72 75
73 70 69 71 69 71 68 72 73 77 82 78 77 75 76 75 75 76 75 75 74 74 73 74 74 74 73 72 71 71 72 72 73 72 72 74 69 70 68 68 69 69 70 71 70 71 71 71 74
74 65 65 64 66 67 69 67 68 77 78 77 77 77 76 76 77 76 76 75 76 75 75 74 75 75 74 72 72 71 73 73 71 71 73 73 71 71 69 69 70 71 71 72 72 72 72 73 75
69 66 58 63 65 64 66 59 69 76 77 75 78 76 76 76 76 78 78 77 76 75 74 75 82 77 74 75 73 74 74 71 72 71 73 74 72 71 71 70 71 71 68 72 70 71 73 73 73
61 57 59 58 64 64 63 59 68 74 75 74 77 77 75 74 76 78 79 78 76 76 74 74 76 76 75 75 73 74 74 73 73 72 72 74 74 72 73 72 71 71 71 71 71 71 73 74 74
52 55 57 56 59 62 59 59 65 71 72 76 76 74 75 73 75 78 79 79 77 76 74 75 74 73 74 72 71 72 72 72 73 72 72 75 75 76 72 71 71 71 71 71 73 73 73 74 72
62 58 55 58 60 58 57 57 60 65 70 73 71 73 73 74 76 78 79 79 77 75 73 72 72 71 73 71 70 69 70 71 72 75 74 75 75 75 73 71 69 70 71 72 74 73 73 73 72
63 56 54 58 60 58 57 56 58 62 65 67 71 73 74 75 73 76 76 78 76 75 74 72 73 71 73 72 70 71 71 72 72 72 74 76 75 76 74 73 71 72 71 71 73 72 72 72 71
57 57 55 56 58 59 57 54 56 62 64 67 70 74 75 74 72 73 75 75 76 75 73 73 72 71 72 72 71 70 71 70 71 71 72 73 76 77 75 73 71 71 69 70 70 72 72 70 72
53 65 62 56 54 48 57 46 55 58 61 64 68 69 73 74 74 75 75 74 76 76 75 73 71 71 72 72 71 71 69 69 69 69 70 72 75 75 76 74 73 70 67 70 71 74 73 71 69
58 65 60 58 51 51 53 48 54 59 58 62 66 68 69 75 75 75 76 76 76 77 76 74 72 71 71 71 71 70 69 70 70 70 71 71 72 75 76 74 73 71 70 71 72 73 73 72 70
66 59 56 53 50 45 54 51 51 55 59 64 67 69 70 75 76 76 78 77 76 77 76 74 71 71 71 71 71 71 70 70 69 69 70 70 71 72 74 76 73 72 71 71 72 73 74 72 71
59 49 41 41 42 45 52 50 52 61 64 67 66 67 71 72 75 75 73 74 73 74 74 73 71 70 71 71 72 72 71 70 70 70 70 70 70 70 71 73 72 71 71 71 71 72 72 73 72
54 49 44 40 40 44 53 48 55 65 67 67 68 69 71 71 74 74 74 73 73 75 74 74 71 69 70 71 71 71 72 70 70 70 69 70 70 70 72 73 73 73 73 72 72 72 72 72 71
57 49 55 46 44 43 50 57 62 66 66 68 68 73 69 70 69 74 74 73 71 72 73 74 71 70 71 71 71 71 71 71 71 71 71 70 71 71 72 73 73 74 74 74 73 72 72 71 71
60 62 50 46 42 36 46 49 50 60 63 67 67 67 69 71 70 71 72 72 72 72 72 72 72 71 71 71 71 71 71 71 72 71 71 70 71 72 71 71 72 73 73 74 73 72 72 71 71
56 53 51 50 47 41 40 48 60 65 66 65 67 70 70 72 70 70 69 71 71 72 71 71 71 71 71 71 71 71 71 71 71 71 71 71 71 70 70 70 70 71 72 73 73 72 72 72 71
58 51 51 48 46 46 47 51 64 65 65 64 66 68 69 73 72 70 69 68 69 70 70 70 69 71 72 72 71 71 71 71 71 71 71 71 69 69 69 69 69 71 72 73 73 73 74 73 72

GFSSGP_sfc_temp_114.txt.gz
Temp
79 79 77 71 59 57 55 60 68 65 66 73 75 72 67 67 64 55 67 73 75 75 78 80 81 81 82 82 82 83 82 82 83 83 83 83 83 83 83 83 83 83 83 83 83 84 84 83 84
77 78 73 64 54 50 53 65 63 67 72 75 75 73 67 63 69 66 69 75 76 75 74 77 80 81 82 82 82 83 83 82 83 83 82 83 82 82 83 84 83 84 83 83 83 84 84 83 83
78 81 66 58 53 51 54 64 65 71 75 74 71 74 70 64 69 69 72 75 75 73 74 76 81 82 82 82 82 83 83 83 83 83 83 82 82 83 84 84 83 84 83 84 83 83 83 83 83
77 70 68 59 56 61 63 66 69 70 74 75 73 66 72 76 72 73 74 75 72 72 74 79 82 82 82 82 82 82 83 83 83 83 82 83 84 83 83 83 84 84 84 83 83 83 83 83 84
76 70 59 59 60 66 69 71 71 68 69 70 72 64 65 72 75 74 73 74 72 72 74 78 82 82 83 82 83 82 83 83 83 83 83 84 84 84 83 83 83 84 84 83 83 83 84 84 84
66 68 57 56 61 67 70 72 71 68 69 70 68 65 63 72 72 73 74 72 74 73 75 77 81 82 83 83 83 82 83 83 82 83 83 83 83 83 83 84 84 84 84 84 83 83 83 84 84
65 62 60 59 60 64 69 74 69 68 69 69 72 61 63 68 72 73 72 73 74 75 75 75 77 80 82 83 83 83 83 83 83 83 83 83 83 84 84 84 84 84 84 84 84 83 83 83 83
66 63 62 61 62 61 71 73 74 72 68 77 75 61 60 68 73 73 72 72 72 73 74 74 75 76 76 78 83 83 83 83 83 83 83 84 84 84 83 82 84 84 84 84 84 83 83 83 83
73 58 57 62 66 65 73 70 76 77 73 75 76 70 72 74 74 71 70 70 71 73 72 72 73 74 74 76 79 82 83 83 83 82 83 78 75 77 79 83 84 84 84 84 84 84 84 82 82
67 60 62 68 68 66 71 72 73 71 71 70 69 72 73 72 71 68 68 70 69 70 71 72 72 73 74 78 74 75 78 74 75 75 74 74 74 75 77 81 81 81 80 81 81 81 81 78 77
66 62 65 70 71 70 68 72 76 70 66 70 67 68 70 70 70 69 69 69 68 70 72 71 71 73 73 73 74 74 74 74 74 74 74 74 74 73 72 71 71 71 76 73 75 75 76 76 77
65 69 69 64 66 73 69 73 72 72 74 77 74 72 71 70 70 70 70 69 69 70 71 72 72 72 73 74 72 73 73 73 72 73 75 73 73 72 69 70 70 70 72 73 73 74 76 76 77
66 69 70 67 69 72 72 71 71 72 78 78 75 73 71 71 71 72 73 72 70 70 71 71 72 72 73 73 73 72 73 73 73 73 75 73 72 71 70 70 71 72 73 73 74 74 75 75 77
70 69 68 70 69 70 68 71 72 74 79 75 73 71 72 72 72 73 73 71 71 71 71 72 72 72 73 73 72 72 72 73 73 73 74 74 72 71 70 71 72 72 72 74 74 74 74 75 77
69 64 65 65 68 67 68 66 66 73 76 74 72 72 72 73 74 73 74 73 73 72 72 72 72 73 73 73 72 72 73 73 73 73 74 73 72 72 71 70 72 73 72 75 75 75 75 77 79
65 64 57 63 65 66 67 58 69 71 74 71 72 73 73 72 74 75 76 74 73 73 72 73 79 75 74 72 72 73 73 71 73 73 74 74 74 73 72 72 72 73 72 75 74 74 76 77 77
57 52 57 59 64 64 62 59 65 70 73 70 71 72 73 72 73 75 77 75 74 73 72 72 75 74 73 73 73 73 74 72 74 73 73 74 74 74 73 74 74 74 74 74 76 75 76 77 77
50 52 56 56 60 62 57 58 63 68 68 72 73 72 72 72 72 76 77 77 75 73 73 73 73 73 73 72 71 72 72 72 73 72 73 75 75 76 74 74 74 74 74 75 76 76 76 76 76
59 57 54 58 62 60 56 56 59 63 66 68 71 71 71 72 75 76 77 77 74 73 72 71 71 71 72 70 70 70 71 72 73 74 75 74 75 76 74 74 74 74 74 74 77 76 76 76 75
58 54 53 58 61 59 57 56 59 62 62 66 70 70 72 71 71 74 76 77 74 73 71 71 72 70 72 72 70 71 71 73 74 74 75 75 75 76 75 74 74 75 74 75 76 76 75 75 74
55 55 53 55 58 58 57 54 57 61 63 66 68 70 72 71 70 72 73 74 74 73 71 71 71 71 72 72 71 71 72 72 72 73 73 75 77 76 76 75 74 74 72 74 75 76 75 74 74
51 61 60 55 53 47 57 46 54 59 59 62 66 68 71 72 73 73 73 73 73 74 73 72 71 70 72 72 72 72 70 70 70 72 72 74 77 76 76 76 74 73 71 74 75 76 76 75 75
56 63 57 57 50 50 52 48 54 57 55 60 64 66 73 73 73 73 74 75 75 75 74 72 71 71 72 71 72 71 70 71 72 72 73 73 74 77 78 75 75 73 73 74 76 76 75 75 74
63 57 54 52 49 43 51 50 48 53 56 61 66 67 70 74 73 74 77 75 75 75 74 73 71 71 71 72 72 71 71 70 70 71 71 72 72 74 76 77 75 75 75 75 75 76 76 75 73
56 47 39 39 39 41 50 48 52 60 61 63 64 66 69 73 72 73 75 73 73 72 73 72 71 70 71 71 72 72 72 71 72 71 72 71 71 72 73 75 74 74 75 74 74 75 76 76 75
51 48 41 38 38 43 51 46 53 66 69 68 72 71 70 71 74 73 75 72 73 73 73 73 71 71 71 72 71 72 72 72 71 72 71 71 72 72 74 74 75 75 75 74 74 75 76 75 75
54 48 52 44 41 43 47 54 61 64 63 65 66 68 68 70 71 73 74 73 71 72 73 73 71 71 71 72 71 71 72 72 72 72 72 71 72 73 74 75 75 75 76 76 75 75 75 75 74
57 61 49 44 38 37 45 48 50 57 59 63 64 66 68 69 70 72 73 72 71 72 72 73 72 71 72 72 72 72 72 73 72 73 72 72 72 72 73 73 74 74 75 75 75 75 76 74 75
54 50 49 48 44 40 40 47 59 61 64 62 67 70 72 71 70 71 72 72 71 71 71 71 70 70 70 72 71 71 72 72 73 72 72 72 73 73 73 72 73 73 74 75 74 74 75 74 74
57 53 52 45 44 43 44 48 61 65 66 69 69 71 71 74 72 71 71 70 69 70 71 70 70 71 71 72 72 72 72 72 72 72 73 72 71 72 72 73 72 72 72 75 74 74 75 74 74

GFSSGP_sfc_temp_117.txt.gz
Temp
84 85 85 78 70 72 65 67 75 71 71 78 79 76 74 73 70 65 81 83 85 79 79 80 80 81 82 82 83 82 83 83 83 83 83 83 83 82 82 83 83 83 83 84 84 84 84 84 83
86 82 80 70 65 64 64 71 70 74 78 80 79 77 74 68 74 75 78 84 87 86 80 83 80 82 82 82 82 83 83 83 83 83 83 83 83 83 83 83 83 83 83 83 83 84 84 83 84
85 83 73 66 63 64 65 71 73 76 80 79 74 79 75 70 75 79 84 85 86 85 88 86 82 81 81 82 82 83 83 83 83 83 83 83 83 84 84 84 84 83 83 82 83 84 84 83 83
84 80 76 65 64 68 70 73 76 75 78 79 78 72 77 81 80 82 84 85 86 86 88 84 82 82 82 82 83 83 83 83 83 83 84 84 83 83 83 83 84 84 83 83 84 84 84 84 84
85 79 67 64 66 71 75 77 78 74 74 75 78 71 72 77 81 83 83 86 85 86 87 88 82 82 82 83 83 83 83 83 83 82 83 83 83 83 83 84 84 84 83 83 84 84 84 84 83
75 76 67 61 67 73 75 78 77 75 74 75 75 73 71 78 80 82 84 84 87 86 86 87 83 83 83 83 82 83 83 83 83 83 83 83 83 83 83 83 84 84 84 84 84 84 84 84 83
73 67 66 68 67 70 72 79 76 75 74 73 78 72 72 76 80 82 83 84 86 86 86 86 87 85 83 83 83 82 83 83 83 83 83 83 83 84 84 84 84 84 84 84 84 84 83 83 83
76 70 67 68 68 68 75 76 79 78 72 82 83 71 71 77 80 83 83 84 83 84 86 85 86 86 86 86 83 83 83 83 83 83 83 83 83 84 83 83 84 84 84 84 84 84 83 83 83
78 69 65 67 69 69 77 74 79 81 78 79 79 80 82 80 81 81 80 81 80 82 85 86 86 84 82 84 84 83 83 84 83 83 81 83 86 86 87 84 84 85 85 85 84 84 83 83 83
71 68 65 69 69 67 76 77 76 76 76 74 75 79 80 80 80 78 78 77 77 81 82 85 84 85 84 85 83 83 86 85 85 85 83 84 85 85 86 83 81 81 81 82 82 82 82 84 92
68 65 67 66 69 68 71 76 80 76 73 76 75 75 78 79 79 79 80 80 79 82 82 83 83 83 83 83 86 85 86 86 85 83 84 83 84 85 86 85 85 86 82 88 89 89 92 87 90
70 72 72 67 70 68 70 77 76 75 79 83 81 80 79 78 79 80 80 80 80 80 82 83 83 82 81 85 84 86 86 86 86 84 83 84 86 84 83 86 85 85 86 85 87 91 87 88 88
72 72 71 72 72 70 74 75 73 76 79 82 80 79 79 80 80 81 82 82 82 81 81 82 82 81 81 81 84 84 84 87 87 86 85 86 86 84 84 83 86 86 87 87 88 89 89 87 90
75 74 71 71 70 72 71 75 75 79 82 76 78 78 80 80 82 81 80 81 81 82 81 83 82 82 82 82 81 83 85 86 86 87 86 83 86 84 86 84 86 86 87 89 89 88 88 89 92
76 66 69 68 70 68 73 70 70 80 80 74 78 78 80 81 83 81 83 82 83 83 83 82 82 83 82 82 83 84 85 87 86 86 84 83 84 84 82 84 85 86 85 85 87 88 89 93 94
71 71 63 65 68 66 70 59 70 78 78 73 78 77 78 80 82 83 84 84 84 83 81 82 85 84 83 83 83 85 86 85 87 86 86 83 83 83 82 85 86 86 84 88 88 90 91 92 92
67 63 61 61 67 66 66 61 69 73 77 77 77 78 79 79 81 83 85 85 84 83 82 81 83 83 83 82 84 84 83 84 86 86 86 83 84 83 84 86 87 85 87 88 91 89 90 90 91
62 61 62 61 63 66 61 61 63 68 76 77 76 77 79 80 81 84 85 86 85 84 83 83 83 83 82 83 81 84 85 85 86 85 85 83 84 84 84 86 85 87 89 90 90 87 88 90 91
68 65 63 63 65 62 61 60 62 65 72 73 72 72 79 80 84 85 85 86 85 84 82 82 81 81 82 81 81 82 79 83 84 85 83 83 84 84 84 87 86 87 87 85 87 88 86 89 88
68 65 62 61 63 63 61 61 62 61 68 72 70 70 79 81 82 82 84 85 84 83 82 81 81 80 81 83 82 84 83 85 86 85 84 85 84 84 85 84 86 85 88 86 86 86 89 88 87
66 67 62 61 61 63 62 60 59 61 64 70 70 78 80 81 81 81 82 84 84 82 81 81 81 80 81 82 82 81 82 79 83 83 84 84 84 85 84 84 85 85 85 88 85 87 85 88 86
63 71 66 60 59 56 61 55 58 61 61 68 72 76 79 82 82 83 83 83 84 83 83 82 81 80 81 81 82 80 82 82 81 80 82 85 85 84 85 84 84 83 85 84 86 88 87 86 86
67 70 67 63 59 58 56 54 60 62 58 66 70 76 79 81 83 82 83 84 85 84 83 83 81 80 82 81 82 84 80 85 84 83 81 83 83 85 86 84 83 82 85 84 84 85 85 88 88
70 65 63 61 59 52 60 58 61 59 60 67 72 76 80 81 83 83 85 85 84 85 84 83 80 79 80 81 81 81 80 80 82 79 82 82 85 86 84 85 83 83 84 83 86 85 84 85 85
67 65 55 51 50 52 59 56 62 68 69 72 71 74 78 81 82 82 82 82 83 82 82 82 80 79 80 81 81 81 82 81 80 81 79 79 79 81 82 82 82 84 83 84 83 83 84 85 86
66 67 60 49 51 54 58 53 65 73 76 72 73 74 76 79 83 82 82 82 81 82 82 81 80 79 80 81 80 81 81 84 84 83 82 84 84 84 84 84 83 84 84 84 83 86 87 84 86
64 61 70 59 57 54 58 63 71 73 72 69 68 73 73 73 80 81 83 78 81 81 82 82 81 80 81 82 81 80 81 81 83 82 82 84 82 84 82 83 83 84 84 84 83 86 84 84 84
69 71 58 58 50 50 58 57 61 65 67 68 68 70 75 74 75 80 81 82 82 82 82 83 83 81 82 83 82 83 83 82 82 82 81 81 81 81 81 81 82 83 83 84 82 82 84 83 85
66 65 64 62 61 56 53 62 69 68 70 66 68 72 75 73 72 74 74 75 77 82 81 80 81 81 81 81 81 81 81 82 81 81 82 81 80 80 79 81 82 82 82 83 82 81 83 82 83
71 69 70 62 56 61 59 62 69 69 73 71 71 72 73 71 72 74 73 72 77 79 81 80 79 80 81 82 80 80 80 80 81 81 81 80 80 81 81 81 80 81 81 82 82 82 84 82 82

GFSSGP_sfc_temp_120.txt.gz
Temp
87 94 96 87 79 83 73 74 82 78 78 85 86 82 81 81 77 69 92 93 83 81 82 82 81 82 82 82 82 83 83 83 83 83 83 83 83 83 84 83 83 83 84 84 84 84 84 84 84
97 90 90 84 77 73 72 79 77 80 84 86 85 84 82 75 85 85 87 91 83 90 91 86 80 83 82 82 83 83 83 83 83 83 83 83 83 83 84 83 83 82 83 84 84 84 84 84 84
93 89 80 77 78 73 73 79 81 82 86 84 80 86 83 77 85 88 93 94 95 92 96 90 82 82 82 83 83 83 84 83 83 83 83 84 84 84 84 83 83 83 84 84 84 84 84 84 84
94 89 82 72 72 76 80 82 83 81 84 84 85 78 84 90 88 92 94 95 95 96 97 86 82 82 83 83 83 83 83 83 83 84 84 83 83 84 84 84 83 84 84 84 84 85 84 84 84
95 89 78 68 72 79 84 85 84 80 81 81 85 79 78 85 92 93 93 95 96 96 97 93 83 82 83 83 83 83 83 83 83 83 83 83 84 84 85 84 84 84 84 84 84 85 84 84 83
86 88 74 62 74 79 83 85 84 82 82 82 83 81 80 88 90 92 95 95 97 95 96 93 83 83 83 82 82 82 83 82 82 84 83 83 84 84 84 84 84 84 84 84 84 84 84 83 83
81 81 74 77 75 76 79 86 83 82 82 82 87 79 83 87 91 93 94 95 96 96 96 94 94 87 83 82 83 83 83 83 82 83 84 84 84 84 84 84 84 85 85 84 84 84 84 83 83
88 84 75 77 76 74 81 83 85 84 80 89 91 79 78 85 90 93 94 94 94 94 95 93 94 95 93 92 83 83 83 83 84 84 84 83 84 84 84 84 84 85 85 84 84 84 84 83 83
86 74 74 75 77 75 84 80 85 88 85 87 87 89 90 89 91 91 90 91 91 92 94 96 95 91 88 88 87 84 84 84 84 84 83 86 93 92 91 85 85 85 85 85 84 84 84 84 84
80 76 72 77 73 71 80 82 83 83 83 82 84 89 89 89 88 88 88 88 89 90 93 95 93 92 91 93 88 88 92 94 93 91 89 92 92 90 90 85 82 82 83 83 83 83 83 84 101
70 66 77 71 71 73 75 81 85 81 80 84 83 84 87 88 88 88 89 90 91 91 93 94 92 91 92 90 93 92 94 93 91 89 91 91 92 92 93 91 91 92 85 97 93 93 99 94 98
74 77 74 77 75 71 71 84 81 83 83 91 90 89 88 88 88 89 90 90 90 89 90 93 92 90 91 93 94 94 94 94 93 91 89 89 93 91 91 94 91 92 96 93 95 98 94 94 95
79 79 74 80 80 76 81 80 80 82 87 92 91 89 88 89 89 91 92 92 91 89 90 92 90 88 88 89 93 93 93 95 94 93 91 94 94 90 93 91 95 95 97 97 96 97 96 95 97
83 80 78 78 78 78 78 80 82 84 87 88 87 88 89 90 90 89 90 89 89 90 89 91 89 88 89 89 88 90 93 94 95 94 93 90 95 91 93 92 94 95 97 98 98 95 96 98 98
83 74 75 74 75 73 77 74 74 86 87 85 86 88 89 90 91 89 90 89 90 91 90 89 89 90 88 88 86 91 93 95 94 94 90 90 92 89 89 93 94 95 95 92 94 95 96 98 99
79 79 70 73 75 74 73 65 71 84 84 82 84 87 88 89 91 91 92 92 92 91 88 89 93 91 89 89 89 93 94 94 94 95 94 90 89 90 89 94 95 95 94 97 97 98 97 98 97
76 74 70 67 74 71 70 65 71 77 84 81 80 87 88 88 89 91 93 93 92 91 88 88 90 90 89 88 91 91 90 93 94 94 94 90 90 90 93 95 95 93 97 97 99 97 97 95 97
71 71 72 70 70 73 71 70 66 74 81 84 85 88 88 89 89 91 92 93 93 91 89 89 90 88 88 89 88 92 92 93 94 94 94 90 91 90 91 94 93 94 97 97 97 94 97 98 99
76 73 71 71 71 71 72 72 68 69 72 81 85 81 88 89 92 93 93 93 92 91 89 88 87 86 88 88 89 90 88 91 92 93 90 89 91 90 90 95 93 95 95 92 94 94 92 96 96
77 74 71 70 70 70 70 70 74 73 71 78 84 75 86 90 91 91 91 93 92 90 89 87 87 85 86 89 87 91 91 92 93 93 90 91 91 90 91 90 93 91 96 92 92 91 96 97 97
76 75 73 70 69 71 70 69 71 72 74 75 82 83 82 89 90 90 90 91 92 89 88 87 86 86 86 88 89 88 86 88 87 90 91 91 91 91 90 90 92 91 91 95 91 92 90 95 95
72 79 77 70 68 66 70 65 70 72 69 72 74 82 77 88 91 92 91 91 92 91 90 89 87 86 86 87 87 83 85 88 89 88 90 90 91 91 91 90 90 89 93 90 93 95 91 89 93
75 79 77 74 70 68 67 64 76 75 67 70 74 81 80 89 91 92 92 92 94 93 91 90 87 86 87 86 87 88 87 90 91 92 87 87 88 91 92 90 89 89 92 90 89 90 89 95 92
80 76 74 73 69 62 72 68 73 72 72 73 74 79 84 89 92 93 94 94 93 94 92 90 86 85 86 85 86 85 86 87 88 86 88 89 90 92 90 91 89 89 90 89 91 90 89 89 90
78 75 64 61 62 62 71 67 73 80 81 80 77 79 85 90 91 92 92 92 92 91 90 89 86 84 86 86 86 86 86 86 86 86 88 85 89 91 90 88 87 90 88 89 89 88 89 89 90
75 77 68 55 62 67 68 63 77 82 85 87 84 81 86 89 92 92 92 91 90 91 90 89 87 84 86 86 86 86 86 85 88 88 86 88 88 89 89 89 89 89 89 89 89 91 91 91 91
75 68 81 72 74 66 71 73 81 84 83 85 85 83 83 87 89 92 93 92 90 90 89 89 87 86 86 88 86 86 86 85 89 89 85 88 85 86 87 88 88 89 89 89 88 91 89 89 89
77 81 69 71 56 56 67 67 69 75 78 81 81 79 78 83 87 90 92 92 91 91 90 90 89 87 87 89 88 88 88 87 88 88 85 88 89 86 87 87 88 88 88 88 86 90 90 88 91
74 72 73 76 71 59 57 66 77 76 78 80 80 82 79 77 79 87 90 91 91 91 91 89 89 88 87 88 88 88 89 89 88 88 88 86 86 87 86 86 87 87 87 88 86 87 88 87 87
80 77 78 68 64 70 69 57 77 78 80 83 82 74 78 78 79 78 88 89 89 89 90 89 88 88 88 88 87 87 87 87 88 86 88 87 86 86 86 87 86 86 87 88 86 85 89 87 86

GFSSGP_sfc_temp_123.txt.gz
Temp
88 95 101 93 75 79 74 77 86 82 82 91 90 86 84 84 79 69 93 93 85 84 91 85 81 82 81 80 81 83 82 83 82 83 83 83 84 83 83 83 83 84 84 84 84 84 84 84 84
100 97 93 87 72 70 71 83 81 85 88 90 89 85 84 80 89 89 90 90 93 88 94 92 81 82 83 81 82 83 83 83 83 83 83 83 83 84 84 83 83 84 84 84 84 84 84 83 83
96 96 88 84 74 72 72 83 83 87 89 84 85 90 88 82 90 92 93 93 97 92 96 88 83 83 82 82 81 83 83 83 83 83 84 84 84 84 84 84 84 84 84 84 84 84 84 84 84
99 94 85 71 73 82 83 86 87 85 88 89 88 81 90 95 93 96 98 97 97 94 92 86 83 83 83 83 84 83 84 83 83 84 83 84 84 84 84 84 84 85 84 83 84 84 84 84 84
99 93 78 76 77 83 88 89 88 84 85 86 90 81 83 93 98 98 98 100 95 94 97 92 83 83 83 84 84 83 83 83 84 83 84 84 84 85 84 84 84 85 85 85 84 84 84 84 83
84 92 67 67 73 84 87 90 89 83 87 87 86 83 84 95 95 97 100 98 98 96 96 93 84 83 83 84 83 83 83 83 83 83 84 84 84 84 84 84 85 85 85 85 84 84 83 83 83
83 81 61 76 77 80 84 91 86 85 86 87 92 80 86 91 96 99 99 100 100 99 95 95 93 86 84 83 83 84 84 84 83 84 84 84 84 84 84 84 84 84 85 85 84 84 84 83 83
85 85 77 73 78 74 86 88 90 88 86 96 95 82 82 91 97 99 98 99 95 95 93 88 95 95 92 90 84 84 84 84 84 84 84 84 84 85 85 84 85 85 85 85 84 84 84 83 83
92 76 63 74 74 79 86 84 91 93 90 91 92 93 94 95 97 96 95 95 96 94 91 94 86 89 86 90 87 85 84 84 84 84 84 85 92 91 89 85 85 85 85 85 84 84 84 84 83
85 67 71 81 79 76 81 85 87 86 87 87 90 93 94 94 93 93 92 90 92 94 89 80 90 94 91 92 89 90 90 90 90 93 92 95 92 91 91 86 83 84 84 85 85 84 85 85 93
79 71 82 81 79 75 75 83 90 86 79 90 87 88 91 92 93 93 94 95 95 96 92 94 93 87 89 91 91 93 95 94 92 91 93 92 92 92 93 89 90 90 86 92 89 90 94 97 99
78 81 81 83 81 74 72 75 84 85 79 94 93 93 92 91 93 94 94 95 95 95 95 95 94 91 88 94 95 92 90 96 94 93 92 91 94 92 92 94 92 93 97 94 95 97 96 96 97
79 82 78 84 84 78 80 77 75 85 91 96 94 93 92 90 94 96 97 97 95 94 94 95 91 85 87 91 91 93 95 95 95 94 94 96 95 90 92 92 95 93 98 97 97 97 97 96 98
83 86 84 84 82 82 80 80 82 88 91 93 92 92 94 91 95 94 94 94 93 94 94 95 91 85 92 89 90 93 94 93 93 85 94 93 94 92 92 93 95 96 99 99 98 96 96 98 98
89 80 80 77 79 78 84 75 78 88 90 89 90 93 94 93 94 93 94 93 94 95 95 92 92 92 91 89 91 94 97 98 96 88 92 92 93 91 92 94 88 96 94 94 95 95 97 99 99
85 85 72 80 79 78 73 65 76 84 87 87 87 92 92 91 93 95 95 95 95 95 91 92 97 92 89 88 91 94 93 95 87 85 94 92 91 92 90 93 94 95 95 98 98 97 99 99 99
83 71 73 75 80 79 75 60 68 74 83 82 82 91 92 90 90 95 96 96 95 93 91 91 94 87 85 90 91 88 93 88 90 89 89 92 92 92 93 94 95 93 98 98 92 98 98 97 98
78 76 78 73 77 78 75 71 76 72 76 71 85 88 92 92 90 95 96 97 96 93 92 91 93 90 88 91 86 84 92 90 94 83 86 92 93 92 91 95 94 92 98 91 89 92 98 97 99
82 79 76 79 78 76 76 76 77 78 74 78 78 83 92 92 96 94 96 97 95 93 91 90 90 88 89 90 90 86 89 85 85 90 92 91 93 92 91 94 93 84 92 84 94 94 92 95 97
83 78 77 78 79 76 77 76 82 78 77 82 69 84 89 91 94 94 95 96 95 92 90 89 89 87 88 92 88 83 85 84 84 91 92 93 93 92 93 91 93 86 95 92 93 86 85 97 98
82 80 79 75 76 79 76 74 77 82 81 82 80 80 92 92 89 94 94 95 95 92 90 89 88 87 87 83 91 88 86 90 92 92 92 92 93 93 92 92 91 92 92 92 93 92 91 74 95
77 86 81 77 72 66 74 65 75 80 78 80 83 82 90 90 94 95 95 95 96 93 93 90 89 87 88 88 85 88 86 86 90 90 91 92 93 93 93 92 92 91 93 89 93 96 91 90 83
80 86 81 79 75 75 75 69 77 83 76 77 81 86 86 90 92 94 96 96 97 96 93 92 89 87 88 87 84 88 86 83 89 84 84 90 90 92 94 92 91 90 92 91 90 91 91 93 92
87 81 81 80 77 66 75 72 75 75 79 81 83 84 83 91 92 95 96 97 94 97 93 93 88 86 86 86 86 85 83 82 79 89 86 90 93 92 92 93 91 91 91 90 91 91 90 90 90
83 79 67 65 66 66 77 75 77 78 85 87 84 84 84 87 92 92 93 94 93 94 93 93 88 86 86 86 87 87 88 88 87 86 89 90 86 82 88 90 90 91 89 90 90 90 89 90 90
80 79 71 59 65 61 75 69 76 74 90 92 91 89 87 86 90 91 92 94 92 91 94 92 89 86 87 87 86 87 88 90 90 89 92 91 92 93 90 91 91 90 91 91 90 91 91 92 92
79 74 85 75 78 72 72 74 85 82 84 89 88 88 82 86 87 87 92 97 93 92 92 92 89 87 88 89 88 86 87 87 89 88 88 91 90 92 90 90 90 90 90 90 90 90 90 90 90
82 76 70 75 61 59 70 70 74 75 79 83 85 85 86 86 87 87 90 93 96 95 94 93 92 88 89 90 90 89 89 88 88 86 87 88 87 88 89 88 89 89 89 90 88 90 91 89 91
79 76 72 74 71 61 63 66 59 79 80 83 83 86 88 87 88 91 78 90 95 95 95 92 91 89 88 89 90 89 90 90 90 89 88 87 87 87 87 87 86 87 88 88 85 84 86 87 88
84 75 78 71 65 62 64 59 70 84 85 83 79 84 83 87 86 83 89 86 88 93 94 92 91 91 90 90 89 89 89 90 91 89 90 87 86 86 86 87 87 88 87 86 84 84 88 84 86

GFSSGP_sfc_temp_126.txt.gz
Temp
86 92 93 90 66 66 73 76 85 75 81 89 86 85 81 83 75 63 84 82 84 87 85 82 82 82 82 82 82 81 82 82 82 82 83 83 83 83 83 82 83 83 83 84 83 84 84 84 84
94 96 94 81 63 66 72 82 79 83 85 86 88 86 82 76 86 83 83 88 91 90 86 83 81 82 81 82 82 82 82 83 83 83 83 83 83 83 83 84 84 84 83 84 83 83 84 83 83
87 93 82 62 61 64 71 82 82 85 79 75 85 89 84 80 87 87 90 90 92 91 89 84 82 82 82 82 82 83 83 83 83 83 84 83 84 83 84 84 84 84 84 84 84 84 84 84 84
93 93 85 69 68 81 81 84 86 84 85 86 88 81 89 93 88 90 94 93 88 79 88 84 83 83 82 82 82 83 83 83 84 84 84 84 84 83 84 83 84 84 84 83 84 84 84 84 84
96 80 63 63 73 83 87 88 88 83 85 85 87 79 81 91 94 93 95 88 76 74 87 86 83 83 83 83 82 82 83 83 83 83 84 84 84 84 84 84 85 84 85 84 84 84 84 84 83
84 63 55 65 74 84 87 89 87 86 86 86 83 80 81 94 93 95 88 87 81 77 89 86 83 83 83 84 83 83 83 83 83 84 84 84 84 84 84 85 85 85 85 84 84 84 83 83 83
76 60 59 66 70 80 83 82 81 86 86 86 88 78 84 90 95 91 85 91 88 92 90 87 86 84 84 83 84 83 83 83 84 84 84 84 84 84 84 84 85 85 85 85 84 84 83 83 83
89 64 62 67 63 75 86 84 91 87 86 93 88 78 78 89 95 95 93 95 83 82 92 89 87 86 85 85 84 84 84 84 84 84 84 84 85 85 84 84 84 85 85 84 84 84 83 83 83
95 65 62 61 68 63 87 83 91 95 90 88 86 90 92 95 96 92 92 92 80 76 88 92 91 87 84 84 84 84 84 84 84 84 84 83 85 85 86 84 85 85 85 84 84 84 84 83 83
81 60 65 68 72 67 76 80 87 88 88 85 86 92 93 94 93 90 88 83 88 82 72 83 79 82 87 90 83 82 83 85 86 86 82 80 83 84 87 85 85 85 85 85 85 84 84 84 87
83 69 76 81 82 80 78 76 84 84 83 88 84 87 90 92 90 90 88 91 88 78 83 76 90 79 82 86 82 75 75 85 86 89 85 86 85 83 84 82 82 82 84 84 86 86 85 85 84
80 82 83 84 83 80 73 76 75 77 72 85 91 91 91 90 90 91 88 82 88 85 83 88 81 74 74 88 77 86 86 89 88 87 86 84 84 85 84 84 84 82 85 84 85 87 90 91 90
82 82 81 86 85 81 78 77 69 78 84 92 93 92 91 89 89 94 94 90 93 86 90 90 82 73 76 80 78 87 88 91 88 87 87 84 85 83 85 86 85 83 86 87 87 87 88 88 91
81 81 83 85 82 82 80 76 75 84 94 92 91 90 90 88 90 91 92 92 92 88 86 88 87 86 87 81 86 85 80 85 86 88 89 87 85 83 85 84 85 86 85 87 88 87 86 88 90
85 77 81 81 80 77 84 63 70 73 80 90 90 91 89 91 93 91 93 92 92 91 88 86 87 87 87 89 90 84 77 88 86 79 89 89 85 87 85 84 86 87 87 89 88 88 88 87 91
85 74 68 80 80 80 79 61 64 70 73 84 90 91 89 91 93 94 94 94 93 90 88 86 91 87 85 88 88 89 86 86 85 82 88 88 89 87 85 86 84 87 86 86 86 86 85 87 86
81 70 69 63 82 78 76 61 64 66 74 78 85 89 89 90 90 93 95 94 93 88 88 88 84 85 86 86 87 86 84 79 77 75 85 87 88 88 85 82 85 87 86 85 87 86 88 87 87
75 76 76 68 78 78 72 70 70 75 75 73 75 80 88 89 89 92 94 95 94 90 88 88 84 82 79 84 84 83 88 76 82 81 86 88 89 89 85 76 86 86 77 76 79 84 86 87 87
84 78 75 76 80 79 73 73 75 79 79 73 68 78 84 88 91 92 95 95 93 90 87 88 81 79 82 85 83 77 83 84 80 77 87 87 88 88 87 83 88 74 69 73 76 84 84 84 86
83 79 77 80 82 79 77 76 79 79 79 79 75 74 75 90 86 91 93 93 92 88 87 86 83 82 80 84 80 83 78 84 79 85 86 88 88 89 88 84 82 73 71 77 73 70 74 74 84
81 79 79 76 78 81 78 73 78 82 81 82 82 72 72 75 85 90 91 92 91 87 86 85 82 83 85 83 77 81 81 79 72 81 86 87 87 89 87 87 83 77 77 78 75 75 74 70 73
76 86 84 79 74 67 76 57 75 79 77 79 81 77 77 80 91 90 92 89 91 88 88 85 84 82 85 84 85 79 82 80 84 84 85 86 86 88 89 89 89 84 80 73 82 83 68 71 69
80 88 83 80 75 73 72 66 75 79 77 78 81 83 84 83 90 91 91 92 92 90 89 87 84 82 82 82 84 84 83 82 83 76 82 85 86 88 85 87 89 86 85 84 84 82 81 80 78
88 84 81 80 76 64 74 72 74 77 75 76 83 85 86 82 81 91 91 94 92 90 91 87 83 81 82 82 82 82 82 80 73 79 76 83 85 86 85 89 87 87 86 84 85 84 85 83 82
83 77 65 63 64 62 77 75 75 78 79 79 77 85 86 82 83 91 85 89 90 88 90 88 84 80 82 82 83 81 83 81 79 79 80 80 82 85 83 85 85 86 86 86 85 84 84 83 83
79 78 68 58 61 64 75 63 69 81 82 81 75 77 89 87 86 90 86 86 87 90 88 88 84 81 81 82 82 82 82 80 85 84 85 85 85 80 81 83 87 86 86 85 85 85 84 83 83
79 73 83 73 75 69 74 76 80 82 81 85 89 88 87 87 88 86 93 89 86 90 87 87 84 83 83 83 82 81 81 82 85 82 85 87 88 86 84 86 86 86 85 85 84 84 83 83 84
82 84 70 73 59 58 69 64 61 71 76 82 86 86 83 88 88 79 88 85 89 90 87 89 86 84 84 85 84 83 82 83 83 85 84 85 86 86 86 86 85 84 85 86 84 83 84 81 82
78 75 75 76 70 60 60 56 72 72 79 78 77 68 85 86 87 82 80 78 75 88 90 88 86 85 84 85 84 84 84 84 84 80 83 82 83 85 82 82 84 84 84 83 82 82 81 81 81
84 78 78 66 64 70 65 65 79 80 84 79 71 69 81 75 71 77 72 73 74 77 89 88 86 86 86 86 84 84 84 84 84 84 84 83 81 83 84 84 83 83 82 82 82 81 82 81 81